[[{"header":{"parameterUnit":"m.s-1","parameterCategory":1,"la1":31.0,"la2":29.5877,"lo1":-88.7671,"lo2":-86.6584,"dy":0.0162,"dx":0.0185,"nx":115,"ny":88,"refTime":"2023-10-29T12:00:00:Z","depth":0,"parameterNumber":2,"parameterNumberName":"U-component_of_WINDS"},"data":[0.0,0.0,0.0,0.0,0.0,0.0,0.0,0.0,0.0,0.0,0.0,0.0,0.0,0.0,0.0,0.0,0.0,0.0,0.0,0.0,0.0,0.0,0.0,0.0,0.0,0.0,0.0,0.0,0.0,0.0,0.0,0.0,0.0,0.0,0.0,0.0,0.0,0.0,0.0,0.0,0.0,0.0,0.0,0.0,0.0,0.0,0.0,0.0,0.0,0.0,0.0,0.0,0.0,0.0,0.0,0.0,0.0,0.0,0.0,0.0,0.0,0.0,0.0,0.0,0.0,0.0,0.0,0.0,0.0,0.0,0.0,0.0,0.0,0.0,0.0,0.0,0.0,0.0,0.0,0.0,0.0,0.0,0.0,0.0,0.0,0.0,0.0,0.0,0.0,0.0,0.0,0.0,0.0,0.0,0.0,0.0,0.0,0.0,0.0,0.0,0.0,0.0,0.0,0.0,0.0,0.0,0.0,0.0,0.0,0.0,0.0,0.0,0.0,0.0,0.0,0.0,0.0,0.0,0.0,0.0,0.0,0.0,0.0,0.0,0.0,0.0,0.0,0.0,0.0,0.0,0.0,0.0,0.0,0.0,0.0,0.0,0.0,0.0,0.0,0.0,0.0,0.0,0.0,0.0,0.0,0.0,0.0,0.0,0.0,0.0,0.0,0.0,0.0,0.0,0.0,0.0,0.0,0.0,0.0,0.0,0.0,0.0,0.0,0.0,0.0,0.0,0.0,0.0,0.0,0.0,0.0,0.0,0.0,0.0,0.0,0.0,0.0,0.0,0.0,0.0,0.0,0.0,0.0,0.0,0.0,0.0,0.0,0.0,0.0,0.0,0.0,0.0,0.0,0.0,0.0,0.0,0.0,0.0,0.0,0.0,0.0,0.0,0.0,0.0,0.0,0.0,0.0,0.0,0.0,0.0,0.0,0.0,0.0,0.0,0.0,0.0,0.0,0.0,0.0,0.0,0.0,0.0,0.0,0.0,0.0,0.0,0.0,0.0,0.0,0.0,0.0,0.0,0.0,0.0,0.0,0.0,0.0,0.0,0.0,0.0,0.0,0.0,0.0,0.0,0.0,0.0,0.0,0.0,0.0,0.0,0.0,0.0,0.0,0.0,0.0,0.0,0.0,0.0,0.0,0.0,0.0,0.0,0.0,0.0,0.0,0.0,0.0,0.0,0.0,0.0,0.0,0.0,0.0,0.0,0.0,0.0,0.0,0.0,0.0,0.0,0.0,0.0,0.0,0.0,0.0,0.0,0.0,0.0,0.0,0.0,0.0,0.0,0.0,0.0,0.0,0.0,0.0,0.0,0.0,0.0,0.0,0.0,0.0,0.0,0.0,0.0,0.0,0.0,0.0,0.0,0.0,0.0,0.0,0.0,0.0,0.0,0.0,0.0,0.0,0.0,0.0,0.0,0.0,0.0,0.0,0.0,0.0,0.0,0.0,0.0,0.0,0.0,0.0,0.0,0.0,0.0,0.0,0.0,0.0,0.0,0.0,0.0,0.0,0.0,0.0,0.0,0.0,0.0,0.0,0.0,0.0,0.0,0.0,0.0,0.0,0.0,0.0,0.0,0.0,0.0,0.0,0.0,0.0,0.0,0.0,0.0,0.0,0.0,0.0,0.0,0.0,0.0,0.0,0.0,0.0,0.0,0.0,0.0,0.0,0.0,0.0,0.0,0.0,0.0,0.0,0.0,0.0,0.0,0.0,0.0,0.0,0.0,0.0,0.0,0.0,0.0,0.0,0.0,0.0,0.0,0.0,0.0,0.0,0.0,0.0,0.0,0.0,0.0,0.0,0.0,0.0,0.0,0.0,0.0,0.0,0.0,0.0,0.0,0.0,0.0,0.0,0.0,0.0,0.0,0.0,0.0,0.0,0.0,0.0,0.0,0.0,0.0,0.0,0.0,0.0,0.0,0.0,0.0,0.0,0.0,0.0,0.0,0.0,0.0,0.0,0.0,0.0,0.0,0.0,0.0,0.0,0.0,0.0,0.0,0.0,0.0,0.0,0.0,0.0,0.0,0.0,0.0,0.0,0.0,0.0,0.0,0.0,0.0,0.0,0.0,0.0,0.0,0.0,0.0,0.0,0.0,0.0,0.0,0.0,0.0,0.0,0.0,0.0,0.0,0.0,0.0,0.0,0.0,0.0,0.0,0.0,0.0,0.0,0.0,0.0,0.0,0.0,0.0,0.0,0.0,0.0,0.0,0.0,0.0,0.0,0.0,0.0,0.0,0.0,0.0,0.0,0.0,0.0,0.0,0.0,0.0,0.0,0.0,0.0,0.0,0.0,0.0,0.0,0.0,0.0,0.0,0.0,0.0,0.0,0.0,0.0,0.0,0.0,0.0,0.0,0.0,0.0,0.0,0.0,0.0,0.0,0.0,0.0,0.0,0.0,0.0,0.0,0.0,0.0,0.0,0.0,0.0,0.0,0.0,0.0,0.0,0.0,0.0,0.0,0.0,0.0,0.0,0.0,0.0,0.0,0.0,0.0,0.0,0.0,0.0,0.0,0.0,0.0,0.0,0.0,0.0,0.0,0.0,0.0,0.0,0.0,0.0,0.0,0.0,0.0,0.0,0.0,0.0,0.0,0.0,0.0,0.0,0.0,0.0,0.0,0.0,0.0,0.0,0.0,0.0,0.0,0.0,0.0,0.0,0.0,0.0,0.0,0.0,0.0,0.0,0.0,0.0,0.0,0.0,0.0,0.0,0.0,0.0,0.0,0.0,0.0,0.0,0.0,0.0,0.0,0.0,0.0,0.0,0.0,0.0,0.0,0.0,0.0,0.0,0.0,0.0,0.0,0.0,0.0,0.0,0.0,0.0,0.0,0.0,0.0,0.0,0.0,0.0,0.0,0.0,0.0,0.0,0.0,0.0,0.0,0.0,0.0,0.0,0.0,0.0,0.0,0.0,0.0,0.0,0.0,0.0,0.0,0.0,0.0,0.0,0.0,0.0,0.0,0.0,0.0,0.0,0.0,0.0,0.0,0.0,0.0,0.0,0.0,0.0,0.0,0.0,0.0,0.0,0.0,0.0,0.0,0.0,0.0,0.0,0.0,0.0,0.0,0.0,0.0,0.0,0.0,0.0,0.0,0.0,0.0,0.0,0.0,0.0,0.0,0.0,0.0,0.0,0.0,0.0,0.0,0.0,0.0,0.0,0.0,0.0,0.0,0.0,0.0,0.0,0.0,0.0,0.0,0.0,0.0,0.0,0.0,0.0,0.0,0.0,0.0,0.0,0.0,0.0,0.0,0.0,0.0,0.0,0.0,0.0,0.0,0.0,0.0,0.0,0.0,0.0,0.0,0.0,0.0,0.0,0.0,0.0,0.0,0.0,0.0,0.0,0.0,0.0,0.0,0.0,0.0,0.0,0.0,0.0,0.0,0.0,0.0,0.0,0.0,0.0,0.0,0.0,0.0,0.0,0.0,0.0,0.0,0.0,0.0,0.0,0.0,0.0,0.0,0.0,0.0,0.0,0.0,0.0,0.0,0.0,0.0,0.0,0.0,0.0,0.0,0.0,0.0,0.0,0.0,0.0,0.0,0.0,0.0,0.0,0.0,0.0,0.0,0.0,0.0,0.0,0.0,0.0,0.0,0.0,0.0,0.0,0.0,0.0,0.0,0.0,0.0,0.0,0.0,0.0,0.0,0.0,0.0,0.0,0.0,0.0,0.0,0.0,0.0,0.0,0.0,0.0,0.0,0.0,0.0,0.0,0.0,0.0,0.0,0.0,0.0,0.0,0.0,0.0,0.0,0.0,0.0,0.0,0.0,0.0,0.0,0.0,0.0,0.0,0.0,0.0,0.0,0.0,0.0,0.0,0.0,0.0,0.0,0.0,0.0,0.0,0.0,0.0,0.0,0.0,0.0,0.0,0.0,0.0,0.0,0.0,0.0,0.0,0.0,0.0,0.0,0.0,0.0,0.0,0.0,0.0,0.0,0.0,0.0,0.0,0.0,0.0,0.0,0.0,0.0,0.0,0.0,0.0,0.0,0.0,0.0,0.0,0.0,0.0,0.0,0.0,0.0,0.0,0.0,0.0,0.0,0.0,0.0,0.0,0.0,0.0,0.0,0.0,0.0,0.0,0.0,0.0,0.0,0.0,0.0,0.0,0.0,0.0,0.0,0.0,0.0,0.0,0.0,0.0,0.0,0.0,0.0,0.0,0.0,0.0,0.0,0.0,0.0,0.0,0.0,0.0,0.0,0.0,0.0,0.0,0.0,0.0,0.0,0.0,0.0,0.0,0.0,0.0,1.9582,0.0,0.0,0.0,0.0,0.0,0.0,0.0,0.0,0.0,0.0,0.0,0.0,0.0,0.0,0.0,0.0,0.0,0.0,0.0,0.0,0.0,0.0,0.0,0.0,0.0,0.0,0.0,0.0,0.0,0.0,0.0,0.0,0.0,0.0,0.0,0.0,0.0,0.0,0.0,0.0,0.0,0.0,0.0,0.0,0.0,0.0,0.0,0.0,0.0,0.0,0.0,0.0,0.0,0.0,0.0,0.0,0.0,0.0,0.0,0.0,0.0,0.0,0.0,0.0,0.0,0.0,0.0,0.0,0.0,0.0,0.0,0.0,0.0,0.0,0.0,0.0,0.0,0.0,0.0,0.0,0.0,0.0,0.0,0.0,0.0,0.0,0.0,0.0,0.0,0.0,0.0,0.0,0.0,0.0,0.0,0.0,0.0,0.0,0.0,0.0,0.0,0.0,0.0,0.0,0.0,0.0,0.0,0.0,0.0,0.0,1.9596,1.9604,1.9643,1.9438,1.8976,0.0,0.0,0.0,0.0,0.0,0.0,0.0,0.0,0.0,0.0,0.0,0.0,0.0,0.0,0.0,0.0,0.0,0.0,0.0,0.0,0.0,0.0,0.0,0.0,0.0,0.0,0.0,0.0,0.0,0.0,0.0,0.0,0.0,0.0,0.0,0.0,0.0,0.0,0.0,0.0,0.0,0.0,0.0,0.0,0.0,0.0,0.0,0.0,0.0,0.0,0.0,0.0,0.0,0.0,0.0,0.0,0.0,0.0,0.0,0.0,0.0,0.0,0.0,0.0,0.0,0.0,0.0,0.0,0.0,0.0,0.0,0.0,0.0,0.0,0.0,0.0,0.0,0.0,0.0,0.0,0.0,0.0,0.0,0.0,0.0,0.0,0.0,0.0,0.0,0.0,0.0,0.0,0.0,0.0,0.0,0.0,0.0,0.0,0.0,0.0,0.0,0.0,0.0,0.0,0.0,0.0,0.0,0.0,0.0,0.0,0.0,0.0,1.9257,1.8957,1.8454,0.0,0.0,0.0,0.0,0.0,0.0,0.0,0.0,0.0,0.0,0.0,0.0,0.0,0.0,0.0,0.0,0.0,0.0,0.0,0.0,0.0,0.0,0.0,0.0,0.0,0.0,0.0,0.0,0.0,0.0,0.0,0.0,0.0,0.0,0.0,0.0,0.0,0.0,0.0,0.0,0.0,0.0,0.0,0.0,0.0,0.0,0.0,0.0,0.0,0.0,0.0,0.0,0.0,0.0,0.0,0.0,0.0,0.0,0.0,0.0,0.0,0.0,0.0,0.0,0.0,0.0,0.0,0.0,0.0,0.0,0.0,0.0,0.0,0.0,0.0,0.0,0.0,0.0,0.0,0.0,0.0,0.0,0.0,0.0,0.0,0.0,0.0,0.0,0.0,0.0,0.0,0.0,0.0,0.0,0.0,0.0,0.0,0.0,0.0,0.0,0.0,0.0,0.0,0.0,0.0,0.0,0.0,0.0,0.0,0.0,1.8572,1.8685,1.8004,0.0,1.842,0.0,0.0,0.0,0.0,0.0,0.0,0.0,0.0,0.0,0.0,0.0,0.0,0.0,0.0,0.0,0.0,0.0,0.0,0.0,0.0,0.0,0.0,0.0,0.0,0.0,0.0,0.0,0.0,0.0,0.0,0.0,0.0,0.0,0.0,0.0,0.0,0.0,0.0,0.0,0.0,0.0,0.0,0.0,0.0,0.0,0.0,0.0,0.0,0.0,0.0,0.0,0.0,0.0,0.0,0.0,0.0,0.0,0.0,0.0,0.0,0.0,0.0,0.0,0.0,0.0,0.0,0.0,0.0,0.0,0.0,0.0,0.0,0.0,0.0,0.0,0.0,0.0,0.0,0.0,0.0,0.0,0.0,0.0,0.0,0.0,0.0,0.0,0.0,0.0,0.0,0.0,0.0,0.0,0.0,0.0,0.0,0.0,0.0,0.0,0.0,0.0,0.0,0.0,0.0,0.0,0.0,0.0,0.0,0.0,0.0,1.9031,1.8617,1.7799,1.774,0.0,0.0,0.0,0.0,0.0,0.0,0.0,0.0,0.0,0.0,0.0,0.0,0.0,0.0,0.0,0.0,0.0,0.0,0.0,0.0,0.0,0.0,0.0,0.0,0.0,0.0,0.0,0.0,0.0,0.0,0.0,0.0,0.0,0.0,0.0,0.0,0.0,0.0,0.0,0.0,0.0,0.0,0.0,0.0,0.0,0.0,0.0,0.0,0.0,0.0,0.0,0.0,0.0,0.0,0.0,0.0,0.0,0.0,0.0,0.0,0.0,0.0,0.0,0.0,0.0,0.0,0.0,0.0,0.0,0.0,0.0,0.0,0.0,0.0,0.0,0.0,0.0,0.0,0.0,0.0,0.0,0.0,0.0,0.0,0.0,0.0,0.0,0.0,0.0,0.0,0.0,0.0,0.0,0.0,0.0,0.0,0.0,0.0,0.0,0.0,0.0,0.0,0.0,0.0,0.0,0.0,0.0,0.0,0.0,0.0,1.9012,1.8666,1.768,1.7056,1.7187,1.8136,0.0,0.0,0.0,0.0,0.0,0.0,0.0,0.0,0.0,0.0,0.0,0.0,0.0,0.0,0.0,0.0,0.0,0.0,0.0,0.0,0.0,0.0,0.0,0.0,0.0,0.0,0.0,0.0,0.0,0.0,0.0,0.0,0.0,0.0,0.0,0.0,0.0,0.0,0.0,0.0,0.0,0.0,0.0,0.0,0.0,0.0,0.0,0.0,0.0,0.0,0.0,0.0,0.0,0.0,0.0,0.0,0.0,0.0,0.0,0.0,0.0,0.0,0.0,0.0,0.0,0.0,0.0,0.0,0.0,0.0,0.0,0.0,0.0,0.0,0.0,0.0,0.0,0.0,0.0,0.0,0.0,0.0,0.0,0.0,0.0,0.0,0.0,0.0,0.0,0.0,0.0,0.0,0.0,0.0,0.0,0.0,0.0,0.0,0.0,0.0,0.0,0.0,0.0,0.0,0.0,0.0,0.0,0.0,1.9637,1.8289,1.68,1.54,1.5152,1.5826,0.0,0.0,0.0,0.0,0.0,0.0,0.0,0.0,0.0,0.0,0.0,0.0,0.0,0.0,0.0,0.0,0.0,0.0,0.0,0.0,0.0,0.0,0.0,0.0,0.0,0.0,0.0,0.0,0.0,0.0,0.0,0.0,0.0,0.0,0.0,0.0,0.0,0.0,0.0,0.0,0.0,0.0,0.0,0.0,0.0,0.0,0.0,0.0,0.0,0.0,0.0,0.0,0.0,0.0,0.0,0.0,0.0,0.0,0.0,0.0,0.0,0.0,0.0,0.0,0.0,0.0,0.0,0.0,0.0,0.0,0.0,0.0,0.0,0.0,0.0,0.0,0.0,0.0,0.0,0.0,0.0,0.0,0.0,0.0,0.0,0.0,0.0,0.0,0.0,0.0,0.0,0.0,0.0,0.0,0.0,0.0,0.0,0.0,0.0,0.0,0.0,0.0,0.0,0.0,0.0,0.0,0.0,0.0,0.0,1.8278,1.7236,1.6432,1.588,1.583,1.6307,0.0,0.0,0.0,0.0,0.0,0.0,0.0,0.0,0.0,0.0,0.0,0.0,0.0,0.0,0.0,0.0,0.0,0.0,0.0,0.0,0.0,0.0,0.0,0.0,0.0,0.0,0.0,0.0,0.0,0.0,0.0,0.0,0.0,0.0,0.0,0.0,0.0,0.0,0.0,0.0,0.0,0.0,0.0,0.0,0.0,0.0,0.0,0.0,0.0,0.0,0.0,0.0,0.0,0.0,0.0,0.0,0.0,0.0,0.0,0.0,0.0,0.0,0.0,0.0,0.0,0.0,0.0,0.0,0.0,0.0,0.0,0.0,0.0,0.0,0.0,0.0,0.0,0.0,0.0,0.0,0.0,0.0,0.0,0.0,0.0,0.0,0.0,0.0,0.0,0.0,0.0,0.0,0.0,0.0,0.0,0.0,0.0,0.0,0.0,0.0,0.0,0.0,0.0,0.0,0.0,0.0,0.0,0.0,0.0,1.7539,0.0,1.6204,0.0,1.5876,1.6326,0.0,0.0,0.0,0.0,0.0,0.0,0.0,0.0,0.0,0.0,0.0,0.0,0.0,0.0,0.0,0.0,0.0,0.0,0.0,0.0,0.0,0.0,0.0,0.0,0.0,0.0,0.0,0.0,0.0,0.0,0.0,0.0,0.0,0.0,0.0,0.0,0.0,0.0,0.0,0.0,0.0,0.0,0.0,0.0,0.0,0.0,0.0,0.0,0.0,0.0,0.0,0.0,0.0,0.0,0.0,0.0,0.0,0.0,0.0,0.0,0.0,0.0,0.0,0.0,0.0,0.0,0.0,0.0,0.0,0.0,0.0,0.0,0.0,0.0,0.0,0.0,0.0,0.0,0.0,0.0,0.0,0.0,0.0,0.0,0.0,0.0,0.0,0.0,0.0,0.0,0.0,0.0,0.0,0.0,0.0,0.0,0.0,0.0,0.0,0.0,0.0,0.0,0.0,0.0,0.0,0.0,0.0,0.0,1.9182,1.7731,1.6821,1.5965,1.5153,1.5083,1.574,0.0,0.0,0.0,0.0,0.0,0.0,0.0,0.0,0.0,0.0,0.0,0.0,0.0,0.0,0.0,0.0,0.0,0.0,0.0,0.0,0.0,0.0,0.0,0.0,0.0,0.0,0.0,0.0,0.0,0.0,0.0,0.0,0.0,0.0,0.0,0.0,0.0,0.0,0.0,0.0,0.0,0.0,0.0,0.0,0.0,0.0,0.0,0.0,0.0,0.0,0.0,0.0,0.0,0.0,0.0,0.0,0.0,0.0,0.0,0.0,0.0,0.0,0.0,0.0,0.0,0.0,0.0,0.0,0.0,0.0,0.0,0.0,0.0,0.0,0.0,0.0,0.0,0.0,0.0,0.0,0.0,0.0,0.0,0.0,0.0,0.0,0.0,0.0,0.0,0.0,0.0,0.0,0.0,0.0,0.0,0.0,0.0,0.0,0.0,0.0,0.0,0.0,0.0,0.0,0.0,0.0,0.0,0.0,0.0,1.7702,1.6347,1.549,1.5193,1.5108,1.5776,0.0,0.0,0.0,0.0,0.0,0.0,0.0,0.0,0.0,0.0,0.0,0.0,0.0,0.0,0.0,0.0,0.0,0.0,0.0,0.0,0.0,0.0,0.0,0.0,0.0,0.0,0.0,0.0,0.0,0.0,0.0,0.0,0.0,0.0,0.0,0.0,0.0,0.0,0.0,0.0,0.0,0.0,0.0,0.0,0.0,0.0,0.0,0.0,0.0,0.0,0.0,0.0,0.0,0.0,0.0,0.0,0.0,0.0,0.0,0.0,0.0,0.0,0.0,0.0,0.0,0.0,0.0,0.0,0.0,0.0,0.0,0.0,0.0,0.0,0.0,0.0,0.0,0.0,0.0,0.0,0.0,0.0,0.0,0.0,0.0,0.0,0.0,0.0,0.0,0.0,0.0,0.0,0.0,0.0,0.0,0.0,0.0,0.0,0.0,0.0,0.0,0.0,0.0,0.0,0.0,0.0,0.0,0.0,0.0,1.7793,1.6794,1.609,1.5695,1.5617,1.6162,1.7339,0.0,0.0,0.0,0.0,0.0,0.0,0.0,0.0,0.0,0.0,0.0,0.0,0.0,0.0,0.0,0.0,0.0,0.0,0.0,0.0,0.0,0.0,0.0,0.0,0.0,0.0,0.0,0.0,0.0,0.0,0.0,0.0,0.0,0.0,0.0,0.0,0.0,0.0,0.0,0.0,0.0,0.0,0.0,0.0,0.0,0.0,0.0,0.0,0.0,0.0,0.0,0.0,0.0,0.0,0.0,0.0,0.0,0.0,0.0,0.0,0.0,0.0,0.0,0.0,0.0,0.0,0.0,0.0,0.0,0.0,0.0,0.0,0.0,0.0,0.0,0.0,0.0,0.0,0.0,0.0,0.0,0.0,0.0,0.0,0.0,0.0,0.0,0.0,0.0,0.0,0.0,0.0,0.0,0.0,0.0,0.0,0.0,0.0,0.0,0.0,0.0,0.0,0.0,0.0,0.0,0.0,0.0,0.0,1.8027,1.7994,1.7446,1.6424,1.6394,1.6723,0.0,0.0,0.0,0.0,0.0,0.0,0.0,0.0,0.0,0.0,0.0,0.0,0.0,0.0,0.0,0.0,0.0,0.0,0.0,0.0,0.0,0.0,0.0,0.0,0.0,0.0,0.0,0.0,0.0,0.0,0.0,0.0,0.0,0.0,0.0,0.0,0.0,0.0,0.0,0.0,0.0,0.0,0.0,0.0,0.0,0.0,0.0,0.0,0.0,0.0,0.0,0.0,0.0,0.0,0.0,0.0,0.0,0.0,0.0,0.0,0.0,0.0,0.0,0.0,0.0,0.0,0.0,0.0,0.0,0.0,0.0,0.0,0.0,0.0,0.0,0.0,0.0,0.0,0.0,0.0,0.0,0.0,0.0,0.0,0.0,0.0,0.0,0.0,0.0,0.0,0.0,0.0,0.0,0.0,0.0,0.0,0.0,0.0,0.0,0.0,0.0,0.0,0.0,0.0,0.0,0.0,0.0,0.0,0.0,1.9733,1.9133,1.7766,1.5719,1.618,1.6772,0.0,0.0,0.0,0.0,0.0,0.0,0.0,0.0,0.0,0.0,0.0,0.0,0.0,0.0,0.0,0.0,0.0,0.0,0.0,0.0,0.0,0.0,0.0,0.0,0.0,0.0,0.0,0.0,0.0,0.0,0.0,0.0,0.0,0.0,0.0,0.0,0.0,0.0,0.0,0.0,0.0,0.0,0.0,0.0,0.0,0.0,0.0,0.0,0.0,0.0,0.0,0.0,0.0,0.0,0.0,0.0,0.0,0.0,0.0,0.0,0.0,0.0,0.0,0.0,0.0,0.0,0.0,0.0,0.0,0.0,0.0,0.0,0.0,0.0,0.0,0.0,0.0,0.0,0.0,0.0,0.0,0.0,0.0,0.0,0.0,0.0,0.0,0.0,0.0,0.0,0.0,0.0,0.0,0.0,0.0,0.0,0.0,0.0,0.0,0.0,0.0,0.0,0.0,0.0,0.0,0.0,0.0,0.0,2.0165,1.9823,1.9676,1.8399,1.5871,1.6624,1.7203,0.0,0.0,0.0,0.0,0.0,0.0,0.0,0.0,0.0,0.0,0.0,0.0,0.0,0.0,0.0,0.0,0.0,0.0,0.0,0.0,0.0,0.0,0.0,0.0,0.0,0.0,0.0,0.0,0.0,0.0,0.0,0.0,0.0,0.0,0.0,0.0,0.0,0.0,0.0,0.0,0.0,0.0,0.0,0.0,0.0,0.0,0.0,0.0,0.0,0.0,0.0,0.0,0.0,0.0,0.0,0.0,0.0,0.0,0.0,0.0,0.0,0.0,0.0,0.0,0.0,0.0,0.0,0.0,0.0,0.0,0.0,0.0,0.0,0.0,0.0,0.0,0.0,0.0,0.0,0.0,0.0,0.0,0.0,0.0,0.0,0.0,0.0,0.0,0.0,0.0,0.0,0.0,0.0,0.0,0.0,0.0,0.0,0.0,0.0,0.0,0.0,0.0,0.0,0.0,0.0,0.0,0.0,0.0,1.9906,1.9135,1.978,1.9074,1.6915,1.7518,1.7838,0.0,0.0,0.0,0.0,0.0,0.0,0.0,0.0,0.0,0.0,0.0,0.0,0.0,0.0,0.0,0.0,0.0,0.0,0.0,0.0,0.0,0.0,0.0,0.0,0.0,0.0,0.0,0.0,0.0,0.0,0.0,0.0,0.0,0.0,0.0,0.0,0.0,0.0,0.0,0.0,0.0,0.0,0.0,0.0,0.0,0.0,0.0,0.0,0.0,0.0,0.0,0.0,0.0,0.0,0.0,0.0,0.0,0.0,0.0,0.0,0.0,0.0,0.0,0.0,0.0,0.0,0.0,0.0,0.0,0.0,0.0,0.0,0.0,0.0,0.0,0.0,0.0,0.0,0.0,0.0,0.0,0.0,0.0,0.0,0.0,0.0,0.0,0.0,0.0,0.0,0.0,0.0,0.0,0.0,0.0,0.0,0.0,0.0,0.0,0.0,0.0,0.0,0.0,0.0,0.0,0.0,0.0,0.0,2.0122,1.9882,1.9419,1.8988,1.8494,1.871,1.8475,0.0,0.0,0.0,0.0,0.0,0.0,0.0,0.0,0.0,0.0,0.0,0.0,0.0,0.0,0.0,0.0,0.0,0.0,0.0,0.0,0.0,0.0,0.0,0.0,0.0,0.0,0.0,0.0,0.0,0.0,0.0,0.0,0.0,0.0,0.0,0.0,0.0,0.0,0.0,0.0,0.0,0.0,0.0,0.0,0.0,0.0,0.0,0.0,2.0432,0.0,0.0,0.0,0.0,0.0,0.0,0.0,0.0,0.0,0.0,0.0,0.0,0.0,0.0,0.0,0.0,0.0,0.0,0.0,0.0,0.0,0.0,0.0,0.0,0.0,0.0,0.0,0.0,0.0,0.0,0.0,0.0,0.0,0.0,0.0,0.0,0.0,0.0,0.0,0.0,0.0,0.0,0.0,0.0,0.0,0.0,0.0,0.0,0.0,0.0,0.0,0.0,0.0,0.0,0.0,0.0,0.0,0.0,0.0,1.9981,1.9962,1.9583,1.9222,1.8935,1.9426,1.9267,0.0,0.0,0.0,0.0,0.0,0.0,0.0,0.0,0.0,0.0,0.0,0.0,0.0,0.0,0.0,0.0,0.0,0.0,0.0,0.0,0.0,0.0,0.0,0.0,0.0,0.0,0.0,0.0,0.0,0.0,0.0,0.0,0.0,0.0,0.0,0.0,0.0,0.0,0.0,0.0,0.0,0.0,0.0,0.0,0.0,0.0,0.0,0.0,0.0,0.0,0.0,0.0,0.0,0.0,0.0,0.0,0.0,0.0,0.0,0.0,0.0,0.0,0.0,0.0,0.0,0.0,0.0,0.0,0.0,0.0,0.0,0.0,0.0,0.0,0.0,0.0,0.0,0.0,0.0,0.0,0.0,0.0,0.0,0.0,0.0,0.0,0.0,0.0,0.0,0.0,0.0,0.0,0.0,0.0,0.0,0.0,0.0,0.0,0.0,0.0,0.0,0.0,0.0,0.0,0.0,0.0,0.0,1.9898,1.9756,1.975,1.9805,1.9602,1.9016,1.9759,1.9879,1.9227,0.0,0.0,0.0,0.0,0.0,0.0,0.0,0.0,0.0,0.0,0.0,0.0,0.0,0.0,0.0,0.0,0.0,0.0,0.0,0.0,0.0,0.0,0.0,0.0,0.0,0.0,0.0,0.0,0.0,0.0,0.0,0.0,0.0,0.0,0.0,0.0,0.0,0.0,1.9471,2.0019,0.0,0.0,0.0,0.0,0.0,0.0,0.0,0.0,2.0483,0.0,0.0,0.0,0.0,0.0,0.0,0.0,0.0,0.0,0.0,0.0,0.0,0.0,0.0,0.0,0.0,0.0,0.0,0.0,0.0,0.0,0.0,0.0,0.0,0.0,0.0,0.0,0.0,0.0,0.0,0.0,0.0,0.0,0.0,0.0,0.0,0.0,0.0,0.0,0.0,0.0,0.0,0.0,0.0,0.0,0.0,0.0,0.0,0.0,0.0,0.0,0.0,0.0,0.0,0.0,0.0,1.9868,1.9707,1.9594,1.9467,1.9638,1.9763,1.9791,1.9438,1.9495,2.0033,0.0,0.0,0.0,0.0,0.0,0.0,0.0,0.0,0.0,0.0,0.0,0.0,0.0,0.0,0.0,0.0,0.0,0.0,0.0,0.0,0.0,0.0,0.0,0.0,0.0,0.0,0.0,0.0,0.0,0.0,0.0,0.0,0.0,0.0,0.0,0.0,0.0,0.0,0.0,2.0331,2.0422,0.0,0.0,0.0,0.0,0.0,0.0,0.0,0.0,2.0482,0.0,0.0,0.0,0.0,0.0,0.0,0.0,0.0,0.0,0.0,0.0,0.0,0.0,0.0,0.0,0.0,0.0,0.0,0.0,0.0,0.0,0.0,0.0,0.0,0.0,0.0,0.0,0.0,0.0,0.0,0.0,0.0,0.0,0.0,0.0,0.0,0.0,0.0,0.0,0.0,0.0,0.0,0.0,0.0,0.0,0.0,0.0,0.0,0.0,0.0,0.0,0.0,0.0,0.0,0.0,1.9713,1.9407,1.9261,1.9286,1.9448,1.9644,1.9896,1.9773,1.9884,0.0,0.0,0.0,0.0,0.0,0.0,0.0,0.0,0.0,0.0,0.0,0.0,0.0,0.0,0.0,0.0,0.0,0.0,0.0,0.0,0.0,0.0,0.0,0.0,0.0,0.0,0.0,0.0,0.0,0.0,0.0,0.0,0.0,0.0,0.0,0.0,0.0,0.0,0.0,0.0,2.0164,2.022,2.0187,0.0,0.0,0.0,0.0,0.0,0.0,2.0477,2.0484,0.0,0.0,0.0,0.0,0.0,0.0,0.0,0.0,0.0,0.0,0.0,0.0,0.0,0.0,0.0,0.0,0.0,0.0,0.0,0.0,0.0,0.0,0.0,0.0,0.0,0.0,0.0,0.0,0.0,0.0,0.0,0.0,0.0,0.0,0.0,0.0,0.0,0.0,0.0,0.0,0.0,0.0,0.0,0.0,0.0,0.0,0.0,0.0,0.0,0.0,0.0,0.0,0.0,0.0,0.0,1.9507,1.9081,1.9035,1.9353,1.9368,1.9599,2.0013,2.0203,2.0307,0.0,0.0,0.0,0.0,0.0,0.0,0.0,0.0,0.0,0.0,0.0,0.0,0.0,0.0,0.0,0.0,0.0,0.0,0.0,0.0,0.0,0.0,0.0,0.0,0.0,0.0,0.0,0.0,0.0,0.0,0.0,0.0,0.0,0.0,0.0,0.0,0.0,0.0,0.0,0.0,0.0,1.951,1.973,1.9853,0.0,0.0,0.0,0.0,2.0487,2.0488,0.0,0.0,0.0,0.0,0.0,0.0,0.0,0.0,0.0,0.0,0.0,0.0,0.0,0.0,0.0,0.0,0.0,0.0,0.0,0.0,0.0,0.0,0.0,0.0,0.0,0.0,0.0,0.0,0.0,0.0,0.0,0.0,0.0,0.0,0.0,0.0,0.0,0.0,0.0,0.0,0.0,0.0,0.0,0.0,0.0,0.0,0.0,0.0,0.0,0.0,0.0,0.0,0.0,0.0,0.0,0.0,1.9258,1.8961,1.9201,1.9921,1.9527,1.9785,2.0731,2.041,2.0208,0.0,0.0,0.0,0.0,0.0,0.0,0.0,0.0,0.0,0.0,0.0,0.0,0.0,0.0,0.0,0.0,0.0,0.0,0.0,0.0,0.0,0.0,0.0,0.0,0.0,0.0,0.0,0.0,0.0,0.0,0.0,0.0,0.0,0.0,0.0,0.0,0.0,0.0,0.0,0.0,0.0,1.7691,1.9089,1.8439,1.8447,0.0,0.0,0.0,2.0411,2.0423,0.0,0.0,0.0,0.0,0.0,0.0,0.0,0.0,0.0,0.0,0.0,0.0,0.0,0.0,0.0,0.0,0.0,0.0,0.0,0.0,0.0,0.0,0.0,0.0,0.0,0.0,0.0,0.0,0.0,0.0,0.0,0.0,0.0,0.0,0.0,0.0,0.0,0.0,0.0,0.0,0.0,0.0,0.0,0.0,0.0,0.0,0.0,0.0,0.0,0.0,0.0,0.0,0.0,0.0,0.0,1.9364,1.9143,1.9255,1.9572,2.0083,2.0021,2.027,2.0889,2.0454,2.0195,0.0,0.0,0.0,0.0,0.0,0.0,0.0,0.0,0.0,0.0,0.0,0.0,0.0,0.0,0.0,0.0,0.0,0.0,0.0,0.0,0.0,0.0,0.0,0.0,0.0,0.0,0.0,0.0,0.0,0.0,0.0,0.0,0.0,0.0,0.0,0.0,0.0,0.0,0.0,0.0,0.0,0.0,1.6879,1.6146,0.0,0.0,0.0,1.8689,2.0115,0.0,0.0,0.0,0.0,0.0,0.0,0.0,0.0,0.0,0.0,0.0,0.0,0.0,0.0,0.0,0.0,0.0,0.0,0.0,0.0,0.0,0.0,0.0,0.0,0.0,0.0,0.0,0.0,0.0,0.0,0.0,0.0,0.0,0.0,0.0,0.0,0.0,0.0,0.0,0.0,0.0,0.0,0.0,0.0,0.0,0.0,0.0,0.0,0.0,0.0,0.0,0.0,0.0,0.0,0.0,0.0,0.0,1.9357,1.9585,2.0025,2.0658,2.0768,2.0936,2.1178,2.0517,0.0,0.0,0.0,0.0,0.0,0.0,0.0,0.0,0.0,0.0,0.0,0.0,0.0,0.0,0.0,0.0,0.0,0.0,0.0,0.0,0.0,0.0,0.0,0.0,0.0,0.0,0.0,1.8247,0.0,0.0,0.0,0.0,0.0,0.0,0.0,0.0,0.0,0.0,0.0,0.0,0.0,0.0,1.585,1.5249,1.4409,1.4671,0.0,0.0,1.7495,1.9935,2.0545,2.0662,0.0,0.0,0.0,0.0,0.0,0.0,0.0,0.0,0.0,0.0,0.0,0.0,0.0,0.0,0.0,0.0,0.0,0.0,0.0,0.0,0.0,0.0,0.0,0.0,0.0,0.0,0.0,0.0,0.0,0.0,0.0,0.0,0.0,0.0,0.0,0.0,0.0,0.0,0.0,0.0,0.0,0.0,0.0,0.0,0.0,0.0,0.0,0.0,0.0,0.0,0.0,0.0,0.0,0.0,0.0,2.001,1.983,2.0554,2.2252,2.1862,2.1752,2.1981,2.0783,2.0134,0.0,0.0,0.0,0.0,0.0,0.0,0.0,0.0,0.0,0.0,0.0,0.0,0.0,0.0,0.0,0.0,0.0,0.0,0.0,0.0,0.0,0.0,0.0,0.0,0.0,0.0,0.0,0.0,0.0,0.0,0.0,0.0,0.0,0.0,0.0,0.0,0.0,0.0,0.0,0.0,0.0,1.4401,1.5258,1.3913,1.4072,0.0,0.0,1.7827,1.9984,2.1043,2.1369,2.0628,0.0,0.0,0.0,0.0,0.0,0.0,0.0,0.0,0.0,0.0,0.0,0.0,0.0,0.0,0.0,0.0,0.0,0.0,0.0,0.0,0.0,0.0,0.0,0.0,0.0,0.0,0.0,0.0,0.0,0.0,0.0,0.0,0.0,0.0,0.0,0.0,0.0,0.0,0.0,0.0,0.0,0.0,0.0,0.0,0.0,0.0,0.0,0.0,0.0,0.0,0.0,0.0,0.0,1.9165,1.9656,1.9996,2.0846,2.2117,2.2313,2.2293,2.2088,2.0797,2.0161,0.0,0.0,0.0,0.0,0.0,0.0,0.0,0.0,0.0,0.0,0.0,0.0,0.0,0.0,0.0,0.0,0.0,0.0,0.0,0.0,0.0,0.0,0.0,0.0,0.0,0.0,0.0,0.0,1.7098,1.7457,1.7503,0.0,0.0,0.0,0.0,0.0,0.0,0.0,0.0,0.0,0.0,1.437,1.3822,1.2378,0.0,0.0,1.6421,1.7145,2.0412,2.135,2.1605,2.1359,2.1855,0.0,0.0,0.0,0.0,0.0,0.0,0.0,0.0,0.0,0.0,0.0,0.0,0.0,0.0,0.0,0.0,0.0,0.0,0.0,0.0,0.0,0.0,0.0,0.0,0.0,0.0,0.0,0.0,0.0,0.0,0.0,0.0,0.0,0.0,0.0,0.0,0.0,0.0,0.0,0.0,0.0,0.0,0.0,0.0,0.0,0.0,0.0,0.0,0.0,0.0,0.0,0.0,1.9014,1.9817,2.0281,2.1143,2.2436,2.2924,2.2846,2.2142,2.1062,2.0298,0.0,0.0,0.0,0.0,0.0,0.0,0.0,0.0,0.0,0.0,0.0,0.0,0.0,0.0,0.0,0.0,0.0,0.0,0.0,0.0,0.0,0.0,0.0,0.0,0.0,0.0,0.0,0.0,1.7745,1.8415,1.8693,0.0,0.0,0.0,0.0,0.0,0.0,0.0,0.0,0.0,0.0,1.445,1.3273,1.1947,1.2461,1.6213,1.6112,1.7049,2.1113,2.2164,2.2406,2.2186,0.0,0.0,0.0,0.0,0.0,0.0,0.0,0.0,0.0,0.0,0.0,0.0,0.0,0.0,0.0,0.0,0.0,0.0,0.0,0.0,0.0,0.0,0.0,0.0,0.0,0.0,0.0,0.0,0.0,0.0,0.0,0.0,0.0,0.0,0.0,0.0,0.0,0.0,0.0,0.0,0.0,0.0,0.0,0.0,0.0,0.0,0.0,0.0,0.0,0.0,0.0,0.0,0.0,0.0,2.0815,2.0627,2.1499,2.3446,2.3834,2.3361,2.2216,2.1585,2.0584,1.9178,0.0,0.0,0.0,0.0,0.0,0.0,0.0,0.0,0.0,0.0,0.0,0.0,0.0,0.0,0.0,0.0,0.0,0.0,0.0,0.0,0.0,0.0,0.0,0.0,0.0,0.0,1.79,1.8648,1.9465,0.0,0.0,0.0,0.0,0.0,0.0,0.0,0.0,0.0,0.0,1.4679,1.441,1.41,1.3133,1.376,1.7432,1.7097,1.7848,2.2007,2.3544,2.3963,0.0,0.0,0.0,0.0,0.0,0.0,0.0,0.0,0.0,0.0,0.0,0.0,0.0,0.0,0.0,0.0,0.0,0.0,0.0,0.0,0.0,0.0,0.0,0.0,0.0,0.0,0.0,2.5051,2.5547,0.0,0.0,0.0,0.0,0.0,0.0,0.0,0.0,0.0,0.0,0.0,1.9115,1.8176,0.0,0.0,0.0,0.0,0.0,0.0,0.0,0.0,0.0,0.0,0.0,0.0,1.9421,2.039,2.0925,2.1596,2.2521,2.2973,2.2611,2.1362,2.0758,1.9778,1.8423,0.0,0.0,0.0,0.0,0.0,0.0,0.0,0.0,0.0,0.0,0.0,0.0,0.0,0.0,0.0,0.0,0.0,0.0,0.0,0.0,0.0,0.0,0.0,0.0,0.0,1.8947,0.0,0.0,0.0,0.0,0.0,0.0,0.0,0.0,0.0,0.0,0.0,1.4498,1.4488,1.4931,1.5142,1.4799,1.3941,1.4002,0.0,0.0,0.0,0.0,0.0,0.0,0.0,0.0,0.0,0.0,0.0,0.0,0.0,0.0,2.1905,2.0776,1.7862,1.5069,1.3645,0.0,0.0,0.0,0.0,0.0,0.0,0.0,0.0,0.0,0.0,0.0,0.0,0.0,0.0,0.0,0.0,2.4177,0.0,0.0,0.0,0.0,0.0,0.0,0.0,0.0,1.9849,1.8824,1.8143,1.7167,1.6604,0.0,1.6513,1.7483,0.0,0.0,0.0,0.0,0.0,0.0,0.0,0.0,1.9454,2.06,2.1096,2.1749,2.2526,2.2983,2.2629,2.1381,2.0262,1.928,1.8423,1.8631,1.8919,0.0,0.0,0.0,0.0,0.0,0.0,0.0,0.0,0.0,0.0,0.0,0.0,0.0,0.0,0.0,0.0,0.0,0.0,0.0,0.0,0.0,0.0,0.0,1.839,0.0,0.0,0.0,0.0,0.0,0.0,0.0,0.0,0.0,1.4213,1.4036,1.3971,1.4283,1.4878,1.5266,1.521,0.0,0.0,0.0,0.0,0.0,0.0,0.0,2.4709,2.4704,2.4729,2.4891,2.5441,2.6256,2.5582,2.1688,0.0,0.0,1.7367,1.4506,1.1838,1.0238,0.8294,0.6883,0.6808,0.5237,0.3913,0.0,0.0,0.0,0.0,0.0,0.0,0.0,0.0,2.443,2.397,0.0,2.322,0.0,0.0,0.0,0.0,0.0,0.0,0.0,0.0,1.9521,1.8826,1.859,1.818,1.7947,1.7778,1.7549,1.7625,1.7896,1.7428,0.0,0.0,0.0,0.0,0.0,0.0,1.9369,2.1267,2.1259,2.1923,2.3476,2.3779,2.3373,2.2209,2.0219,1.9168,1.9124,1.8406,1.836,1.921,1.9335,0.0,0.0,0.0,0.0,0.0,0.0,0.0,0.0,0.0,0.0,0.0,0.0,0.0,0.0,0.0,0.0,0.0,0.0,0.0,0.0,1.7108,0.0,0.0,0.0,0.0,0.0,0.0,0.0,0.0,0.0,0.0,1.342,1.3139,1.3215,1.4215,0.0,0.0,0.0,0.0,1.4846,1.5751,1.7836,1.9694,2.0793,2.3494,2.5477,2.5471,0.0,0.0,2.5599,2.6289,2.5482,2.1476,1.784,1.4046,0.967,0.8586,0.7101,0.3614,0.3075,0.301,0.335,0.3602,0.3638,2.5707,0.0,0.0,0.0,0.0,2.5639,2.5512,2.5216,2.4596,2.4482,2.4706,2.4094,0.0,0.0,0.0,0.0,0.0,0.0,2.0209,1.9621,1.8439,1.7629,1.7148,1.6196,1.5631,1.5467,1.5717,1.6051,1.6512,1.6878,1.7572,1.8564,0.0,0.0,0.0,0.0,2.0196,2.1025,2.1806,2.2359,2.2718,2.3021,2.2878,2.2346,2.0709,1.9899,2.0031,1.9239,1.8679,1.8404,1.9546,0.0,0.0,0.0,0.0,0.0,0.0,0.0,0.0,0.0,0.0,0.0,0.0,0.0,0.0,0.0,0.0,0.0,0.0,0.0,1.5775,1.5521,1.5155,0.0,0.0,0.0,0.0,0.0,0.0,0.0,0.0,0.0,1.3162,1.3142,1.3314,0.0,0.0,1.4754,1.5108,1.4731,1.4439,1.4433,0.0,0.0,0.0,2.2704,2.5293,2.5348,2.5412,2.5456,2.5595,2.5811,2.3811,1.7301,1.5316,1.2405,0.5266,0.3904,0.3758,0.2715,0.2462,0.2406,0.2517,0.291,0.3355,2.5699,2.5671,2.5667,2.5643,2.56,2.5632,2.5442,2.506,2.4481,2.4274,2.4309,2.3713,2.3861,2.4485,2.3742,0.0,0.0,0.0,1.8639,1.8106,1.7533,1.707,1.6718,1.6205,1.5892,1.5919,1.6279,1.6732,1.716,1.7473,1.8248,1.9295,0.0,0.0,1.9252,2.0043,2.0763,2.1389,2.2537,2.306,2.2923,2.2974,2.2978,2.2842,2.1698,2.0879,2.0379,1.992,1.9297,1.8533,1.9474,1.9963,0.0,0.0,0.0,0.0,0.0,0.0,0.0,0.0,0.0,0.0,0.0,2.0398,2.0035,0.0,0.0,0.0,1.6153,1.4498,1.2994,1.3218,0.0,0.0,0.0,0.0,0.0,0.0,0.0,1.2759,1.2667,1.2774,1.3113,1.3334,1.3515,1.3773,1.4326,1.4789,1.5062,0.0,1.4687,1.4211,1.7143,1.928,1.899,2.2247,2.4962,2.5234,2.5348,2.5444,2.5581,2.5619,2.2855,1.6261,1.4269,1.182,0.3428,0.2298,0.2464,0.213,0.2128,0.2238,0.2406,0.2963,0.3466,2.5718,2.56,2.5586,2.561,2.56,2.5615,2.5138,2.4384,2.4249,2.3694,2.2899,2.2733,2.3007,2.3466,2.1982,0.0,0.0,1.8423,1.7208,1.6663,1.6921,1.7089,1.7216,1.7679,1.8039,1.8193,1.8589,1.8927,1.9192,1.8942,1.9296,2.0215,1.9296,1.9152,1.9783,2.0337,2.1106,2.2192,2.3313,2.3879,2.3843,2.3547,2.3494,2.3686,2.2973,2.1953,2.0681,2.0539,2.0137,1.9356,1.937,1.9723,2.0355,0.0,0.0,0.0,0.0,0.0,0.0,0.0,0.0,0.0,0.0,0.0,0.0,0.0,0.0,0.0,1.372,0.0,0.9695,1.0743,0.0,0.0,0.0,1.2129,1.0879,1.1444,1.213,1.2628,0.0,0.0,0.0,0.0,1.3931,1.401,1.4499,1.496,1.5119,1.5334,1.5365,1.4991,1.7543,1.9404,1.9484,2.2218,2.4592,2.5046,2.5283,2.5391,2.554,2.5619,2.2593,1.5458,1.4406,1.2152,0.4278,0.2963,0.2738,0.1847,0.1959,0.2406,0.285,0.3463,0.391,2.6193,2.5523,2.5505,2.5543,2.5615,2.5615,2.5438,2.5147,2.5,2.4773,2.443,2.4321,2.4174,2.3949,2.2338,2.0939,1.9727,1.8576,1.7577,1.6863,1.7353,1.8066,1.8821,1.897,1.9287,1.9823,2.0153,2.034,2.0457,2.0543,2.0671,2.0894,2.0796,2.0717,2.0639,2.1064,2.1814,2.3016,2.3753,2.4403,2.4957,2.4486,2.4316,2.4505,2.3209,2.2705,2.3092,2.1996,2.1016,2.0258,2.0818,2.0694,1.9636,2.016,0.0,0.0,0.0,0.0,0.0,0.0,0.0,0.0,0.0,1.8793,1.8501,0.0,1.5759,0.0,1.3173,1.1786,1.0842,1.0759,0.0,0.0,1.0445,1.116,1.1148,1.1787,1.2366,1.2813,1.29,1.33,1.4135,1.4628,1.5099,1.5724,1.5202,1.4915,1.5334,1.5501,1.5876,1.6654,1.8286,1.9813,2.0643,2.2665,2.4425,2.4785,2.4953,2.5148,2.5321,2.5451,2.311,1.6218,1.5005,1.2224,0.4908,0.3953,0.4168,0.3613,0.3123,0.2907,0.335,0.3904,0.4463,2.6057,2.559,2.5554,2.5574,2.5599,2.5537,2.5452,2.533,2.5236,2.5133,2.5012,2.4841,2.4628,2.4298,2.2522,2.1262,2.0404,1.9102,1.8108,1.749,1.806,1.8617,1.9141,1.9519,2.0047,2.0766,2.107,2.1318,2.1573,2.1622,2.1609,2.1535,2.1628,2.1615,2.146,2.1672,2.2358,2.3471,2.4214,2.487,2.5407,2.4817,2.4594,2.4783,2.4004,2.3507,2.3419,2.2623,2.1669,2.0536,2.0912,2.0776,1.9903,2.026,2.0497,0.0,0.0,0.0,0.0,0.0,0.0,0.0,0.0,0.0,0.0,0.0,1.4669,0.0,1.2908,1.2058,1.1446,1.099,1.0507,1.0018,1.0433,1.0893,1.1273,1.1974,1.2685,1.3224,1.353,1.4076,1.5046,1.5598,1.6094,1.6741,1.6503,1.6195,1.6173,1.6223,1.6612,1.7639,1.8848,2.0206,2.1573,2.2941,2.3988,2.4275,2.4516,2.4699,2.4858,2.4927,2.2919,1.7184,1.5784,1.3639,0.7141,0.5766,0.5923,0.5605,0.5183,0.4761,0.4498,0.4842,0.5285,2.5791,2.5687,2.5628,2.5586,2.5568,2.5464,2.5385,2.5332,2.5253,2.5164,2.5089,2.4818,2.4736,2.4617,2.2871,2.1972,2.1681,2.0111,1.9065,1.8484,1.8957,1.9199,1.9207,1.9858,2.0586,2.1381,2.1715,2.2091,2.2493,2.2385,2.2275,2.2181,2.2096,2.2084,2.2153,2.2237,2.2815,2.3838,2.4682,2.5207,2.5355,2.4798,2.4538,2.4628,2.4695,2.4176,2.3059,2.2959,2.2257,2.0811,2.07,2.0632,2.0478,2.0495,2.0484,0.0,2.0555,0.0,0.0,0.0,0.0,0.0,0.0,0.0,0.0,1.4087,1.4005,1.3458,1.2945,1.2379,1.1807,1.1363,1.0967,1.0538,1.0857,1.1232,1.1506,1.2281,1.3126,1.3882,1.4456,1.5117,1.6041,1.6564,1.7053,1.7616,1.803,1.8053,1.7601,1.7452,1.7712,1.8488,1.9465,2.0797,2.2152,2.2982,2.3468,2.3749,2.4061,2.419,2.423,2.4204,2.2612,1.825,1.6572,1.4412,0.9377,0.813,0.7872,0.768,0.7555,0.7132,0.6164,0.6055,0.6372,2.6308,2.5618,2.5598,2.5535,2.5434,2.5473,2.5485,2.5464,2.535,2.5178,2.5014,2.4904,2.4909,2.4885,2.4319,2.3407,2.2271,2.2076,2.1388,2.0305,2.0365,2.067,2.1193,2.1164,2.1532,2.2224,2.2537,2.2807,2.3035,2.2977,2.2825,2.2605,2.247,2.2443,2.2508,0.0,0.0,0.0,2.4994,2.4996,2.4616,2.4537,2.426,2.3765,2.3762,0.0,2.4525,2.3995,2.3247,2.234,2.2327,0.0,0.0,0.0,0.0,0.0,0.0,0.0,0.0,0.0,0.0,0.0,1.4821,1.3708,1.3671,1.3478,1.3413,1.3542,1.34,1.3104,1.2634,1.2483,1.2292,1.1877,1.2069,1.2396,1.2696,1.3491,1.4231,1.4708,1.5376,1.6204,1.7191,1.7745,1.8345,1.9132,1.9404,1.9603,1.9774,1.9382,1.9482,2.0296,2.1044,2.1664,2.2094,2.2952,2.3441,2.3298,2.378,2.4024,2.3605,2.3462,2.2114,1.8204,1.7389,1.5919,1.1334,1.0462,1.0325,0.9688,0.9518,0.9086,0.7819,0.7558,0.7635,2.6086,0.0,2.5613,2.5821,0.0,2.6194,2.6406,2.6724,2.5784,2.5529,2.5736,2.5742,2.5969,2.6307,2.5742,2.4969,2.4067,2.3568,2.2764,2.1692,2.152,2.1529,2.1672,2.1628,2.1965,2.2643,2.2807,2.3091,2.3458,2.3383,2.3193,2.2944,2.3171,2.3281,2.329,2.3536,2.3844,2.432,2.4881,2.4925,2.443,2.4497,2.4375,2.4045,0.0,0.0,0.0,0.0,0.0,0.0,0.0,0.0,0.0,0.0,0.0,2.0964,2.1055,2.146,2.209,1.8609,1.642,1.6641,1.4395,1.3143,1.3495,1.3593,1.4007,1.4704,1.454,1.4271,1.3939,1.3663,1.3351,1.2977,1.333,1.3736,1.4035,1.4814,1.5631,1.6171,1.6751,1.7522,1.8402,1.8888,1.9434,2.0143,2.0437,2.0676,2.1082,2.0581,2.043,2.1421,2.209,2.2565,2.2783,2.3276,2.3718,2.3613,2.3938,2.4022,2.3646,2.349,2.2442,1.9778,1.8807,1.7255,1.4414,1.3272,1.2773,1.2165,1.1825,1.1447,1.0463,0.9609,0.8992,2.5937,2.5898,2.5855,2.6367,2.718,2.7148,2.7396,2.7744,0.0,0.0,0.0,2.672,2.7137,2.7593,2.6728,2.6136,2.5702,2.4579,2.3584,2.2772,2.2538,2.2175,2.1718,2.1866,2.2275,2.2848,2.2972,2.3294,2.3786,2.3616,2.3435,2.3312,2.3866,2.4235,2.4339,2.4491,2.4349,2.4006,2.4668,2.4743,2.4186,2.4456,2.4505,2.4407,2.3864,2.3599,2.3599,2.2178,2.1469,2.1568,2.0893,2.0489,2.0518,2.0634,2.1024,2.1705,2.1859,2.2282,2.3052,1.8797,1.6418,1.7182,1.5268,1.3961,1.3729,1.4346,1.5092,1.5864,1.5835,1.5611,1.5177,1.4922,1.4591,1.4249,1.4774,1.523,1.5477,1.623,1.7051,1.7599,1.8151,1.8829,1.9492,1.9863,2.0346,2.0809,2.1126,2.1554,2.1951,2.1595,2.1449,2.23,2.2848,2.3191,2.3446,2.3783,2.3967,2.3851,2.4049,2.4132,2.3819,2.3487,2.2695,2.1078,1.9936,1.8435,1.683,1.5658,1.4945,1.441,1.4017,1.3708,1.3227,1.2041,1.0995,2.6786,2.6737,2.6732,2.7195,2.7956,2.7928,2.7512,2.687,2.7405,2.7264,2.664,2.7323,2.7599,2.7496,2.6572,2.5982,2.5647,2.4635,2.3903,0.0,2.3069,2.2781,2.2535,2.2546,2.2746,2.3069,2.3351,2.3588,2.3774,2.371,2.3576,2.3508,2.4109,2.4827,2.5453,2.5009,2.4828,2.4893,2.4531,2.3989,2.3338,2.4089,2.4225,2.3716,2.406,2.4307,2.4404,2.3475,2.3008,2.3064,2.2386,2.2029,2.2073,2.2133,2.2276,2.2451,2.2585,2.3024,2.3848,2.1515,1.9474,1.8188,1.7626,1.6706,1.4982,1.5906,1.6353,1.5816,1.6764,1.7037,1.5986,1.6289,1.6559,1.6557,1.6688,1.684,1.7111,1.7668,1.822,1.8639,1.9216,1.9736,2.0181,2.051,2.0858,2.1251,2.165,2.2123,2.2725,2.2966,2.3029,2.3182,2.3406,2.3459,2.3503,2.3871,2.4039,2.3442,2.3929,2.4035,2.3303,2.2717,2.2024,2.1024,2.0052,1.8986,1.7824,1.7148,1.6436,1.5894,1.5512,1.5275,1.5028,1.446,1.3821,2.7638,2.7542,2.7515,2.7949,2.8714,2.9159,2.881,2.8005,2.8287,2.7951,2.7266,2.7987,2.8474,2.8563,2.7245,2.6517,2.6228,2.4724,2.3819,2.3414,2.3105,2.3144,2.3441,2.3519,2.395,2.4688,2.4928,2.5121,2.523,2.5147,2.501,2.4873,2.545,2.6198,2.6997,2.6405,2.5967,2.5728,2.4734,2.4063,2.382,2.431,2.4327,2.3834,2.3798,2.3929,2.4247,2.3083,2.2706,2.3265,2.2559,2.2178,2.2284,2.2357,2.2614,2.3164,2.3694,2.4379,2.5221,2.3492,2.1343,1.8962,1.9133,1.9057,1.8186,1.8061,1.7852,1.7476,1.7739,1.7681,1.7262,1.7389,1.7545,1.7974,1.8175,1.8387,1.8512,1.9033,1.9522,1.9737,2.0117,2.0523,2.0835,2.1118,2.1444,2.1807,2.2217,2.2709,2.3216,2.3494,2.3691,2.3836,2.4082,2.4233,2.4163,2.4483,2.4585,2.4222,2.4385,2.4295,2.3686,2.3067,2.2344,2.1539,2.0651,1.9755,1.8784,1.8319,1.7781,1.71,1.6757,1.6484,1.6078,1.5897,1.5384,2.8476,2.8359,2.8285,2.87,2.9474,3.0084,2.9827,2.905,2.9036,2.8574,2.7951,2.8491,2.8893,2.8967,2.7642,2.6823,2.6242,2.4636,2.3628,2.3289,2.321,2.3528,2.4147,2.4401,2.512,2.6026,2.6236,2.6362,2.6469,2.6385,2.634,2.6327,2.6693,2.7353,2.8228,2.7512,2.697,2.6531,2.5353,2.4615,2.4394,2.4515,2.4444,2.4137,2.3693,2.3603,2.3928,2.2685,2.2408,2.3321,2.2868,2.2669,2.2944,2.3055,2.3422,2.416,2.4822,2.5628,2.6434,2.515,2.3219,2.0993,2.1196,2.1499,2.1486,2.0563,1.9725,1.9364,1.9086,1.8986,1.8883,1.8745,1.8748,1.9264,1.956,1.9785,1.9814,2.0263,2.0573,2.0623,2.0921,2.118,2.1375,2.1664,2.1983,2.231,2.2723,2.3127,2.3451,2.3816,2.4164,2.4166,2.4441,2.4599,2.4815,2.4728,2.4648,2.4726,2.4632,2.4498,2.4246,2.3789,2.3004,2.2099,2.1188,2.0244,1.9411,1.9056,1.8689,1.8019,1.774,1.7491,1.7008,1.6894,1.647,2.9266,2.9187,2.9043,2.9425,3.0054,3.0118,2.9622,2.892,2.9482,2.9271,2.8452,2.851,2.8082,2.736,2.6952,2.6329,2.5452,2.4194,2.3508,2.3389,2.3821,2.4147,2.4461,2.5248,2.5853,2.6245,2.6538,2.6677,2.6637,2.6516,2.6677,2.7103,2.7191,2.7597,2.826,2.7691,2.7339,2.7455,2.6706,2.564,2.4414,2.4426,2.4442,2.4283,2.4155,2.4118,2.4059,2.3253,2.3179,2.4026,2.4137,2.4521,2.5242,2.5406,2.5512,2.5654,2.5772,2.6347,2.7411,2.6501,2.5719,2.5698,2.4713,2.4259,2.4215,2.3409,2.2143,2.1037,2.1468,2.1313,2.0598,2.0684,2.088,2.0948,2.0965,2.1051,2.0975,2.1091,2.1131,2.1118,2.1375,2.1664,2.1855,2.2077,2.2356,2.2799,2.3083,2.3348,2.3655,2.4232,2.45,2.3963,2.394,2.4082,2.412,2.3794,2.3837,2.404,2.4014,2.4104,2.4164,2.3464,2.2517,2.2118,2.1109,1.9978,1.9604,1.9303,1.904,1.8881,1.8685,1.8447,1.8228,1.8081,1.7483,3.0014,2.9839,2.9783,2.9915,3.0123,3.0034,2.9782,2.9428,2.916,2.883,2.8461,2.8408,2.8165,2.7774,2.7485,2.6835,2.5902,2.4802,2.4503,2.4735,2.4573,2.5038,2.6128,2.6525,2.7109,2.7835,2.7962,2.8022,2.7958,2.783,2.7846,2.7994,2.7929,2.8134,2.8456,2.8167,2.787,2.7606,2.7323,2.6722,2.5798,2.5393,2.5097,2.4761,2.3971,2.3637,2.3828,2.3189,2.3412,2.4717,2.4926,2.541,2.6244,2.6358,2.6414,2.6451,2.6786,2.7337,2.82,2.7464,2.6923,2.6764,2.6114,2.5628,2.5465,2.4828,2.3997,2.3091,2.2271,2.1585,2.1302,2.136,2.1532,2.1805,2.1759,2.165,2.1554,2.1568,2.1554,2.1554,2.1807,2.1983,2.2137,2.2388,2.2799,2.3201,2.3451,2.3641,2.3943,2.4081,2.4131,2.4104,2.3806,2.3569,2.3584,2.3348,2.329,2.3334,2.3289,2.3389,2.3354,2.2696,2.1833,2.1776,2.0716,1.9888,1.9656,1.9537,1.9364,1.9473,1.9694,1.9601,1.9512,1.9399,1.903,3.0381,3.0196,3.0144,3.0099,3.0057,2.994,2.9891,2.9782,2.913,2.8798,2.8726,2.8633,2.8483,2.824,2.788,2.7159,2.6191,2.5315,2.5247,2.5736,2.5365,2.596,2.7296,2.7647,2.8166,2.886,2.8938,2.8975,2.897,2.881,2.8687,2.8543,2.8484,2.8484,2.8536,2.8518,2.8323,2.7966,2.7999,2.7801,2.7329,2.6611,2.5994,2.5479,2.4456,2.4026,2.4356,2.3894,2.42,2.543,2.581,2.6279,2.6893,2.699,2.7011,2.7027,2.7353,2.7858,2.8428,2.8057,2.7576,2.7134,2.6737,2.6371,2.6033,2.5519,2.5059,2.4449,2.2959,2.2056,2.1975,2.1914,2.1993,2.2253,2.2217,2.2077,2.1949,2.1935,2.1935,2.1949,2.2091,2.2423,2.269,2.3057,2.3584,2.4104,2.4252,2.4236,2.4472,2.4402,2.4416,2.4347,2.3908,2.3712,2.3482,2.3313,2.3152,2.3152,2.3108,2.296,2.2748,2.218,2.1529,2.1603,2.0578,2.0016,1.9822,1.9743,2.0011,2.0232,2.0447,2.0529,2.0282,2.0332,2.0286,3.0216,3.0177,3.006,2.9953,2.9924,2.9893,2.9823,2.9716,2.9642,2.9588,2.9495,2.9418,2.8987,2.8218,2.7757,2.6868,2.5925,2.5544,2.5509,2.5869,2.6331,2.6871,2.7447,2.8166,2.8688,2.8975,2.8975,2.8952,2.8905,2.8834,2.8761,2.8712,2.8612,2.8605,2.8587,2.8587,2.8644,2.8658,2.864,2.88,2.8854,2.7981,2.7077,2.6435,2.6023,2.5721,2.5745,2.5859,2.5961,2.6074,2.6843,2.7409,2.7551,2.757,2.7547,2.7476,2.7393,2.7587,2.8112,2.8031,2.7784,2.7413,2.7098,2.6773,2.6158,2.5598,2.5067,2.4477,2.3846,2.3274,2.2921,2.2684,2.2606,2.2644,2.2598,2.2473,2.2273,2.2376,2.2324,2.2273,2.2465,2.2958,2.3699,2.4158,2.47,2.5257,2.5666,2.5652,2.5284,2.5729,2.5389,2.454,2.4357,2.4653,2.4168,2.3546,2.3478,2.3423,2.3169,2.3125,2.3067,2.2852,2.2159,2.1534,2.0746,2.0217,1.9999,2.017,2.0648,2.0927,2.1129,2.1116,2.1054,2.0764,2.0696,3.0022,2.9953,2.9891,2.9876,2.9823,2.9789,2.9754,2.9699,2.9645,2.9608,2.9531,2.9453,2.9163,2.8713,2.8517,2.7809,2.6795,2.6576,2.6835,2.7333,2.741,2.7749,2.8419,2.873,2.8923,2.8975,2.8975,2.8952,2.8905,2.8881,2.881,2.8718,2.8687,2.8662,2.8644,2.8662,2.8718,2.8834,2.8694,2.8718,2.8868,2.8193,2.7725,2.7565,2.6057,2.5446,2.5843,2.547,2.5739,2.6759,2.7175,2.761,2.8105,2.8178,2.8153,2.811,2.7975,2.7942,2.8101,2.7943,2.7725,2.7478,2.7072,2.6759,2.6383,2.5668,2.502,2.4686,2.4591,2.4312,2.3925,2.3376,2.3093,2.3363,2.3342,2.3234,2.3108,2.306,2.3108,2.3165,2.3612,2.4218,2.4427,2.4925,2.55,2.5879,2.6077,2.5909,2.5538,2.5509,2.5197,2.4666,2.4438,2.4449,2.4614,2.3661,2.3162,2.3148,2.3029,2.2871,2.2804,2.2498,2.189,2.1731,2.1034,2.0832,2.0803,2.1044,2.1455,2.1621,2.1811,2.1842,2.1861,2.1606,2.1547,2.9888,2.9789,2.9789,2.979,2.9754,2.9717,2.9699,2.97,2.9626,2.955,2.9492,2.9433,2.9289,2.9134,2.9048,2.8612,2.7852,2.7698,2.7929,2.835,2.8197,2.8416,2.8902,2.8975,2.8975,2.8975,2.8975,2.897,2.8929,2.8905,2.8858,2.8767,2.8743,2.8737,2.8737,2.8737,2.8761,2.8718,2.8569,2.8569,2.8583,2.8156,2.8027,2.7969,2.6637,2.6015,2.6472,2.6061,2.629,2.7263,2.752,2.7805,2.8308,2.838,2.838,2.8327,2.8219,2.8109,2.8014,2.7882,2.7659,2.7386,2.7009,2.664,2.6279,2.5556,2.4981,2.4667,2.4844,2.4851,2.4567,2.4117,2.389,2.397,2.3891,2.375,2.3593,2.3531,2.3564,2.3735,2.4341,2.4904,2.5362,2.5893,2.638,2.6765,2.6764,2.6404,2.5942,2.5465,2.5032,2.4861,2.4586,2.4584,2.4579,2.4065,2.3619,2.3592,2.3231,2.2988,2.269,2.2257,2.2001,2.1852,2.1767,2.1662,2.1794,2.1993,2.216,2.2359,2.2449,2.2526,2.2493,2.2518,2.2299,2.9808,2.9771,2.9789,2.9773,2.9699,2.9699,2.9682,2.9683,2.9607,2.955,2.9472,2.9433,2.939,2.9326,2.9134,2.892,2.8748,2.8517,2.841,2.843,2.8572,2.8766,2.8994,2.8975,2.8975,2.8975,2.8975,2.8975,2.8975,2.8929,2.8905,2.8863,2.8834,2.881,2.8804,2.8761,2.8687,2.8543,2.8466,2.8378,2.8272,2.802,2.7926,2.8065,2.7748,2.7674,2.7862,2.7837,2.7766,2.7918,2.8027,2.8081,2.8109,2.8109,2.8099,2.8053,2.8014,2.7957,2.7917,2.7853,2.7577,2.7181,2.6943,2.6434,2.5742,2.5329,2.491,2.4528,2.4752,2.4986,2.4927,2.5072,2.505,2.43,2.4326,2.4232,2.3956,2.3793,2.3858,2.4197,2.4713,2.5348,2.6376,2.6974,2.7361,2.7725,2.7603,2.7095,2.6528,2.6021,2.5604,2.5134,2.473,2.4657,2.461,2.4509,2.4368,2.416,2.3751,2.3375,2.3059,2.2729,2.2431,2.2267,2.2179,2.2071,2.2259,2.2477,2.2589,2.2777,2.293,2.2957,2.2836,2.2726,2.2726,2.9738,2.9738,2.9738,2.9701,2.9682,2.9626,2.9626,2.9607,2.9511,2.9453,2.9433,2.9411,2.9388,2.9368,2.9262,2.9108,2.8905,2.8905,2.8815,2.8669,2.881,2.8929,2.8975,2.8975,2.8975,2.8975,2.8975,2.8975,2.8994,2.8975,2.8952,2.8905,2.8881,2.8881,2.8858,2.8694,2.8569,2.8525,2.8156,2.7971,2.801,2.7771,2.7701,2.78,2.7789,2.7777,2.7789,2.7917,2.8003,2.7996,2.8014,2.8025,2.8025,2.8042,2.8014,2.7986,2.7957,2.7917,2.7871,2.7607,2.73,2.6935,2.6471,2.6002,2.5524,2.5107,2.4945,2.5006,2.5481,2.5758,2.6056,2.6153,2.6024,2.5731,2.5604,2.5433,2.5248,2.5066,2.5003,2.5174,2.5813,2.6516,2.7005,2.7498,2.7911,2.8046,2.773,2.7144,2.664,2.6068,2.5495,2.4975,2.4805,2.4633,2.4518,2.4376,2.4247,2.4144,2.3909,2.3668,2.3373,2.3148,2.2847,2.268,2.2531,2.256,2.2749,2.2862,2.2949,2.3,2.304,2.3017,2.2909,2.2848,2.2848,2.9719,2.9718,2.9683,2.9664,2.9626,2.9588,2.9569,2.955,2.9471,2.9373,2.9392,2.9388,2.9388,2.9368,2.9344,2.9197,2.9021,2.9067,2.9017,2.8876,2.8947,2.8994,2.8975,2.8975,2.8975,2.8975,2.8975,2.8975,2.8975,2.8975,2.8994,2.8929,2.8929,2.8929,2.8905,2.8669,2.8543,2.836,2.7971,2.7701,2.7672,2.7569,2.7539,2.763,2.7659,2.7659,2.7642,2.7759,2.7895,2.7986,2.7996,2.7864,2.7642,2.7565,2.7595,2.7565,2.7491,2.7448,2.7677,2.73,2.6937,2.6639,2.6129,2.5811,2.5673,2.5264,2.529,2.5772,2.6168,2.6516,2.672,2.6954,2.6882,2.6862,2.6446,2.6322,2.6234,2.6035,2.5956,2.6144,2.6652,2.7144,2.7605,2.785,2.8186,2.8088,2.758,2.7041,2.6496,2.5906,2.5328,2.4848,2.4607,2.4447,2.4313,2.4229,2.4099,2.4041,2.3943,2.3748,2.3566,2.339,2.3137,2.2993,2.2887,2.2849,2.2987,2.3025,2.3088,2.3125,2.3125,2.3078,2.3017,2.3017,2.2957,2.9736,2.975,2.9645,2.955,2.9512,2.9492,2.9492,2.9472,2.9433,2.9392,2.9392,2.9388,2.9388,2.9368,2.9323,2.924,2.9178,2.9108,2.9062,2.8994,2.8975,2.8975,2.8975,2.8975,2.8975,2.8975,2.8975,2.903,2.9219,2.92,2.9049,2.9159,2.9177,2.9012,2.8947,2.8718,2.8404,2.8147,2.7829,2.7569,2.7421,2.7483,2.7496,2.7526,2.7574,2.7574,2.7544,2.7592,2.7729,2.7986,2.7915,2.7619,2.708,2.6905,2.697,2.6985,2.669,2.6987,2.7241,2.7026,2.6621,2.6402,2.5997,2.5859,2.5847,2.567,2.5746,2.6282,2.6688,2.694,2.6992,2.724,2.7455,2.7434,2.6817,2.652,2.6515,2.6553,2.6561,2.6925,2.7206,2.7422,2.7972,2.814,2.8073,2.789,2.7393,2.6759,2.6336,2.5742,2.5147,2.4751,2.4421,2.4274,2.4184,2.4067,2.3995,2.3865,2.3819,2.3688,2.3628,2.345,2.333,2.3198,2.3138,2.3138,2.3125,2.3125,2.3125,2.3125,2.3125,2.3125,2.3065,2.3078,2.3078,2.97,2.957,2.955,2.9512,2.9492,2.9453,2.9433,2.9412,2.9411,2.939,2.9388,2.9388,2.9388,2.9368,2.9283,2.9218,2.9156,2.9085,2.8998,2.8998,2.8975,2.8975,2.8975,2.8975,2.8975,2.8975,2.8994,2.9305,2.9843,2.9824,2.9861,2.9898,2.9879,2.9562,2.9038,2.8562,2.821,2.8065,2.763,2.7421,2.7407,2.7421,2.7434,2.7496,2.75,2.7517,2.7496,2.7647,2.7677,2.7647,2.7829,2.7589,2.6952,2.6855,2.6839,2.6841,2.6807,2.6971,2.7227,2.6835,2.6421,2.6212,2.5728,2.5242,2.5194,2.5524,2.5886,2.6317,2.6733,2.7182,2.7429,2.7555,2.7458,2.7122,2.688,2.6878,2.7151,2.6837,2.6737,2.7598,2.7483,2.762,2.7923,2.8039,2.789,2.774,2.7137,2.6375,2.6068,2.5453,2.4851,2.4536,2.4261,2.4099,2.3995,2.3949,2.3832,2.3688,2.3569,2.3509,2.339,2.333,2.3198,2.3138,2.3138,2.3125,2.3125,2.3125,2.3125,2.3125,2.3125,2.3125,2.3125,2.3078,2.3065,2.9806,2.9786,2.9645,2.9589,2.9532,2.9474,2.9453,2.9411,2.9388,2.9388,2.9388,2.9388,2.9386,2.9344,2.9262,2.9178,2.9134,2.9062,2.8998,2.8975,2.8975,2.8975,2.8975,2.8975,2.8975,2.8975,2.8975,2.9457,3.0063,3.021,3.0375,3.065,3.0705,3.0235,2.9393,2.8873,2.835,2.7968,2.7526,2.733,2.7345,2.739,2.7373,2.7421,2.7456,2.7438,2.7452,2.763,2.7642,2.7526,2.7659,2.7439,2.6657,2.6573,2.664,2.6736,2.6412,2.6434,2.7013,2.6487,2.5959,2.5905,2.5573,2.5629,2.5811,2.6201,2.6696,2.7196,2.7359,2.7531,2.767,2.774,2.756,2.7342,2.6967,2.7019,2.7545,2.7015,2.7186,2.7762,2.7847,2.7616,2.8008,2.789,2.779,2.7625,2.7306,2.6602,2.6054,2.5287,2.4624,2.4363,2.4157,2.3995,2.3878,2.3772,2.3641,2.3509,2.339,2.333,2.3271,2.321,2.3138,2.3125,2.3125,2.3125,2.3125,2.3125,2.3125,2.3125,2.3125,2.3125,2.3125,2.3125,2.3125,2.9969,3.0142,2.9834,2.9662,2.9608,2.9589,2.9531,2.9409,2.9388,2.9388,2.9388,2.9388,2.9365,2.9296,2.924,2.9175,2.9108,2.904,2.8998,2.8975,2.8975,2.8975,2.8975,2.8975,2.8975,2.8975,2.8975,2.9586,3.0246,3.0411,3.0797,3.1304,3.1488,3.083,2.9834,2.9349,2.8681,2.7836,2.7434,2.733,2.7313,2.7376,2.7359,2.7345,2.7359,2.7376,2.7359,2.7496,2.7557,2.733,2.7569,2.7192,2.6368,2.6175,2.636,2.6477,2.5962,2.5924,2.6867,2.6346,2.5664,2.5918,2.6198,2.6403,2.671,2.711,2.7581,2.7762,2.8076,2.7894,2.781,2.779,2.769,2.7408,2.6893,2.6811,2.7056,2.7108,2.7327,2.8039,2.8039,2.794,2.7855,2.779,2.7725,2.756,2.7137,2.6428,2.5837,2.5245,2.465,2.4216,2.4054,2.3949,2.3772,2.3595,2.3463,2.333,2.3258,2.3198,2.3198,2.3138,2.3138,2.3125,2.3125,2.3125,2.3125,2.3125,2.3125,2.3125,2.3125,2.3125,2.3125,2.3125,2.3125,3.0007,2.9965,2.9886,2.9769,2.9626,2.9589,2.9531,2.9407,2.9388,2.9388,2.9388,2.9388,2.9363,2.9296,2.9237,2.9156,2.9108,2.904,2.8975,2.8975,2.8975,2.8975,2.8975,2.8975,2.8975,2.8975,2.8975,2.9769,3.076,3.1109,3.1549,3.2203,3.2019,3.1238,3.0008,2.9394,2.8546,2.7812,2.7452,2.7313,2.7299,2.733,2.733,2.7299,2.733,2.733,2.733,2.7345,2.7345,2.7359,2.7448,2.721,2.6624,2.6245,2.6429,2.6672,2.6086,2.6173,2.7377,2.6986,2.6541,2.6906,2.6887,2.6862,2.6741,2.7361,2.7551,2.7529,2.7686,2.7875,2.784,2.779,2.7575,2.7152,2.6774,2.6602,2.6759,2.6707,2.7086,2.7705,2.7905,2.784,2.779,2.7675,2.761,2.7458,2.6916,2.6215,2.5687,2.5147,2.4664,2.4171,2.3936,2.3832,2.3641,2.3522,2.333,2.3258,2.3138,2.3125,2.3125,2.3125,2.3125,2.3125,2.3125,2.3125,2.3125,2.3125,2.3125,2.3125,2.3125,2.3125,2.3125,2.3125,2.3125,3.0128,3.0133,3.0041,2.9899,2.975,2.9751,2.9608,2.9429,2.9388,2.9388,2.9388,2.9388,2.9344,2.9259,2.9218,2.9134,2.9044,2.9017,2.8975,2.8975,2.8975,2.8975,2.8975,2.8975,2.8975,2.8994,2.8975,2.9898,3.0999,3.1494,3.1971,3.3046,3.2793,3.2004,3.0754,2.9894,2.9062,2.8181,2.7666,2.7434,2.7313,2.7299,2.7299,2.7299,2.7299,2.7299,2.7299,2.7105,2.7154,2.7201,2.7085,2.6922,2.6725,2.6365,2.6561,2.7038,2.637,2.6543,2.7494,2.7405,2.696,2.7381,2.745,2.7403,2.7391,2.7736,2.7843,2.7631,2.7743,2.7855,2.779,2.7855,2.759,2.7122,2.6745,2.6669,2.6788,2.663,2.6788,2.7604,2.7806,2.774,2.7675,2.7625,2.756,2.7458,2.6982,2.6336,2.5797,2.5258,2.4607,2.4171,2.3878,2.37,2.3509,2.339,2.3271,2.3198,2.3138,2.3125,2.3125,2.3125,2.3125,2.3125,2.3125,2.3125,2.3125,2.3125,2.3125,2.3125,2.3125,2.3125,2.3125,2.3125,2.3125,3.0241,3.0398,3.0228,3.0052,2.9931,2.9902,2.9698,2.947,2.9388,2.9388,2.9388,2.9388,2.9326,2.924,2.9197,2.9149,2.904,2.8975,2.8975,2.8975,2.8975,2.8975,2.8975,2.8975,2.9145,2.9122,2.9049,2.9879,3.0815,3.1421,3.2063,3.3276,3.3325,3.2463,3.1673,3.0716,2.9558,2.8412,2.7795,2.7496,2.7345,2.7299,2.7299,2.7299,2.7299,2.7235,2.7154,2.6925,2.6842,2.7055,2.6454,2.635,2.6401,2.6312,2.6627,2.7551,2.6659,2.6857,2.7866,2.7727,2.7336,2.7399,2.7771,2.795,2.7907,2.7982,2.7987,2.7898,2.779,2.7855,2.784,2.7775,2.771,2.7378,2.6953,2.6864,2.6997,2.6736,2.693,2.7524,2.769,2.7625,2.7625,2.761,2.756,2.7408,2.693,2.6404,2.5811,2.5203,2.4492,2.4054,2.376,2.3509,2.3378,2.3318,2.3138,2.3138,2.3125,2.3125,2.3125,2.3125,2.3125,2.3125,2.3125,2.3125,2.3125,2.3125,2.3125,2.3125,2.3125,2.3125,2.3125,2.3125,2.3125,3.0367,3.0398,3.0367,3.0241,3.0066,2.9931,2.9786,2.957,2.9507,2.9407,2.9407,2.9407,2.9381,2.924,2.9211,2.9126,2.9017,2.8975,2.8975,2.8975,2.8975,2.8975,2.8975,2.8994,2.9329,2.9677,2.9415,2.9604,3.0577,3.1091,3.2082,3.2729,3.2925,3.2465,3.1631,3.0437,2.9428,2.8572,2.784,2.7425,2.733,2.7299,2.7299,2.7299,2.7267,2.7105,2.6875,2.6725,2.6573,2.6332,2.6158,2.6139,2.6154,2.5864,2.6584,2.7524,2.6878,2.6792,2.8336,2.8215,2.8261,2.8527,2.8389,2.8082,2.7947,2.7894,2.7855,2.77,2.775,2.7886,2.7955,2.769,2.7595,2.7393,2.7159,2.6794,2.7122,2.707,2.6966,2.7542,2.7599,2.756,2.756,2.756,2.7458,2.724,2.6721,2.6136,2.5536,2.4878,2.4157,2.3819,2.3641,2.339,2.3185,2.3198,2.3138,2.3138,2.3125,2.3125,2.3125,2.3125,2.3125,2.3125,2.3125,2.3125,2.3125,2.3125,2.3125,2.3125,2.3125,2.3125,2.3125,2.3125,2.3125,3.0398,3.0398,3.0398,3.0286,3.0109,3.0037,2.9851,2.9664,2.9943,2.9824,2.9632,2.9797,2.9678,2.9333,2.9215,2.9108,2.904,2.8975,2.8975,2.8975,2.8975,2.8975,2.8975,2.8975,2.9177,2.9402,2.9237,2.9916,3.1329,3.1843,3.2394,3.2976,3.301,3.2581,3.1951,3.0645,2.9572,2.8831,2.8031,2.7421,2.733,2.7299,2.7299,2.7267,2.7105,2.6892,2.6691,2.621,2.6123,2.6016,2.5758,2.5896,2.5972,2.5907,2.6078,2.7483,2.6841,2.6901,2.8463,2.8311,2.7969,2.845,2.8171,2.7806,2.7619,2.7655,2.776,2.8096,2.8186,2.8354,2.8201,2.7718,2.7291,2.7159,2.705,2.7093,2.7093,2.7039,2.7263,2.7543,2.7571,2.7569,2.756,2.7509,2.7458,2.7034,2.6496,2.5906,2.5258,2.4593,2.3923,2.3628,2.345,2.333,2.3125,2.3125,2.3125,2.3125,2.3125,2.3125,2.3125,2.3125,2.3125,2.3125,2.3125,2.3125,2.3125,2.3125,2.3125,2.3125,2.3125,2.3125,2.3125,2.3125,2.3125,3.0398,3.0398,3.0414,3.0336,3.0182,3.0131,2.9969,2.9864,3.0265,3.0071,2.9609,2.9978,2.986,2.9348,2.9175,2.9089,2.8975,2.8975,2.8975,2.8975,2.8975,2.8975,2.8975,2.9012,2.9159,2.9489,2.9434,3.0222,3.1421,3.2045,3.2742,3.3077,3.2937,3.2795,3.2392,3.0753,2.9984,2.9207,2.8265,2.75,2.7345,2.7345,2.7282,2.7186,2.6859,2.6674,2.6332,2.6155,2.5982,2.5886,2.5706,2.564,2.6134,2.5528,2.5775,2.6885,2.6465,2.7178,2.7917,2.8,2.7642,2.8146,2.765,2.7261,2.7071,2.7314,2.7814,2.8722,2.8961,2.9,2.8778,2.8174,2.7795,2.763,2.7769,2.7686,2.7417,2.7302,2.735,2.751,2.7558,2.7599,2.759,2.7524,2.7458,2.693,2.6336,2.5728,2.5077,2.4408,2.3793,2.3437,2.3258,2.3198,2.3125,2.3125,2.3125,2.3125,2.3125,2.3125,2.3125,2.3125,2.315,2.3188,2.3125,2.3125,2.3125,2.3125,2.3125,2.3125,2.3125,2.3125,2.3125,2.3125,2.3125,3.0398,3.039,3.0462,3.0449,3.0359,3.0232,3.0139,3.0022,2.9938,2.9676,2.9555,2.9518,2.9484,2.9215,2.9085,2.9017,2.8975,2.8975,2.8975,2.8975,2.8975,2.8975,2.8975,2.8975,2.9324,2.9617,2.9837,3.0131,3.0962,3.1494,3.2027,3.2647,3.2907,3.2827,3.2666,3.0914,2.9626,2.9299,2.8157,2.7448,2.7466,2.7652,2.7431,2.706,2.6775,2.6567,2.6196,2.6215,2.6357,2.607,2.5989,2.5971,2.5939,2.5425,2.5639,2.6177,2.6381,2.6513,2.7596,2.7503,2.74,2.7665,2.7321,2.6736,2.6924,2.7161,2.7832,2.8864,2.9169,2.9407,2.9577,2.9304,2.9304,2.9044,2.8679,2.8312,2.7955,2.758,2.7616,2.7374,2.7363,2.7505,2.7575,2.7524,2.7408,2.6811,2.6229,2.5618,2.4894,2.4221,2.3721,2.3305,2.3198,2.3125,2.3125,2.3125,2.3238,2.3213,2.3263,2.3288,2.3489,2.3565,2.3276,2.3288,2.3251,2.3175,2.3125,2.3125,2.3125,2.3125,2.3125,2.3125,2.3125,2.3125,2.3125,3.0398,3.039,3.0452,3.0472,3.0451,3.0393,3.029,3.0209,3.0373,3.0114,2.9755,2.9913,2.9702,2.9226,2.904,2.8998,2.8975,2.8975,2.8975,2.8975,2.8975,2.8975,2.8975,2.8994,2.9287,2.9434,2.9654,3.0131,3.0717,3.1591,3.2324,3.2572,3.2915,3.3075,3.2911,3.1326,3.0676,3.0208,2.9493,2.8771,2.8622,2.857,2.8421,2.7908,2.7444,2.7,2.6789,2.6711,2.6818,2.6625,2.6609,2.6625,2.6509,2.6204,2.6146,2.6311,2.6132,2.6749,2.7972,2.7459,2.7384,2.7646,2.7549,2.7551,2.7828,2.833,2.9015,3.028,3.0416,3.0342,2.9918,2.952,2.9237,2.9101,2.9256,2.8828,2.834,2.8038,2.7795,2.7446,2.72,2.7358,2.7575,2.7575,2.7473,2.7115,2.6525,2.5934,2.5021,2.3989,2.3543,2.3185,2.3125,2.3125,2.3125,2.3138,2.3427,2.3489,2.3678,2.3791,2.4117,2.413,2.3853,2.3678,2.369,2.354,2.3263,2.3125,2.3125,2.3125,2.3125,2.3125,2.3125,2.3125,2.3005,3.0398,3.039,3.0452,3.0482,3.0482,3.0482,3.0414,3.0337,3.0594,3.0338,2.9922,2.9978,2.9695,2.9237,2.904,2.8975,2.8975,2.8975,2.8975,2.8975,2.8975,2.8975,2.8975,2.8994,2.8994,2.9012,2.9452,2.9965,3.0949,3.1968,3.2645,3.2881,3.3146,3.3255,3.2925,3.187,3.0935,3.0417,3.0044,2.9652,2.9419,2.9334,2.9074,2.8602,2.804,2.7558,2.7442,2.7327,2.7205,2.7336,2.7058,2.6969,2.7042,2.6557,2.6304,2.6352,2.6121,2.6819,2.7667,2.7682,2.7307,2.7432,2.7839,2.7969,2.8913,2.9863,3.0498,3.0899,3.0728,3.0432,3.0172,2.9835,2.9578,2.9421,2.9347,2.8961,2.8655,2.8469,2.8049,2.7636,2.7413,2.7351,2.7458,2.756,2.7524,2.7335,2.687,2.6207,2.5184,2.3999,2.3882,2.369,2.3477,2.3464,2.3401,2.3439,2.364,2.3728,2.3916,2.4092,2.4305,2.4519,2.4456,2.4318,2.418,2.3866,2.3577,2.3339,2.3125,2.3125,2.3125,2.3125,2.3125,2.3103,2.2836,3.0398,3.039,3.0472,3.0492,3.0482,3.0482,3.0472,3.0414,3.0142,2.999,2.9758,2.9537,2.9296,2.9058,2.9017,2.8975,2.8975,2.8975,2.8975,2.8975,2.8994,2.9053,2.9104,2.9159,2.914,2.9305,2.9782,3.0204,3.0693,3.2078,3.292,3.3588,3.3449,3.3343,3.2973,3.2175,3.1007,3.0523,3.0241,3.0121,2.9799,2.9523,2.9204,2.8555,2.798,2.7483,2.7189,2.7373,2.7595,2.7821,2.7411,2.7211,2.7288,2.6703,2.6438,2.6393,2.6238,2.6916,2.7632,2.7607,2.7155,2.7157,2.7555,2.8311,2.9339,2.8726,2.9298,3.0744,3.0615,3.0567,3.0543,3.0616,3.0133,2.9619,2.9383,2.9323,2.9126,2.9042,2.8624,2.792,2.7609,2.7476,2.7473,2.7524,2.7473,2.7335,2.646,2.5799,2.5229,2.4289,2.4532,2.4431,2.4067,2.3929,2.3841,2.3791,2.3514,2.369,2.3979,2.4117,2.4268,2.4506,2.5121,2.4859,2.4683,2.4243,2.3929,2.3852,2.3638,2.3263,2.3153,2.3379,2.3306,2.3269,2.2738,3.0398,3.039,3.0417,3.0462,3.0482,3.0482,3.0482,3.0433,3.0061,2.9735,2.9527,2.9317,2.9167,2.9062,2.9017,2.8975,2.8975,2.8975,2.8998,2.8975,2.8994,2.9292,2.9512,2.9787,2.9989,3.0375,3.0815,3.1268,3.1854,3.2415,3.2983,3.3515,3.3634,3.3652,3.3226,3.2585,3.1684,3.1185,3.1133,3.1219,3.0922,3.0526,3.0116,2.9672,2.8562,2.8178,2.7968,2.7828,2.7888,2.7856,2.7601,2.7585,2.757,2.7007,2.6788,2.671,2.6499,2.6852,2.7483,2.7597,2.7854,2.8491,2.8717,2.9,2.9725,2.974,3.0046,3.0586,3.0499,3.0323,2.9911,3.03,3.035,2.9757,2.943,2.9505,2.9418,2.9329,2.9108,2.8419,2.7899,2.7554,2.7524,2.7539,2.7437,2.7196,2.6229,2.5414,2.4819,2.4583,2.4746,2.4695,2.4305,2.4067,2.3966,2.364,2.3215,2.3653,2.4054,2.4368,2.4669,2.5485,2.5954,2.5552,2.5227,2.4962,2.4697,2.452,2.4192,2.3791,2.3792,2.3977,2.3801,2.3386,2.2695,3.0367,3.0374,3.0367,3.0428,3.0492,3.0482,3.0492,3.0423,3.008,2.9681,2.9302,2.9255,2.9193,2.913,2.9089,2.9067,2.9067,2.9085,2.9085,2.9062,2.9136,2.9517,2.9976,3.0283,3.0467,3.1256,3.1733,3.2082,3.243,3.2816,3.3293,3.3678,3.3807,3.3753,3.3465,3.3001,3.2369,3.202,3.1965,3.193,3.1528,3.106,3.0459,2.995,2.8916,2.8404,2.8102,2.7856,2.7788,2.7754,2.767,2.76,2.753,2.7423,2.7203,2.703,2.6949,2.6883,2.7343,2.7923,2.8626,2.9214,2.943,2.9628,3.0071,3.0263,3.0016,3.0192,3.0102,2.9825,2.9199,2.9594,2.9633,2.889,2.9492,2.9675,2.9416,2.926,2.9163,2.8912,2.8323,2.756,2.7306,2.7152,2.6654,2.6558,2.6162,2.5274,2.461,2.4495,2.4732,2.4644,2.433,2.4142,2.3966,2.359,2.3326,2.3828,2.428,2.487,2.536,2.6088,2.6471,2.608,2.5807,2.5646,2.5405,2.5152,2.4785,2.433,2.4404,2.4462,2.3847,2.3417,2.2616,3.0311,3.0305,3.0311,3.0378,3.0472,3.0436,3.0439,3.0442,3.008,2.9681,2.9326,2.9283,2.924,2.9218,2.9175,2.9175,2.9175,2.9175,2.9175,2.9175,2.913,2.9586,3.0115,3.0496,3.1005,3.1476,3.2137,3.2651,3.2742,3.3275,3.3678,3.368,3.368,3.3522,3.3262,3.2651,3.2144,3.1856,3.1819,3.1579,3.1201,3.073,3.0117,2.9464,2.867,2.8174,2.7929,2.7595,2.7509,2.758,2.7203,2.7167,2.7269,2.6893,2.6876,2.7288,2.7085,2.7272,2.7852,2.8355,2.8816,2.9223,2.9227,2.9437,2.9462,2.9303,2.9066,2.9229,2.8926,2.8904,2.8732,2.8826,2.872,2.8627,2.9247,2.9608,2.939,2.9131,2.9049,2.901,2.8263,2.7509,2.7152,2.6721,2.6,2.5744,2.5707,2.5203,2.4451,2.4495,2.477,2.4644,2.4368,2.4142,2.3916,2.3514,2.3439,2.3941,2.4506,2.5109,2.5586,2.6076,2.6345,2.637,2.6342,2.6159,2.5965,2.5785,2.5466,2.5187,2.4853,2.4628,2.402,2.3329,2.2594,3.0305,3.0292,3.0311,3.0321,3.0356,3.0402,3.0414,3.0371,3.0056,2.9699,2.9409,2.9323,2.9302,2.928,2.924,2.9218,2.92,2.9218,2.9218,2.92,2.9193,3.0051,3.0673,3.1164,3.1703,3.2724,3.333,3.333,3.344,3.3688,3.377,3.3753,3.3361,3.3075,3.289,3.2486,3.2161,3.1856,3.1763,3.1579,3.1067,3.0444,2.9789,2.9148,2.8255,2.776,2.7575,2.7233,2.7167,2.7255,2.6817,2.6817,2.687,2.6525,2.6763,2.714,2.7074,2.7301,2.765,2.7966,2.8075,2.8422,2.8686,2.8734,2.8525,2.8423,2.822,2.8127,2.8098,2.8207,2.8408,2.9302,2.9275,2.8524,2.8791,2.9288,2.9319,2.9013,2.8803,2.8877,2.842,2.7573,2.7041,2.6522,2.5827,2.5333,2.532,2.4852,2.4115,2.4457,2.4795,2.4644,2.4418,2.4155,2.3879,2.3627,2.3565,2.3929,2.4632,2.5372,2.5799,2.6113,2.6357,2.6514,2.6561,2.6582,2.6349,2.6101,2.6186,2.603,2.5228,2.4667,2.4129,2.3383,2.2534,3.0266,3.0272,3.0254,3.0279,3.0311,3.0386,3.0343,3.0188,2.9918,2.9645,2.9429,2.9344,2.9344,2.9304,2.9283,2.9262,2.9262,2.9283,2.9262,2.9299,2.9573,3.0415,3.1218,3.1869,3.2537,3.354,3.378,3.3725,3.3505,3.3606,3.3541,3.3302,3.2939,3.2716,3.2537,3.2283,3.202,3.1783,3.1634,3.1201,3.0633,2.9989,2.9268,2.856,2.7845,2.735,2.7196,2.6989,2.6765,2.6712,2.6659,2.6606,2.6486,2.6623,2.6857,2.7159,2.7314,2.7468,2.7603,2.7055,2.7157,2.7357,2.774,2.7896,2.7754,2.7726,2.7453,2.7346,2.7488,2.7649,2.8019,2.9082,2.9128,2.8302,2.874,2.9276,2.9578,2.9339,2.9057,2.9044,2.8598,2.7741,2.6871,2.6339,2.574,2.5298,2.493,2.4384,2.3978,2.4318,2.4695,2.4582,2.4494,2.433,2.413,2.3929,2.3904,2.3991,2.4695,2.5523,2.5787,2.605,2.6388,2.6582,2.6477,2.6404,2.6464,2.638,2.6034,2.5542,2.4779,2.4352,2.4108,2.3396,2.2456,3.0213,3.0218,3.0213,3.0234,3.0292,3.0343,3.0188,2.9918,2.9697,2.9551,2.9427,2.9427,2.9368,2.9388,2.9407,2.9368,2.946,2.9479,2.9553,2.9736,3.0231,3.1016,3.1703,3.2336,3.2978,3.3503,3.3734,3.355,3.335,3.3291,3.3124,3.2844,3.2553,3.2386,3.2214,3.2055,3.1856,3.1709,3.1411,3.0851,3.0201,2.9508,2.8779,2.8084,2.7578,2.7299,2.7091,2.6905,2.6727,2.6592,2.6525,2.6433,2.6512,2.6761,2.7315,2.7767,2.7849,2.7645,2.7477,2.6763,2.6287,2.6647,2.7394,2.7411,2.7356,2.7228,2.7089,2.6775,2.6693,2.69,2.7266,2.7861,2.8432,2.8604,2.9043,2.9508,2.998,2.9882,2.9595,2.9247,2.8649,2.7886,2.6897,2.6217,2.6004,2.5355,2.4965,2.4517,2.4167,2.4167,2.4469,2.4494,2.4456,2.4519,2.4368,2.4305,2.4456,2.4607,2.4908,2.5561,2.5774,2.5875,2.6005,2.6072,2.6146,2.612,2.5887,2.5704,2.5463,2.4945,2.4371,2.3936,2.3694,2.3117,2.2424,3.0218,3.0204,3.0213,3.0221,3.0221,3.0194,3.0114,3.0003,2.9731,2.957,2.9532,2.945,2.9388,2.9388,2.9388,2.9388,2.9611,2.9927,3.0206,3.0516,3.0954,3.1742,3.2281,3.2705,3.3206,3.3496,3.3597,3.3408,3.3243,3.3093,3.2749,3.2453,3.23,3.2161,3.2001,3.1873,3.1852,3.1703,3.1359,3.0717,2.993,2.9275,2.8581,2.8096,2.7601,2.7402,2.7249,2.7039,2.6832,2.6476,2.6394,2.6286,2.6221,2.672,2.7357,2.8299,2.8005,2.7561,2.746,2.6481,2.5897,2.6071,2.6614,2.6626,2.6657,2.6802,2.6749,2.6371,2.6222,2.6524,2.6703,2.7211,2.7865,2.8387,2.894,2.9462,2.9929,2.9969,2.9658,2.9421,2.8877,2.7984,2.699,2.6682,2.6437,2.57,2.5115,2.4785,2.4531,2.4569,2.4443,2.4494,2.4644,2.477,2.487,2.4845,2.5046,2.5259,2.5435,2.5511,2.5573,2.5636,2.5598,2.5602,2.5711,2.5432,2.5087,2.4945,2.4897,2.4552,2.4009,2.357,2.3213,2.2703,2.2338,3.0204,3.0204,3.0213,3.018,3.0104,2.995,2.9896,2.9943,2.9715,2.9608,2.957,2.9451,2.9388,2.9388,2.9388,2.9407,2.95,3.0169,3.0541,3.0761,3.1695,3.226,3.2724,3.3073,3.3464,3.3597,3.3484,3.3262,3.3032,3.2619,3.2231,3.2109,3.2091,3.2001,3.196,3.2093,3.2152,3.1866,3.1453,3.0853,3.0148,2.9407,2.8863,2.8344,2.7816,2.7595,2.7365,2.7166,2.6919,2.6554,2.646,2.6281,2.6369,2.6877,2.7762,2.8512,2.8162,2.7736,2.7432,2.6468,2.6064,2.6004,2.6071,2.6125,2.621,2.6353,2.6105,2.5841,2.5988,2.6144,2.6397,2.6693,2.7357,2.8012,2.8655,2.9316,2.9602,2.9797,2.971,2.9596,2.8963,2.8167,2.7551,2.7267,2.6875,2.6229,2.5922,2.5892,2.5529,2.5234,2.4946,2.4732,2.4921,2.5109,2.5184,2.5209,2.5259,2.536,2.5498,2.5536,2.5485,2.5598,2.5841,2.5564,2.5252,2.4996,2.4725,2.4501,2.4413,2.3971,2.357,2.3139,2.2767,2.2478,2.2111,3.0204,3.0204,3.0171,3.0094,2.9927,2.9678,2.9678,2.9869,2.9698,2.9608,2.9589,2.9451,2.9388,2.9388,2.9388,2.9518,2.9872,3.0504,3.1058,3.0872,3.2321,3.305,3.3197,3.3534,3.3676,3.3652,3.3408,3.297,3.2619,3.2231,3.1948,3.1763,3.1837,3.18,3.174,3.24,3.25,3.2201,3.1991,3.1585,3.0688,2.994,2.923,2.8591,2.806,2.766,2.7328,2.7129,2.705,2.6811,2.6622,2.6398,2.696,2.7379,2.8344,2.8661,2.8382,2.8047,2.7628,2.686,2.6442,2.6217,2.6089,2.6035,2.6106,2.6203,2.6036,2.559,2.5608,2.5476,2.5615,2.6329,2.7047,2.7838,2.856,2.9477,3.0221,3.0278,3.006,2.9928,2.9633,2.8757,2.8015,2.7693,2.744,2.6778,2.6473,2.6608,2.6409,2.5996,2.5678,2.5197,2.5372,2.5602,2.5466,2.5479,2.5322,2.541,2.5686,2.585,2.6013,2.6105,2.6093,2.5766,2.5426,2.476,2.4413,2.4305,2.401,2.3374,2.299,2.2628,2.2338,2.2294,2.2187,3.0204,3.019,3.0034,2.9905,2.9765,2.9696,2.9731,2.9869,2.968,2.9589,2.9589,2.9471,2.9388,2.9388,2.9407,2.963,3.0355,3.0946,3.1778,3.2307,3.3253,3.3518,3.3589,3.3721,3.3788,3.3606,3.3243,3.2651,3.2127,3.1839,3.1634,3.1351,3.1466,3.1559,3.1402,3.2256,3.2672,3.233,3.2772,3.2266,3.129,3.0273,2.9454,2.9006,2.8627,2.7825,2.7454,2.7062,2.6874,2.6652,2.6666,2.72,2.811,2.8278,2.8755,2.926,2.8842,2.8437,2.8033,2.7446,2.7043,2.683,2.6618,2.6309,2.6199,2.6214,2.6019,2.5515,2.5081,2.4939,2.5065,2.5895,2.6764,2.7618,2.8481,2.9586,3.0756,3.0672,3.0473,3.0308,3.0119,2.9473,2.8615,2.8112,2.7876,2.7446,2.7046,2.6892,2.6892,2.6604,2.6488,2.6131,2.6105,2.6118,2.5911,2.5823,2.5728,2.6068,2.6433,2.6559,2.6553,2.6433,2.635,2.603,2.5632,2.4944,2.4434,2.4343,2.3902,2.3229,2.3091,2.2972,2.2832,2.2735,2.2563,3.0157,3.0083,2.9805,2.9663,2.9608,2.9514,2.9551,2.9645,2.957,2.9512,2.9512,2.945,2.9388,2.9388,2.9407,2.9872,3.0649,3.1411,3.2094,3.2895,3.358,3.3825,3.3895,3.3834,3.368,3.3465,3.2858,3.2266,3.1617,3.1466,3.1257,3.0965,3.114,3.1173,3.1036,3.2006,3.2614,3.2269,3.3301,3.3097,3.199,3.1021,3.0048,2.9608,2.8804,2.7921,2.7292,2.6913,2.6791,2.6779,2.6974,2.7325,2.804,2.8376,2.8881,2.9204,2.9058,2.8675,2.8442,2.8005,2.7527,2.7256,2.6922,2.653,2.6181,2.6188,2.5592,2.5087,2.4784,2.4558,2.466,2.5329,2.6367,2.7339,2.7973,2.8812,3.0211,3.1059,3.0945,3.0866,3.0476,2.9725,2.9011,2.8393,2.8063,2.763,2.7268,2.7185,2.713,2.7161,2.7043,2.6943,2.6842,2.6332,2.5845,2.5946,2.6168,2.6584,2.7195,2.7296,2.7379,2.6854,2.6514,2.6245,2.577,2.4969,2.4609,2.4441,2.4258,2.371,2.3633,2.3612,2.3427,2.3199,2.3091,3.0128,2.9924,2.957,2.9433,2.9433,2.9307,2.9304,2.9388,2.9388,2.9388,2.9409,2.9388,2.9388,2.9388,2.9425,3.0057,3.0724,3.1485,3.2242,3.3093,3.3709,3.3873,3.3868,3.3815,3.3504,3.3057,3.2451,3.1752,3.1044,3.1004,3.0845,3.0518,3.0493,3.0526,3.0948,3.1725,3.2484,3.2622,3.3178,3.3588,3.2815,3.1864,3.0742,2.9715,2.8645,2.7603,2.696,2.6496,2.654,2.7017,2.7337,2.7928,2.8324,2.8759,2.9083,2.9378,2.9204,2.8876,2.8563,2.8172,2.7722,2.7363,2.6992,2.6741,2.6412,2.5961,2.5381,2.4997,2.4707,2.4503,2.459,2.5135,2.6267,2.7262,2.7866,2.8607,3.0119,3.1268,3.1225,3.1223,3.0773,3.0069,2.9512,2.8876,2.8277,2.7815,2.7509,2.7468,2.7504,2.7541,2.7551,2.7449,2.7341,2.6716,2.6219,2.6425,2.6905,2.75,2.8079,2.8181,2.8147,2.7733,2.7209,2.653,2.6005,2.5292,2.4796,2.4532,2.4282,2.4176,2.4046,2.4026,2.4026,2.3885,2.3787,3.0056,2.975,2.9551,2.9431,2.9365,2.9302,2.9326,2.9386,2.9388,2.9388,2.9388,2.9388,2.9388,2.9388,2.9388,3.0057,3.1299,3.1782,3.2696,3.3709,3.3894,3.3884,3.3815,3.3662,3.3178,3.2595,3.1987,3.1329,3.0592,3.0485,3.0368,2.9962,3.0359,3.0553,3.09,3.1727,3.2457,3.2579,3.2974,3.3439,3.2535,3.157,3.0778,2.9445,2.776,2.7041,2.6347,2.5586,2.5883,2.6578,2.7628,2.8418,2.8933,2.9172,2.9468,2.9538,2.935,2.9149,2.8836,2.8464,2.8106,2.7982,2.7578,2.7072,2.6688,2.6255,2.5801,2.5537,2.5166,2.4807,2.493,2.5795,2.6804,2.7798,2.8559,2.9777,3.1148,3.124,3.1199,3.1254,3.1189,3.063,3.0113,2.9487,2.8759,2.8277,2.7758,2.773,2.8004,2.7988,2.8087,2.8023,2.8003,2.8003,2.7893,2.7607,2.8028,2.852,2.886,2.8839,2.8821,2.8659,2.8065,2.6942,2.6368,2.5846,2.5329,2.4779,2.4667,2.456,2.4429,2.4432,2.4486,2.4476,2.4366]},{"header":{"parameterUnit":"m.s-1","parameterCategory":1,"la1":31.0,"la2":29.5877,"lo1":-88.7671,"lo2":-86.6584,"dy":0.0162,"dx":0.0185,"nx":115,"ny":88,"refTime":"2023-10-29T12:00:00:Z","depth":0,"parameterNumber":3,"parameterNumberName":"V-component_of_WINDS"},"data":[0.0,0.0,0.0,0.0,0.0,0.0,0.0,0.0,0.0,0.0,0.0,0.0,0.0,0.0,0.0,0.0,0.0,0.0,0.0,0.0,0.0,0.0,0.0,0.0,0.0,0.0,0.0,0.0,0.0,0.0,0.0,0.0,0.0,0.0,0.0,0.0,0.0,0.0,0.0,0.0,0.0,0.0,0.0,0.0,0.0,0.0,0.0,0.0,0.0,0.0,0.0,0.0,0.0,0.0,0.0,0.0,0.0,0.0,0.0,0.0,0.0,0.0,0.0,0.0,0.0,0.0,0.0,0.0,0.0,0.0,0.0,0.0,0.0,0.0,0.0,0.0,0.0,0.0,0.0,0.0,0.0,0.0,0.0,0.0,0.0,0.0,0.0,0.0,0.0,0.0,0.0,0.0,0.0,0.0,0.0,0.0,0.0,0.0,0.0,0.0,0.0,0.0,0.0,0.0,0.0,0.0,0.0,0.0,0.0,0.0,0.0,0.0,0.0,0.0,0.0,0.0,0.0,0.0,0.0,0.0,0.0,0.0,0.0,0.0,0.0,0.0,0.0,0.0,0.0,0.0,0.0,0.0,0.0,0.0,0.0,0.0,0.0,0.0,0.0,0.0,0.0,0.0,0.0,0.0,0.0,0.0,0.0,0.0,0.0,0.0,0.0,0.0,0.0,0.0,0.0,0.0,0.0,0.0,0.0,0.0,0.0,0.0,0.0,0.0,0.0,0.0,0.0,0.0,0.0,0.0,0.0,0.0,0.0,0.0,0.0,0.0,0.0,0.0,0.0,0.0,0.0,0.0,0.0,0.0,0.0,0.0,0.0,0.0,0.0,0.0,0.0,0.0,0.0,0.0,0.0,0.0,0.0,0.0,0.0,0.0,0.0,0.0,0.0,0.0,0.0,0.0,0.0,0.0,0.0,0.0,0.0,0.0,0.0,0.0,0.0,0.0,0.0,0.0,0.0,0.0,0.0,0.0,0.0,0.0,0.0,0.0,0.0,0.0,0.0,0.0,0.0,0.0,0.0,0.0,0.0,0.0,0.0,0.0,0.0,0.0,0.0,0.0,0.0,0.0,0.0,0.0,0.0,0.0,0.0,0.0,0.0,0.0,0.0,0.0,0.0,0.0,0.0,0.0,0.0,0.0,0.0,0.0,0.0,0.0,0.0,0.0,0.0,0.0,0.0,0.0,0.0,0.0,0.0,0.0,0.0,0.0,0.0,0.0,0.0,0.0,0.0,0.0,0.0,0.0,0.0,0.0,0.0,0.0,0.0,0.0,0.0,0.0,0.0,0.0,0.0,0.0,0.0,0.0,0.0,0.0,0.0,0.0,0.0,0.0,0.0,0.0,0.0,0.0,0.0,0.0,0.0,0.0,0.0,0.0,0.0,0.0,0.0,0.0,0.0,0.0,0.0,0.0,0.0,0.0,0.0,0.0,0.0,0.0,0.0,0.0,0.0,0.0,0.0,0.0,0.0,0.0,0.0,0.0,0.0,0.0,0.0,0.0,0.0,0.0,0.0,0.0,0.0,0.0,0.0,0.0,0.0,0.0,0.0,0.0,0.0,0.0,0.0,0.0,0.0,0.0,0.0,0.0,0.0,0.0,0.0,0.0,0.0,0.0,0.0,0.0,0.0,0.0,0.0,0.0,0.0,0.0,0.0,0.0,0.0,0.0,0.0,0.0,0.0,0.0,0.0,0.0,0.0,0.0,0.0,0.0,0.0,0.0,0.0,0.0,0.0,0.0,0.0,0.0,0.0,0.0,0.0,0.0,0.0,0.0,0.0,0.0,0.0,0.0,0.0,0.0,0.0,0.0,0.0,0.0,0.0,0.0,0.0,0.0,0.0,0.0,0.0,0.0,0.0,0.0,0.0,0.0,0.0,0.0,0.0,0.0,0.0,0.0,0.0,0.0,0.0,0.0,0.0,0.0,0.0,0.0,0.0,0.0,0.0,0.0,0.0,0.0,0.0,0.0,0.0,0.0,0.0,0.0,0.0,0.0,0.0,0.0,0.0,0.0,0.0,0.0,0.0,0.0,0.0,0.0,0.0,0.0,0.0,0.0,0.0,0.0,0.0,0.0,0.0,0.0,0.0,0.0,0.0,0.0,0.0,0.0,0.0,0.0,0.0,0.0,0.0,0.0,0.0,0.0,0.0,0.0,0.0,0.0,0.0,0.0,0.0,0.0,0.0,0.0,0.0,0.0,0.0,0.0,0.0,0.0,0.0,0.0,0.0,0.0,0.0,0.0,0.0,0.0,0.0,0.0,0.0,0.0,0.0,0.0,0.0,0.0,0.0,0.0,0.0,0.0,0.0,0.0,0.0,0.0,0.0,0.0,0.0,0.0,0.0,0.0,0.0,0.0,0.0,0.0,0.0,0.0,0.0,0.0,0.0,0.0,0.0,0.0,0.0,0.0,0.0,0.0,0.0,0.0,0.0,0.0,0.0,0.0,0.0,0.0,0.0,0.0,0.0,0.0,0.0,0.0,0.0,0.0,0.0,0.0,0.0,0.0,0.0,0.0,0.0,0.0,0.0,0.0,0.0,0.0,0.0,0.0,0.0,0.0,0.0,0.0,0.0,0.0,0.0,0.0,0.0,0.0,0.0,0.0,0.0,0.0,0.0,0.0,0.0,0.0,0.0,0.0,0.0,0.0,0.0,0.0,0.0,0.0,0.0,0.0,0.0,0.0,0.0,0.0,0.0,0.0,0.0,0.0,0.0,0.0,0.0,0.0,0.0,0.0,0.0,0.0,0.0,0.0,0.0,0.0,0.0,0.0,0.0,0.0,0.0,0.0,0.0,0.0,0.0,0.0,0.0,0.0,0.0,0.0,0.0,0.0,0.0,0.0,0.0,0.0,0.0,0.0,0.0,0.0,0.0,0.0,0.0,0.0,0.0,0.0,0.0,0.0,0.0,0.0,0.0,0.0,0.0,0.0,0.0,0.0,0.0,0.0,0.0,0.0,0.0,0.0,0.0,0.0,0.0,0.0,0.0,0.0,0.0,0.0,0.0,0.0,0.0,0.0,0.0,0.0,0.0,0.0,0.0,0.0,0.0,0.0,0.0,0.0,0.0,0.0,0.0,0.0,0.0,0.0,0.0,0.0,0.0,0.0,0.0,0.0,0.0,0.0,0.0,0.0,0.0,0.0,0.0,0.0,0.0,0.0,0.0,0.0,0.0,0.0,0.0,0.0,0.0,0.0,0.0,0.0,0.0,0.0,0.0,0.0,0.0,0.0,0.0,0.0,0.0,0.0,0.0,0.0,0.0,0.0,0.0,0.0,0.0,0.0,0.0,0.0,0.0,0.0,0.0,0.0,0.0,0.0,0.0,0.0,0.0,0.0,0.0,0.0,0.0,0.0,0.0,0.0,0.0,0.0,0.0,0.0,0.0,0.0,0.0,0.0,0.0,0.0,0.0,0.0,0.0,0.0,0.0,0.0,0.0,0.0,0.0,0.0,0.0,0.0,0.0,0.0,0.0,0.0,0.0,0.0,0.0,0.0,0.0,0.0,0.0,0.0,0.0,0.0,0.0,0.0,0.0,0.0,0.0,0.0,0.0,0.0,0.0,0.0,0.0,0.0,0.0,0.0,0.0,0.0,0.0,0.0,0.0,0.0,0.0,0.0,0.0,0.0,0.0,0.0,0.0,0.0,0.0,0.0,0.0,0.0,0.0,0.0,0.0,0.0,0.0,0.0,0.0,0.0,0.0,0.0,0.0,0.0,0.0,0.0,0.0,0.0,0.0,0.0,0.0,0.0,0.0,0.0,0.0,0.0,0.0,0.0,0.0,0.0,0.0,0.0,0.0,0.0,0.0,0.0,0.0,0.0,0.0,0.0,0.0,0.0,0.0,0.0,0.0,0.0,0.0,0.0,0.0,0.0,0.0,0.0,0.0,0.0,0.0,0.0,0.0,0.0,0.0,0.0,0.0,0.0,0.0,0.0,0.0,0.0,0.0,0.0,0.0,0.0,0.0,0.0,0.0,0.0,0.0,0.0,0.0,0.0,0.0,0.0,0.0,0.0,0.0,0.0,0.0,0.0,0.0,0.0,0.0,0.0,0.0,0.0,0.0,0.0,0.0,0.0,0.0,0.0,0.0,0.0,0.0,0.0,0.0,0.0,0.0,0.0,0.0,0.0,0.0,0.0,0.0,0.0,0.0,0.0,0.0,0.0,0.0,0.0,0.0,0.0,0.0,0.0,0.0,0.0,0.0,0.0,0.0,0.0,0.0,0.0,0.0,0.0,0.0,0.0,0.0,0.0,-0.6221,0.0,0.0,0.0,0.0,0.0,0.0,0.0,0.0,0.0,0.0,0.0,0.0,0.0,0.0,0.0,0.0,0.0,0.0,0.0,0.0,0.0,0.0,0.0,0.0,0.0,0.0,0.0,0.0,0.0,0.0,0.0,0.0,0.0,0.0,0.0,0.0,0.0,0.0,0.0,0.0,0.0,0.0,0.0,0.0,0.0,0.0,0.0,0.0,0.0,0.0,0.0,0.0,0.0,0.0,0.0,0.0,0.0,0.0,0.0,0.0,0.0,0.0,0.0,0.0,0.0,0.0,0.0,0.0,0.0,0.0,0.0,0.0,0.0,0.0,0.0,0.0,0.0,0.0,0.0,0.0,0.0,0.0,0.0,0.0,0.0,0.0,0.0,0.0,0.0,0.0,0.0,0.0,0.0,0.0,0.0,0.0,0.0,0.0,0.0,0.0,0.0,0.0,0.0,0.0,0.0,0.0,0.0,0.0,0.0,0.0,-0.6179,-0.6087,-0.5959,-0.5896,-0.5937,0.0,0.0,0.0,0.0,0.0,0.0,0.0,0.0,0.0,0.0,0.0,0.0,0.0,0.0,0.0,0.0,0.0,0.0,0.0,0.0,0.0,0.0,0.0,0.0,0.0,0.0,0.0,0.0,0.0,0.0,0.0,0.0,0.0,0.0,0.0,0.0,0.0,0.0,0.0,0.0,0.0,0.0,0.0,0.0,0.0,0.0,0.0,0.0,0.0,0.0,0.0,0.0,0.0,0.0,0.0,0.0,0.0,0.0,0.0,0.0,0.0,0.0,0.0,0.0,0.0,0.0,0.0,0.0,0.0,0.0,0.0,0.0,0.0,0.0,0.0,0.0,0.0,0.0,0.0,0.0,0.0,0.0,0.0,0.0,0.0,0.0,0.0,0.0,0.0,0.0,0.0,0.0,0.0,0.0,0.0,0.0,0.0,0.0,0.0,0.0,0.0,0.0,0.0,0.0,0.0,0.0,0.0,0.0,0.0,0.0,0.0,0.0,-0.5613,-0.5526,-0.5642,0.0,0.0,0.0,0.0,0.0,0.0,0.0,0.0,0.0,0.0,0.0,0.0,0.0,0.0,0.0,0.0,0.0,0.0,0.0,0.0,0.0,0.0,0.0,0.0,0.0,0.0,0.0,0.0,0.0,0.0,0.0,0.0,0.0,0.0,0.0,0.0,0.0,0.0,0.0,0.0,0.0,0.0,0.0,0.0,0.0,0.0,0.0,0.0,0.0,0.0,0.0,0.0,0.0,0.0,0.0,0.0,0.0,0.0,0.0,0.0,0.0,0.0,0.0,0.0,0.0,0.0,0.0,0.0,0.0,0.0,0.0,0.0,0.0,0.0,0.0,0.0,0.0,0.0,0.0,0.0,0.0,0.0,0.0,0.0,0.0,0.0,0.0,0.0,0.0,0.0,0.0,0.0,0.0,0.0,0.0,0.0,0.0,0.0,0.0,0.0,0.0,0.0,0.0,0.0,0.0,0.0,0.0,0.0,0.0,0.0,-0.5589,-0.527,-0.4951,0.0,-0.5413,0.0,0.0,0.0,0.0,0.0,0.0,0.0,0.0,0.0,0.0,0.0,0.0,0.0,0.0,0.0,0.0,0.0,0.0,0.0,0.0,0.0,0.0,0.0,0.0,0.0,0.0,0.0,0.0,0.0,0.0,0.0,0.0,0.0,0.0,0.0,0.0,0.0,0.0,0.0,0.0,0.0,0.0,0.0,0.0,0.0,0.0,0.0,0.0,0.0,0.0,0.0,0.0,0.0,0.0,0.0,0.0,0.0,0.0,0.0,0.0,0.0,0.0,0.0,0.0,0.0,0.0,0.0,0.0,0.0,0.0,0.0,0.0,0.0,0.0,0.0,0.0,0.0,0.0,0.0,0.0,0.0,0.0,0.0,0.0,0.0,0.0,0.0,0.0,0.0,0.0,0.0,0.0,0.0,0.0,0.0,0.0,0.0,0.0,0.0,0.0,0.0,0.0,0.0,0.0,0.0,0.0,0.0,0.0,0.0,0.0,-0.5412,-0.5076,-0.4811,-0.4878,0.0,0.0,0.0,0.0,0.0,0.0,0.0,0.0,0.0,0.0,0.0,0.0,0.0,0.0,0.0,0.0,0.0,0.0,0.0,0.0,0.0,0.0,0.0,0.0,0.0,0.0,0.0,0.0,0.0,0.0,0.0,0.0,0.0,0.0,0.0,0.0,0.0,0.0,0.0,0.0,0.0,0.0,0.0,0.0,0.0,0.0,0.0,0.0,0.0,0.0,0.0,0.0,0.0,0.0,0.0,0.0,0.0,0.0,0.0,0.0,0.0,0.0,0.0,0.0,0.0,0.0,0.0,0.0,0.0,0.0,0.0,0.0,0.0,0.0,0.0,0.0,0.0,0.0,0.0,0.0,0.0,0.0,0.0,0.0,0.0,0.0,0.0,0.0,0.0,0.0,0.0,0.0,0.0,0.0,0.0,0.0,0.0,0.0,0.0,0.0,0.0,0.0,0.0,0.0,0.0,0.0,0.0,0.0,0.0,0.0,-0.5407,-0.5045,-0.4572,-0.4411,-0.4605,-0.52,0.0,0.0,0.0,0.0,0.0,0.0,0.0,0.0,0.0,0.0,0.0,0.0,0.0,0.0,0.0,0.0,0.0,0.0,0.0,0.0,0.0,0.0,0.0,0.0,0.0,0.0,0.0,0.0,0.0,0.0,0.0,0.0,0.0,0.0,0.0,0.0,0.0,0.0,0.0,0.0,0.0,0.0,0.0,0.0,0.0,0.0,0.0,0.0,0.0,0.0,0.0,0.0,0.0,0.0,0.0,0.0,0.0,0.0,0.0,0.0,0.0,0.0,0.0,0.0,0.0,0.0,0.0,0.0,0.0,0.0,0.0,0.0,0.0,0.0,0.0,0.0,0.0,0.0,0.0,0.0,0.0,0.0,0.0,0.0,0.0,0.0,0.0,0.0,0.0,0.0,0.0,0.0,0.0,0.0,0.0,0.0,0.0,0.0,0.0,0.0,0.0,0.0,0.0,0.0,0.0,0.0,0.0,0.0,-0.5492,-0.4943,-0.4228,-0.3449,-0.3568,-0.4019,0.0,0.0,0.0,0.0,0.0,0.0,0.0,0.0,0.0,0.0,0.0,0.0,0.0,0.0,0.0,0.0,0.0,0.0,0.0,0.0,0.0,0.0,0.0,0.0,0.0,0.0,0.0,0.0,0.0,0.0,0.0,0.0,0.0,0.0,0.0,0.0,0.0,0.0,0.0,0.0,0.0,0.0,0.0,0.0,0.0,0.0,0.0,0.0,0.0,0.0,0.0,0.0,0.0,0.0,0.0,0.0,0.0,0.0,0.0,0.0,0.0,0.0,0.0,0.0,0.0,0.0,0.0,0.0,0.0,0.0,0.0,0.0,0.0,0.0,0.0,0.0,0.0,0.0,0.0,0.0,0.0,0.0,0.0,0.0,0.0,0.0,0.0,0.0,0.0,0.0,0.0,0.0,0.0,0.0,0.0,0.0,0.0,0.0,0.0,0.0,0.0,0.0,0.0,0.0,0.0,0.0,0.0,0.0,0.0,-0.4983,-0.4257,-0.3756,-0.3448,-0.3582,-0.4028,0.0,0.0,0.0,0.0,0.0,0.0,0.0,0.0,0.0,0.0,0.0,0.0,0.0,0.0,0.0,0.0,0.0,0.0,0.0,0.0,0.0,0.0,0.0,0.0,0.0,0.0,0.0,0.0,0.0,0.0,0.0,0.0,0.0,0.0,0.0,0.0,0.0,0.0,0.0,0.0,0.0,0.0,0.0,0.0,0.0,0.0,0.0,0.0,0.0,0.0,0.0,0.0,0.0,0.0,0.0,0.0,0.0,0.0,0.0,0.0,0.0,0.0,0.0,0.0,0.0,0.0,0.0,0.0,0.0,0.0,0.0,0.0,0.0,0.0,0.0,0.0,0.0,0.0,0.0,0.0,0.0,0.0,0.0,0.0,0.0,0.0,0.0,0.0,0.0,0.0,0.0,0.0,0.0,0.0,0.0,0.0,0.0,0.0,0.0,0.0,0.0,0.0,0.0,0.0,0.0,0.0,0.0,0.0,0.0,-0.4332,0.0,-0.3333,0.0,-0.3556,-0.4033,0.0,0.0,0.0,0.0,0.0,0.0,0.0,0.0,0.0,0.0,0.0,0.0,0.0,0.0,0.0,0.0,0.0,0.0,0.0,0.0,0.0,0.0,0.0,0.0,0.0,0.0,0.0,0.0,0.0,0.0,0.0,0.0,0.0,0.0,0.0,0.0,0.0,0.0,0.0,0.0,0.0,0.0,0.0,0.0,0.0,0.0,0.0,0.0,0.0,0.0,0.0,0.0,0.0,0.0,0.0,0.0,0.0,0.0,0.0,0.0,0.0,0.0,0.0,0.0,0.0,0.0,0.0,0.0,0.0,0.0,0.0,0.0,0.0,0.0,0.0,0.0,0.0,0.0,0.0,0.0,0.0,0.0,0.0,0.0,0.0,0.0,0.0,0.0,0.0,0.0,0.0,0.0,0.0,0.0,0.0,0.0,0.0,0.0,0.0,0.0,0.0,0.0,0.0,0.0,0.0,0.0,0.0,0.0,-0.4517,-0.3567,-0.3232,-0.3031,-0.2911,-0.3344,-0.3961,0.0,0.0,0.0,0.0,0.0,0.0,0.0,0.0,0.0,0.0,0.0,0.0,0.0,0.0,0.0,0.0,0.0,0.0,0.0,0.0,0.0,0.0,0.0,0.0,0.0,0.0,0.0,0.0,0.0,0.0,0.0,0.0,0.0,0.0,0.0,0.0,0.0,0.0,0.0,0.0,0.0,0.0,0.0,0.0,0.0,0.0,0.0,0.0,0.0,0.0,0.0,0.0,0.0,0.0,0.0,0.0,0.0,0.0,0.0,0.0,0.0,0.0,0.0,0.0,0.0,0.0,0.0,0.0,0.0,0.0,0.0,0.0,0.0,0.0,0.0,0.0,0.0,0.0,0.0,0.0,0.0,0.0,0.0,0.0,0.0,0.0,0.0,0.0,0.0,0.0,0.0,0.0,0.0,0.0,0.0,0.0,0.0,0.0,0.0,0.0,0.0,0.0,0.0,0.0,0.0,0.0,0.0,0.0,0.0,-0.3082,-0.2662,-0.2453,-0.2577,-0.2937,-0.3642,0.0,0.0,0.0,0.0,0.0,0.0,0.0,0.0,0.0,0.0,0.0,0.0,0.0,0.0,0.0,0.0,0.0,0.0,0.0,0.0,0.0,0.0,0.0,0.0,0.0,0.0,0.0,0.0,0.0,0.0,0.0,0.0,0.0,0.0,0.0,0.0,0.0,0.0,0.0,0.0,0.0,0.0,0.0,0.0,0.0,0.0,0.0,0.0,0.0,0.0,0.0,0.0,0.0,0.0,0.0,0.0,0.0,0.0,0.0,0.0,0.0,0.0,0.0,0.0,0.0,0.0,0.0,0.0,0.0,0.0,0.0,0.0,0.0,0.0,0.0,0.0,0.0,0.0,0.0,0.0,0.0,0.0,0.0,0.0,0.0,0.0,0.0,0.0,0.0,0.0,0.0,0.0,0.0,0.0,0.0,0.0,0.0,0.0,0.0,0.0,0.0,0.0,0.0,0.0,0.0,0.0,0.0,0.0,0.0,-0.187,-0.1839,-0.1976,-0.2276,-0.2648,-0.3435,-0.4565,0.0,0.0,0.0,0.0,0.0,0.0,0.0,0.0,0.0,0.0,0.0,0.0,0.0,0.0,0.0,0.0,0.0,0.0,0.0,0.0,0.0,0.0,0.0,0.0,0.0,0.0,0.0,0.0,0.0,0.0,0.0,0.0,0.0,0.0,0.0,0.0,0.0,0.0,0.0,0.0,0.0,0.0,0.0,0.0,0.0,0.0,0.0,0.0,0.0,0.0,0.0,0.0,0.0,0.0,0.0,0.0,0.0,0.0,0.0,0.0,0.0,0.0,0.0,0.0,0.0,0.0,0.0,0.0,0.0,0.0,0.0,0.0,0.0,0.0,0.0,0.0,0.0,0.0,0.0,0.0,0.0,0.0,0.0,0.0,0.0,0.0,0.0,0.0,0.0,0.0,0.0,0.0,0.0,0.0,0.0,0.0,0.0,0.0,0.0,0.0,0.0,0.0,0.0,0.0,0.0,0.0,0.0,0.0,0.0039,-0.0707,-0.1373,-0.198,-0.2487,-0.3326,0.0,0.0,0.0,0.0,0.0,0.0,0.0,0.0,0.0,0.0,0.0,0.0,0.0,0.0,0.0,0.0,0.0,0.0,0.0,0.0,0.0,0.0,0.0,0.0,0.0,0.0,0.0,0.0,0.0,0.0,0.0,0.0,0.0,0.0,0.0,0.0,0.0,0.0,0.0,0.0,0.0,0.0,0.0,0.0,0.0,0.0,0.0,0.0,0.0,0.0,0.0,0.0,0.0,0.0,0.0,0.0,0.0,0.0,0.0,0.0,0.0,0.0,0.0,0.0,0.0,0.0,0.0,0.0,0.0,0.0,0.0,0.0,0.0,0.0,0.0,0.0,0.0,0.0,0.0,0.0,0.0,0.0,0.0,0.0,0.0,0.0,0.0,0.0,0.0,0.0,0.0,0.0,0.0,0.0,0.0,0.0,0.0,0.0,0.0,0.0,0.0,0.0,0.0,0.0,0.0,0.0,0.0,0.0,0.0,0.1683,0.1338,0.0504,-0.0858,-0.1879,-0.2957,0.0,0.0,0.0,0.0,0.0,0.0,0.0,0.0,0.0,0.0,0.0,0.0,0.0,0.0,0.0,0.0,0.0,0.0,0.0,0.0,0.0,0.0,0.0,0.0,0.0,0.0,0.0,0.0,0.0,0.0,0.0,0.0,0.0,0.0,0.0,0.0,0.0,0.0,0.0,0.0,0.0,0.0,0.0,0.0,0.0,0.0,0.0,0.0,0.0,0.0,0.0,0.0,0.0,0.0,0.0,0.0,0.0,0.0,0.0,0.0,0.0,0.0,0.0,0.0,0.0,0.0,0.0,0.0,0.0,0.0,0.0,0.0,0.0,0.0,0.0,0.0,0.0,0.0,0.0,0.0,0.0,0.0,0.0,0.0,0.0,0.0,0.0,0.0,0.0,0.0,0.0,0.0,0.0,0.0,0.0,0.0,0.0,0.0,0.0,0.0,0.0,0.0,0.0,0.0,0.0,0.0,0.0,0.0,0.1897,0.2654,0.2416,0.1691,0.0485,-0.109,-0.2494,0.0,0.0,0.0,0.0,0.0,0.0,0.0,0.0,0.0,0.0,0.0,0.0,0.0,0.0,0.0,0.0,0.0,0.0,0.0,0.0,0.0,0.0,0.0,0.0,0.0,0.0,0.0,0.0,0.0,0.0,0.0,0.0,0.0,0.0,0.0,0.0,0.0,0.0,0.0,0.0,0.0,0.0,0.0,0.0,0.0,0.0,0.0,0.0,0.0,0.0,0.0,0.0,0.0,0.0,0.0,0.0,0.0,0.0,0.0,0.0,0.0,0.0,0.0,0.0,0.0,0.0,0.0,0.0,0.0,0.0,0.0,0.0,0.0,0.0,0.0,0.0,0.0,0.0,0.0,0.0,0.0,0.0,0.0,0.0,0.0,0.0,0.0,0.0,0.0,0.0,0.0,0.0,0.0,0.0,0.0,0.0,0.0,0.0,0.0,0.0,0.0,0.0,0.0,0.0,0.0,0.0,0.0,0.0,0.2621,0.3159,0.2956,0.2511,0.1815,-0.0229,-0.1993,0.0,0.0,0.0,0.0,0.0,0.0,0.0,0.0,0.0,0.0,0.0,0.0,0.0,0.0,0.0,0.0,0.0,0.0,0.0,0.0,0.0,0.0,0.0,0.0,0.0,0.0,0.0,0.0,0.0,0.0,0.0,0.0,0.0,0.0,0.0,0.0,0.0,0.0,0.0,0.0,0.0,0.0,0.0,0.0,0.0,0.0,0.0,0.0,0.0,0.0,0.0,0.0,0.0,0.0,0.0,0.0,0.0,0.0,0.0,0.0,0.0,0.0,0.0,0.0,0.0,0.0,0.0,0.0,0.0,0.0,0.0,0.0,0.0,0.0,0.0,0.0,0.0,0.0,0.0,0.0,0.0,0.0,0.0,0.0,0.0,0.0,0.0,0.0,0.0,0.0,0.0,0.0,0.0,0.0,0.0,0.0,0.0,0.0,0.0,0.0,0.0,0.0,0.0,0.0,0.0,0.0,0.0,0.0,0.3957,0.3865,0.3687,0.3092,0.2107,0.0122,-0.1495,0.0,0.0,0.0,0.0,0.0,0.0,0.0,0.0,0.0,0.0,0.0,0.0,0.0,0.0,0.0,0.0,0.0,0.0,0.0,0.0,0.0,0.0,0.0,0.0,0.0,0.0,0.0,0.0,0.0,0.0,0.0,0.0,0.0,0.0,0.0,0.0,0.0,0.0,0.0,0.0,0.0,0.0,0.0,0.0,0.0,0.0,0.0,0.0,0.1518,0.0,0.0,0.0,0.0,0.0,0.0,0.0,0.0,0.0,0.0,0.0,0.0,0.0,0.0,0.0,0.0,0.0,0.0,0.0,0.0,0.0,0.0,0.0,0.0,0.0,0.0,0.0,0.0,0.0,0.0,0.0,0.0,0.0,0.0,0.0,0.0,0.0,0.0,0.0,0.0,0.0,0.0,0.0,0.0,0.0,0.0,0.0,0.0,0.0,0.0,0.0,0.0,0.0,0.0,0.0,0.0,0.0,0.0,0.0,0.4705,0.47,0.4431,0.378,0.2661,0.1018,-0.0631,0.0,0.0,0.0,0.0,0.0,0.0,0.0,0.0,0.0,0.0,0.0,0.0,0.0,0.0,0.0,0.0,0.0,0.0,0.0,0.0,0.0,0.0,0.0,0.0,0.0,0.0,0.0,0.0,0.0,0.0,0.0,0.0,0.0,0.0,0.0,0.0,0.0,0.0,0.0,0.0,0.0,0.0,0.0,0.0,0.0,0.0,0.0,0.0,0.0,0.0,0.0,0.0,0.0,0.0,0.0,0.0,0.0,0.0,0.0,0.0,0.0,0.0,0.0,0.0,0.0,0.0,0.0,0.0,0.0,0.0,0.0,0.0,0.0,0.0,0.0,0.0,0.0,0.0,0.0,0.0,0.0,0.0,0.0,0.0,0.0,0.0,0.0,0.0,0.0,0.0,0.0,0.0,0.0,0.0,0.0,0.0,0.0,0.0,0.0,0.0,0.0,0.0,0.0,0.0,0.0,0.0,0.0,0.4366,0.5201,0.5524,0.5168,0.4435,0.3396,0.2033,0.039,-0.164,0.0,0.0,0.0,0.0,0.0,0.0,0.0,0.0,0.0,0.0,0.0,0.0,0.0,0.0,0.0,0.0,0.0,0.0,0.0,0.0,0.0,0.0,0.0,0.0,0.0,0.0,0.0,0.0,0.0,0.0,0.0,0.0,0.0,0.0,0.0,0.0,0.0,0.0,-0.0212,0.0131,0.0,0.0,0.0,0.0,0.0,0.0,0.0,0.0,0.1612,0.0,0.0,0.0,0.0,0.0,0.0,0.0,0.0,0.0,0.0,0.0,0.0,0.0,0.0,0.0,0.0,0.0,0.0,0.0,0.0,0.0,0.0,0.0,0.0,0.0,0.0,0.0,0.0,0.0,0.0,0.0,0.0,0.0,0.0,0.0,0.0,0.0,0.0,0.0,0.0,0.0,0.0,0.0,0.0,0.0,0.0,0.0,0.0,0.0,0.0,0.0,0.0,0.0,0.0,0.0,0.0,0.5463,0.5604,0.5851,0.6325,0.5771,0.5019,0.4117,0.2732,0.1192,-0.0481,0.0,0.0,0.0,0.0,0.0,0.0,0.0,0.0,0.0,0.0,0.0,0.0,0.0,0.0,0.0,0.0,0.0,0.0,0.0,0.0,0.0,0.0,0.0,0.0,0.0,0.0,0.0,0.0,0.0,0.0,0.0,0.0,0.0,0.0,0.0,0.0,0.0,0.0,0.0,0.1555,0.1383,0.0,0.0,0.0,0.0,0.0,0.0,0.0,0.0,0.2062,0.0,0.0,0.0,0.0,0.0,0.0,0.0,0.0,0.0,0.0,0.0,0.0,0.0,0.0,0.0,0.0,0.0,0.0,0.0,0.0,0.0,0.0,0.0,0.0,0.0,0.0,0.0,0.0,0.0,0.0,0.0,0.0,0.0,0.0,0.0,0.0,0.0,0.0,0.0,0.0,0.0,0.0,0.0,0.0,0.0,0.0,0.0,0.0,0.0,0.0,0.0,0.0,0.0,0.0,0.0,0.5653,0.6446,0.6868,0.6972,0.6319,0.554,0.4639,0.3487,0.1958,0.0,0.0,0.0,0.0,0.0,0.0,0.0,0.0,0.0,0.0,0.0,0.0,0.0,0.0,0.0,0.0,0.0,0.0,0.0,0.0,0.0,0.0,0.0,0.0,0.0,0.0,0.0,0.0,0.0,0.0,0.0,0.0,0.0,0.0,0.0,0.0,0.0,0.0,0.0,0.0,0.261,0.1725,0.1058,0.0,0.0,0.0,0.0,0.0,0.0,0.1118,0.0984,0.0,0.0,0.0,0.0,0.0,0.0,0.0,0.0,0.0,0.0,0.0,0.0,0.0,0.0,0.0,0.0,0.0,0.0,0.0,0.0,0.0,0.0,0.0,0.0,0.0,0.0,0.0,0.0,0.0,0.0,0.0,0.0,0.0,0.0,0.0,0.0,0.0,0.0,0.0,0.0,0.0,0.0,0.0,0.0,0.0,0.0,0.0,0.0,0.0,0.0,0.0,0.0,0.0,0.0,0.0,0.5732,0.7134,0.7787,0.7623,0.6859,0.6039,0.5222,0.434,0.2719,0.0,0.0,0.0,0.0,0.0,0.0,0.0,0.0,0.0,0.0,0.0,0.0,0.0,0.0,0.0,0.0,0.0,0.0,0.0,0.0,0.0,0.0,0.0,0.0,0.0,0.0,0.0,0.0,0.0,0.0,0.0,0.0,0.0,0.0,0.0,0.0,0.0,0.0,0.0,0.0,0.0,0.2916,0.2117,0.065,0.0,0.0,0.0,0.0,-0.0179,-0.0134,0.0,0.0,0.0,0.0,0.0,0.0,0.0,0.0,0.0,0.0,0.0,0.0,0.0,0.0,0.0,0.0,0.0,0.0,0.0,0.0,0.0,0.0,0.0,0.0,0.0,0.0,0.0,0.0,0.0,0.0,0.0,0.0,0.0,0.0,0.0,0.0,0.0,0.0,0.0,0.0,0.0,0.0,0.0,0.0,0.0,0.0,0.0,0.0,0.0,0.0,0.0,0.0,0.0,0.0,0.0,0.0,0.682,0.7709,0.82,0.8303,0.7447,0.6668,0.6141,0.5326,0.3609,0.0,0.0,0.0,0.0,0.0,0.0,0.0,0.0,0.0,0.0,0.0,0.0,0.0,0.0,0.0,0.0,0.0,0.0,0.0,0.0,0.0,0.0,0.0,0.0,0.0,0.0,0.0,0.0,0.0,0.0,0.0,0.0,0.0,0.0,0.0,0.0,0.0,0.0,0.0,0.0,0.0,0.6614,0.3538,0.0805,-0.1047,0.0,0.0,0.0,-0.1248,-0.0535,0.0,0.0,0.0,0.0,0.0,0.0,0.0,0.0,0.0,0.0,0.0,0.0,0.0,0.0,0.0,0.0,0.0,0.0,0.0,0.0,0.0,0.0,0.0,0.0,0.0,0.0,0.0,0.0,0.0,0.0,0.0,0.0,0.0,0.0,0.0,0.0,0.0,0.0,0.0,0.0,0.0,0.0,0.0,0.0,0.0,0.0,0.0,0.0,0.0,0.0,0.0,0.0,0.0,0.0,0.0,0.6573,0.7301,0.8372,0.8765,0.8422,0.7685,0.6881,0.6088,0.4911,0.3334,0.0,0.0,0.0,0.0,0.0,0.0,0.0,0.0,0.0,0.0,0.0,0.0,0.0,0.0,0.0,0.0,0.0,0.0,0.0,0.0,0.0,0.0,0.0,0.0,0.0,0.0,0.0,0.0,0.0,0.0,0.0,0.0,0.0,0.0,0.0,0.0,0.0,0.0,0.0,0.0,0.0,0.0,0.7515,0.5718,0.0,0.0,0.0,0.0326,-0.1804,0.0,0.0,0.0,0.0,0.0,0.0,0.0,0.0,0.0,0.0,0.0,0.0,0.0,0.0,0.0,0.0,0.0,0.0,0.0,0.0,0.0,0.0,0.0,0.0,0.0,0.0,0.0,0.0,0.0,0.0,0.0,0.0,0.0,0.0,0.0,0.0,0.0,0.0,0.0,0.0,0.0,0.0,0.0,0.0,0.0,0.0,0.0,0.0,0.0,0.0,0.0,0.0,0.0,0.0,0.0,0.0,0.0,0.7772,0.8926,0.9232,0.8716,0.7972,0.7107,0.6073,0.4549,0.0,0.0,0.0,0.0,0.0,0.0,0.0,0.0,0.0,0.0,0.0,0.0,0.0,0.0,0.0,0.0,0.0,0.0,0.0,0.0,0.0,0.0,0.0,0.0,0.0,0.0,0.0,-0.22,0.0,0.0,0.0,0.0,0.0,0.0,0.0,0.0,0.0,0.0,0.0,0.0,0.0,0.0,1.0591,1.0977,1.0373,0.8258,0.0,0.0,0.1492,-0.2227,-0.2705,-0.24,0.0,0.0,0.0,0.0,0.0,0.0,0.0,0.0,0.0,0.0,0.0,0.0,0.0,0.0,0.0,0.0,0.0,0.0,0.0,0.0,0.0,0.0,0.0,0.0,0.0,0.0,0.0,0.0,0.0,0.0,0.0,0.0,0.0,0.0,0.0,0.0,0.0,0.0,0.0,0.0,0.0,0.0,0.0,0.0,0.0,0.0,0.0,0.0,0.0,0.0,0.0,0.0,0.0,0.0,0.0,0.8494,0.9142,0.953,0.956,0.8502,0.7437,0.6459,0.4703,0.3099,0.0,0.0,0.0,0.0,0.0,0.0,0.0,0.0,0.0,0.0,0.0,0.0,0.0,0.0,0.0,0.0,0.0,0.0,0.0,0.0,0.0,0.0,0.0,0.0,0.0,0.0,0.0,0.0,0.0,0.0,0.0,0.0,0.0,0.0,0.0,0.0,0.0,0.0,0.0,0.0,0.0,1.4655,1.2411,1.3031,1.1143,0.0,0.0,0.0934,-0.2631,-0.3098,-0.2576,-0.1217,0.0,0.0,0.0,0.0,0.0,0.0,0.0,0.0,0.0,0.0,0.0,0.0,0.0,0.0,0.0,0.0,0.0,0.0,0.0,0.0,0.0,0.0,0.0,0.0,0.0,0.0,0.0,0.0,0.0,0.0,0.0,0.0,0.0,0.0,0.0,0.0,0.0,0.0,0.0,0.0,0.0,0.0,0.0,0.0,0.0,0.0,0.0,0.0,0.0,0.0,0.0,0.0,0.0,0.8086,0.9375,0.997,1.0055,0.9674,0.8902,0.7785,0.6229,0.5233,0.3965,0.0,0.0,0.0,0.0,0.0,0.0,0.0,0.0,0.0,0.0,0.0,0.0,0.0,0.0,0.0,0.0,0.0,0.0,0.0,0.0,0.0,0.0,0.0,0.0,0.0,0.0,0.0,0.0,0.1308,0.1221,0.0764,0.0,0.0,0.0,0.0,0.0,0.0,0.0,0.0,0.0,0.0,1.6751,1.6473,1.7273,0.0,0.0,0.5936,0.3879,-0.3462,-0.3286,-0.1795,-0.0606,0.0143,0.0,0.0,0.0,0.0,0.0,0.0,0.0,0.0,0.0,0.0,0.0,0.0,0.0,0.0,0.0,0.0,0.0,0.0,0.0,0.0,0.0,0.0,0.0,0.0,0.0,0.0,0.0,0.0,0.0,0.0,0.0,0.0,0.0,0.0,0.0,0.0,0.0,0.0,0.0,0.0,0.0,0.0,0.0,0.0,0.0,0.0,0.0,0.0,0.0,0.0,0.0,0.0,0.8766,0.9935,1.0445,1.0427,0.9872,0.932,0.7978,0.5881,0.53,0.4268,0.0,0.0,0.0,0.0,0.0,0.0,0.0,0.0,0.0,0.0,0.0,0.0,0.0,0.0,0.0,0.0,0.0,0.0,0.0,0.0,0.0,0.0,0.0,0.0,0.0,0.0,0.0,0.0,0.1943,0.1733,0.1184,0.0,0.0,0.0,0.0,0.0,0.0,0.0,0.0,0.0,0.0,1.8329,1.9222,1.9982,1.7309,0.853,0.8387,0.6037,-0.3155,-0.2672,-0.0831,0.0242,0.0,0.0,0.0,0.0,0.0,0.0,0.0,0.0,0.0,0.0,0.0,0.0,0.0,0.0,0.0,0.0,0.0,0.0,0.0,0.0,0.0,0.0,0.0,0.0,0.0,0.0,0.0,0.0,0.0,0.0,0.0,0.0,0.0,0.0,0.0,0.0,0.0,0.0,0.0,0.0,0.0,0.0,0.0,0.0,0.0,0.0,0.0,0.0,0.0,0.0,0.0,0.0,0.0,0.0,0.9984,1.0454,1.0544,1.0195,0.9569,0.8044,0.5436,0.4785,0.3722,0.2143,0.0,0.0,0.0,0.0,0.0,0.0,0.0,0.0,0.0,0.0,0.0,0.0,0.0,0.0,0.0,0.0,0.0,0.0,0.0,0.0,0.0,0.0,0.0,0.0,0.0,0.0,0.1566,0.1755,0.1831,0.0,0.0,0.0,0.0,0.0,0.0,0.0,0.0,0.0,0.0,1.8621,1.9563,1.9859,2.0418,1.7851,0.9563,0.8948,0.6584,-0.1394,-0.1182,0.0314,0.0,0.0,0.0,0.0,0.0,0.0,0.0,0.0,0.0,0.0,0.0,0.0,0.0,0.0,0.0,0.0,0.0,0.0,0.0,0.0,0.0,0.0,0.0,0.0,0.0,0.0,0.0,-0.2302,-0.2235,0.0,0.0,0.0,0.0,0.0,0.0,0.0,0.0,0.0,0.0,0.0,0.6396,0.4913,0.0,0.0,0.0,0.0,0.0,0.0,0.0,0.0,0.0,0.0,0.0,0.0,1.011,1.0785,1.1068,1.1004,1.0442,0.9811,0.823,0.5624,0.352,0.2035,0.1127,0.0,0.0,0.0,0.0,0.0,0.0,0.0,0.0,0.0,0.0,0.0,0.0,0.0,0.0,0.0,0.0,0.0,0.0,0.0,0.0,0.0,0.0,0.0,0.0,0.0,0.1699,0.0,0.0,0.0,0.0,0.0,0.0,0.0,0.0,0.0,0.0,0.0,1.839,1.8967,1.9636,2.0186,2.0463,2.0963,1.9184,0.0,0.0,0.0,0.0,0.0,0.0,0.0,0.0,0.0,0.0,0.0,0.0,0.0,0.0,0.3764,0.547,0.814,1.0454,1.1298,0.0,0.0,0.0,0.0,0.0,0.0,0.0,0.0,0.0,0.0,0.0,0.0,0.0,0.0,0.0,0.0,-0.1426,0.0,0.0,0.0,0.0,0.0,0.0,0.0,0.0,0.7421,0.8332,0.9851,0.8466,0.7742,0.0,0.8505,0.7647,0.0,0.0,0.0,0.0,0.0,0.0,0.0,0.0,1.0951,1.1301,1.1574,1.1262,1.0385,0.9638,0.8125,0.5929,0.3164,0.1475,0.1127,0.0895,0.0495,0.0,0.0,0.0,0.0,0.0,0.0,0.0,0.0,0.0,0.0,0.0,0.0,0.0,0.0,0.0,0.0,0.0,0.0,0.0,0.0,0.0,0.0,0.0,0.345,0.0,0.0,0.0,0.0,0.0,0.0,0.0,0.0,0.0,1.8192,1.9231,2.0045,2.0304,2.0478,2.063,2.0744,0.0,0.0,0.0,0.0,0.0,0.0,0.0,0.1945,0.2979,0.3091,0.3056,0.3067,0.1951,0.2689,0.768,0.0,0.0,0.9479,1.2064,1.449,1.5917,1.8628,2.0723,2.0645,2.3145,2.5423,0.0,0.0,0.0,0.0,0.0,0.0,0.0,0.0,-0.1067,-0.0837,0.0,-0.1014,0.0,0.0,0.0,0.0,0.0,0.0,0.0,0.0,1.0,0.9644,0.9067,0.8429,0.7804,0.7455,0.9429,1.033,1.0332,0.9611,0.0,0.0,0.0,0.0,0.0,0.0,1.1753,1.1668,1.1845,1.1352,1.0026,0.9068,0.7764,0.6159,0.3656,0.2226,0.2094,0.1368,0.0842,0.0587,0.0127,0.0,0.0,0.0,0.0,0.0,0.0,0.0,0.0,0.0,0.0,0.0,0.0,0.0,0.0,0.0,0.0,0.0,0.0,0.0,0.0,0.5807,0.0,0.0,0.0,0.0,0.0,0.0,0.0,0.0,0.0,0.0,2.0372,2.0624,2.0945,2.1274,0.0,0.0,0.0,0.0,1.9701,1.582,1.3198,1.0471,0.6857,0.409,0.2565,0.3297,0.0,0.0,0.2521,0.1435,0.251,0.7923,1.0772,1.3683,1.7996,1.8731,2.0194,2.4184,2.5046,2.5428,2.5444,2.5232,2.5484,-0.1685,0.0,0.0,0.0,0.0,-0.1512,-0.1672,-0.2206,-0.1612,-0.0695,0.0162,-0.179,0.0,0.0,0.0,0.0,0.0,0.0,1.3061,1.3996,1.4277,1.4662,1.5104,1.4906,1.4768,1.4742,1.5046,1.5034,1.4673,1.4038,1.3062,1.1827,0.0,0.0,0.0,0.0,1.2681,1.2139,1.2025,1.127,0.9761,0.9184,0.7766,0.5313,0.4307,0.333,0.2415,0.1937,0.1388,0.0723,0.0426,0.0,0.0,0.0,0.0,0.0,0.0,0.0,0.0,0.0,0.0,0.0,0.0,0.0,0.0,0.0,0.0,0.0,0.0,0.0,0.92,0.8209,0.8272,0.0,0.0,0.0,0.0,0.0,0.0,0.0,0.0,0.0,2.169,2.1657,2.162,0.0,0.0,2.1071,2.0794,2.1039,2.0814,1.9594,0.0,0.0,0.0,0.7487,0.446,0.4015,0.3855,0.3408,0.2352,0.1579,0.4092,1.3097,1.3432,1.4653,2.1935,2.3645,2.4064,2.5304,2.5565,2.5571,2.556,2.5538,2.5483,-0.1797,-0.1908,-0.1964,-0.2018,-0.2071,-0.1624,-0.1835,-0.2413,-0.2088,-0.1432,-0.0583,-0.2336,-0.4261,-0.6105,-0.2443,0.0,0.0,0.0,1.5919,1.7182,1.738,1.7754,1.8245,1.8077,1.7963,1.7914,1.7534,1.7102,1.6644,1.5941,1.5109,1.4148,0.0,0.0,1.3606,1.3456,1.3101,1.2599,1.2236,1.1309,0.973,0.8876,0.7466,0.5589,0.491,0.4058,0.2909,0.2358,0.1731,0.089,0.085,0.0828,0.0,0.0,0.0,0.0,0.0,0.0,0.0,0.0,0.0,0.0,0.0,0.1919,0.3578,0.0,0.0,0.0,1.034,1.2165,1.3108,1.1439,0.0,0.0,0.0,0.0,0.0,0.0,0.0,2.134,2.205,2.2349,2.2152,2.1974,2.184,2.1724,2.134,2.1023,2.0827,0.0,2.0975,2.097,1.8464,1.5823,1.367,0.9272,0.5706,0.4677,0.4015,0.335,0.2294,0.1511,0.5014,1.4011,1.4648,1.5129,2.4014,2.562,2.5585,2.5634,2.5615,2.5586,2.5571,2.5512,2.5468,-0.1798,-0.2071,-0.2238,-0.2184,-0.2071,-0.2128,-0.2199,-0.2294,-0.2656,-0.27,-0.2609,-0.2993,-0.5048,-0.7795,0.0672,0.0,0.0,1.4329,1.8054,1.9339,1.9295,1.9147,1.8954,1.8468,1.8118,1.7879,1.741,1.7042,1.6683,1.5894,1.5556,1.5652,1.4409,1.3979,1.4373,1.3718,1.3253,1.3007,1.2526,1.1454,0.9755,0.8223,0.7127,0.6458,0.5462,0.4466,0.3507,0.275,0.1983,0.1226,0.1312,0.1293,0.12,0.0,0.0,0.0,0.0,0.0,0.0,0.0,0.0,0.0,0.0,0.0,0.0,0.0,0.0,0.0,1.3901,0.0,1.8138,1.5272,0.0,0.0,0.0,1.5878,2.014,2.1078,2.1659,2.232,0.0,0.0,0.0,0.0,2.1763,2.1782,2.1294,2.0877,2.081,2.0628,2.0483,2.0445,1.6867,1.4098,1.358,0.9834,0.6474,0.5324,0.4288,0.3456,0.2516,0.1511,0.5372,1.5257,1.4596,1.5141,2.3957,2.5512,2.5517,2.5617,2.5609,2.5571,2.5505,2.5449,2.5404,-0.2004,-0.2683,-0.285,-0.2685,-0.2354,-0.2128,-0.2561,-0.3366,-0.3569,-0.4146,-0.5026,-0.5615,-0.6818,-0.8013,-0.2348,0.2386,0.641,1.1551,1.5826,1.906,1.8855,1.8145,1.7246,1.7081,1.6693,1.6053,1.5604,1.5327,1.5138,1.4789,1.4677,1.4767,1.4293,1.4305,1.4722,1.4141,1.3631,1.3221,1.2234,1.0929,0.9207,0.8193,0.7376,0.6796,0.5733,0.4878,0.4124,0.3189,0.2395,0.1728,0.1319,0.1085,0.1115,0.1189,0.0,0.0,0.0,0.0,0.0,0.0,0.0,0.0,0.0,0.4948,0.6011,0.0,1.1035,0.0,1.5769,1.8149,1.9559,1.9114,0.0,0.0,2.0171,2.0343,2.1302,2.1936,2.231,2.2304,2.2231,2.2245,2.2512,2.2312,2.228,2.2561,2.1711,2.0909,2.0628,2.0478,2.0139,1.9243,1.6904,1.4728,1.347,1.0269,0.7351,0.6352,0.5475,0.4604,0.3671,0.2619,0.4754,1.29,1.3749,1.6075,2.3856,2.5318,2.5244,2.531,2.5434,2.5518,2.5444,2.5365,2.5313,-0.1708,-0.2408,-0.2573,-0.2575,-0.2521,-0.274,-0.3294,-0.4125,-0.4336,-0.4999,-0.6005,-0.5964,-0.6255,-0.6284,-0.1279,0.2799,0.6141,1.1364,1.5398,1.819,1.7903,1.7437,1.686,1.6451,1.5804,1.488,1.4481,1.4043,1.3611,1.3643,1.37,1.3852,1.3779,1.3836,1.4003,1.3674,1.3302,1.301,1.1614,1.0238,0.8997,0.8124,0.7402,0.6815,0.6096,0.5319,0.4499,0.3735,0.2997,0.2294,0.1876,0.1635,0.1523,0.1461,0.1433,0.0,0.0,0.0,0.0,0.0,0.0,0.0,0.0,0.0,0.0,0.0,1.3739,0.0,1.7685,1.9111,2.0026,2.0347,2.0622,2.0886,2.151,2.1849,2.1655,2.2168,2.2535,2.2676,2.2517,2.2526,2.2949,2.2696,2.2563,2.2624,2.19,2.1202,2.0701,2.0213,1.9536,1.8588,1.6896,1.4952,1.3091,1.0698,0.8672,0.777,0.6972,0.6215,0.5454,0.462,0.6302,1.26,1.3964,1.604,2.2999,2.4727,2.4911,2.5284,2.5195,2.5079,2.5187,2.5203,2.5134,-0.1239,-0.1684,-0.1961,-0.2238,-0.2631,-0.3352,-0.3907,-0.4353,-0.468,-0.5234,-0.585,-0.488,-0.4362,-0.4009,0.0949,0.4271,0.6371,1.1611,1.503,1.6716,1.6625,1.6616,1.6696,1.6009,1.5095,1.4018,1.3569,1.2948,1.2276,1.2472,1.2667,1.2871,1.3016,1.3074,1.2919,1.2774,1.2582,1.2409,1.0732,0.9487,0.8792,0.8057,0.7385,0.6714,0.6387,0.5804,0.4901,0.4307,0.3675,0.2925,0.2725,0.2488,0.2107,0.1928,0.1837,0.0,0.1122,0.0,0.0,0.0,0.0,0.0,0.0,0.0,0.0,1.4087,1.6111,1.8781,1.9374,1.981,2.0246,2.0499,2.0735,2.1022,2.154,2.1809,2.1754,2.2156,2.262,2.3103,2.2911,2.2949,2.3339,2.3115,2.2733,2.2548,2.2067,2.1515,2.0976,2.0076,1.9161,1.8248,1.6846,1.4971,1.2725,1.1334,1.0387,0.9415,0.8758,0.8153,0.7524,0.6998,0.8398,1.326,1.4987,1.7176,2.2499,2.3951,2.4591,2.5122,2.4711,2.447,2.4953,2.498,2.4861,-0.1034,-0.1174,-0.1846,-0.2571,-0.3123,-0.2959,-0.3186,-0.3635,-0.4128,-0.444,-0.4467,-0.2948,-0.2344,-0.2396,-0.1328,0.2048,0.6915,0.7872,1.0548,1.4618,1.5,1.4812,1.416,1.4343,1.3784,1.2638,1.2236,1.181,1.136,1.1519,1.1819,1.2274,1.252,1.2569,1.2412,0.0,0.0,0.0,1.0035,0.9159,0.8356,0.7913,0.7359,0.6758,0.6478,0.0,0.5775,0.51,0.4466,0.3889,0.3486,0.0,0.0,0.0,0.0,0.0,0.0,0.0,0.0,0.0,0.0,0.0,0.981,1.1708,1.3144,1.6277,1.8718,1.989,2.015,2.0669,2.1663,2.1841,2.1949,2.222,2.2228,2.2248,2.2326,2.2564,2.2775,2.2866,2.3012,2.325,2.3554,2.3336,2.3167,2.3209,2.252,2.1772,2.1298,2.0514,1.9739,1.8844,1.6965,1.5029,1.321,1.2657,1.2073,1.1175,1.0837,1.0384,0.9717,0.9183,1.0253,1.4545,1.6004,1.7835,2.1888,2.3499,2.4177,2.3828,2.3707,2.3981,2.5181,2.4914,2.44,-0.0626,0.0,-0.0783,-0.141,0.0,-0.1717,-0.1442,-0.1342,-0.2426,-0.2627,-0.2082,-0.0112,0.0623,0.0287,0.1011,0.3509,0.7186,0.7544,0.9604,1.2969,1.3512,1.3716,1.3674,1.3779,1.3198,1.1913,1.1683,1.12,1.0506,1.0718,1.1124,1.1628,1.2126,1.2379,1.2319,1.1799,1.1118,1.0136,0.9738,0.901,0.8115,0.7783,0.7452,0.7123,0.0,0.0,0.0,0.0,0.0,0.0,0.0,0.0,0.0,0.0,0.0,0.2667,0.2027,0.1031,0.0096,0.6544,1.0211,0.9177,1.3601,1.6449,1.6591,1.8369,1.9637,2.0146,2.0385,2.0764,2.1362,2.1655,2.1895,2.2141,2.2295,2.2415,2.246,2.2704,2.2957,2.3202,2.3269,2.3358,2.3767,2.3534,2.3263,2.3172,2.2598,2.1979,2.1453,2.0492,1.9472,1.8376,1.7027,1.5581,1.4584,1.4124,1.3763,1.3157,1.293,1.2773,1.2441,1.2359,1.3352,1.6232,1.7692,1.9418,2.1985,2.3459,2.4022,2.3876,2.3589,2.3601,2.45,2.4239,2.3891,-0.0057,-0.0113,0.0451,0.0173,-0.0652,-0.0059,0.0598,0.1272,0.0,0.0,0.0,0.2691,0.3512,0.3327,0.4533,0.5914,0.737,0.8284,0.9769,1.1665,1.211,1.2803,1.3637,1.3399,1.2667,1.1516,1.1266,1.0677,0.9792,1.0146,1.0557,1.1057,1.1705,1.2149,1.2202,1.1486,1.0714,0.9821,0.9531,0.8883,0.7917,0.7652,0.7492,0.7346,0.7182,0.7046,0.7046,0.6412,0.5903,0.5528,0.492,0.4495,0.4268,0.3778,0.3471,0.3292,0.2587,0.1656,0.0805,0.7168,1.1284,1.148,1.7107,2.0408,2.007,2.0019,2.0028,2.0124,2.0543,2.0811,2.0889,2.1311,2.1633,2.1837,2.2216,2.2474,2.2519,2.2754,2.3148,2.3568,2.3443,2.3355,2.3646,2.3463,2.3098,2.2709,2.236,2.203,2.1383,2.0315,1.9144,1.7897,1.7062,1.639,1.5815,1.5519,1.5269,1.4904,1.4882,1.4933,1.5102,1.5472,1.6413,1.7844,1.9421,2.0929,2.2436,2.3434,2.4033,2.4221,2.3796,2.3388,2.3619,2.3632,2.3578,0.076,0.146,0.1167,0.1306,0.171,0.1831,0.2407,0.3121,0.2277,0.2086,0.2507,0.4022,0.4991,0.5532,0.6196,0.7023,0.7964,0.8422,0.9235,0.0,1.1065,1.1733,1.2363,1.2178,1.1715,1.1065,1.0458,1.0012,0.9666,0.9821,1.019,1.0775,1.1242,1.1643,1.1734,1.12,1.0539,0.9868,0.9233,0.8554,0.7809,0.7711,0.7406,0.6857,0.7413,0.7606,0.7287,0.7121,0.6979,0.6722,0.6103,0.5697,0.5606,0.511,0.4735,0.4466,0.3729,0.2878,0.1929,0.8584,1.5078,2.0023,2.1006,2.1002,2.062,2.0636,2.0559,2.0335,2.0981,2.1612,2.1604,2.1914,2.2175,2.2274,2.2347,2.2551,2.2811,2.3026,2.3216,2.3432,2.3519,2.3417,2.3216,2.2979,2.2663,2.2296,2.1935,2.1458,2.0733,2.023,1.9409,1.8357,1.7718,1.7122,1.6457,1.6406,1.6367,1.5961,1.6216,1.6442,1.6469,1.7041,1.7835,1.8682,2.0494,2.1745,2.2208,2.3174,2.3803,2.3675,2.3437,2.3522,2.3589,2.3712,2.3819,0.1448,0.2289,0.2589,0.3308,0.4227,0.4423,0.4628,0.4938,0.4797,0.4677,0.4746,0.5567,0.6378,0.7188,0.7364,0.7855,0.8522,0.8877,0.9503,1.0364,1.1082,1.1666,1.2073,1.1919,1.1488,1.0863,1.0453,1.0086,0.9811,0.9969,1.0359,1.088,1.1598,1.2077,1.2161,1.1618,1.0956,1.0199,0.9248,0.8521,0.8028,0.7723,0.767,0.7802,0.7847,0.7949,0.829,0.7892,0.7542,0.7336,0.6843,0.6412,0.618,0.5834,0.5534,0.5242,0.4821,0.4244,0.3545,0.8493,1.3861,1.9128,2.0428,2.0525,1.976,1.9796,1.9827,1.9666,1.9875,2.0162,2.0572,2.1001,2.1379,2.1708,2.2049,2.2405,2.2657,2.2987,2.3163,2.3212,2.3142,2.2994,2.2737,2.2449,2.2109,2.1807,2.1361,2.0809,2.0271,1.9978,1.953,1.879,1.8312,1.785,1.7315,1.7303,1.7295,1.7198,1.7474,1.7732,1.793,1.8596,1.9338,2.0174,2.1572,2.2526,2.2888,2.3659,2.392,2.3644,2.3601,2.3651,2.3503,2.3791,2.4149,0.2116,0.2981,0.3912,0.4932,0.5997,0.6326,0.6408,0.6307,0.6637,0.6728,0.6646,0.6906,0.7472,0.8101,0.8253,0.8522,0.9036,0.9395,0.9969,1.0736,1.1446,1.1859,1.1974,1.1901,1.1382,1.0714,1.0401,1.0186,0.9962,1.0128,1.0509,1.1107,1.1884,1.2322,1.2421,1.1962,1.124,1.0451,0.9542,0.8777,0.8281,0.7788,0.7883,0.8547,0.8158,0.83,0.9006,0.8482,0.8045,0.786,0.7486,0.7148,0.6851,0.6611,0.6386,0.6192,0.5959,0.5858,0.6103,0.8844,1.2411,1.6402,1.8753,1.97,1.8926,1.8843,1.8965,1.9112,1.9169,1.9405,2.0073,2.0546,2.0913,2.1394,2.1915,2.2265,2.2395,2.2702,2.2949,2.2904,2.2632,2.2417,2.2231,2.1949,2.1602,2.1264,2.0822,2.0372,2.0029,1.9808,1.9568,1.9223,1.8839,1.8536,1.8278,1.8298,1.8405,1.8464,1.8815,1.9054,1.9373,1.9962,2.0804,2.1622,2.2328,2.3084,2.3864,2.4173,2.4138,2.3912,2.3974,2.3964,2.3734,2.4127,2.4418,0.2947,0.3648,0.4405,0.5321,0.6183,0.6539,0.6703,0.6876,0.7214,0.757,0.769,0.7773,0.7854,0.8104,0.8822,0.9259,0.939,0.9775,1.0344,1.1031,1.1619,1.1842,1.1733,1.1573,1.1174,1.0537,1.0054,0.9908,0.9959,1.0112,1.0508,1.1226,1.1472,1.1714,1.1851,1.1541,1.1115,1.0608,1.0051,0.9332,0.8406,0.7937,0.7824,0.8184,0.8376,0.86,0.8876,0.8636,0.8609,0.8626,0.8311,0.8086,0.808,0.795,0.7739,0.7538,0.7268,0.7742,0.9238,1.1045,1.2893,1.5213,1.7384,1.8531,1.8331,1.8289,1.8581,1.9193,2.0107,2.0582,2.1052,2.1513,2.1812,2.1882,2.2189,2.2377,2.2395,2.242,2.2463,2.2449,2.2231,2.1949,2.1759,2.1506,2.1215,2.0709,2.0422,2.0118,1.9849,1.9887,1.9929,1.9753,1.9473,1.9328,1.9186,1.9527,1.9475,1.938,2.024,2.0496,2.0456,2.1313,2.2616,2.2214,2.2936,2.3494,2.3782,2.4051,2.4261,2.4385,2.4461,2.4592,2.4634,2.4887,2.4738,0.3951,0.4993,0.5319,0.5883,0.6609,0.7003,0.7219,0.7269,0.7609,0.786,0.8094,0.828,0.8343,0.8425,0.9263,0.9701,0.9749,1.0147,1.0654,1.1142,1.1263,1.1279,1.1226,1.1191,1.0953,1.0546,1.0316,1.0268,1.0384,1.0613,1.1109,1.1524,1.1783,1.1798,1.1787,1.1667,1.126,1.0597,1.0352,0.9726,0.8946,0.8373,0.8397,0.889,0.8606,0.8779,0.9266,0.9076,0.8987,0.918,0.8949,0.8811,0.8909,0.8691,0.8582,0.8531,0.851,0.9213,1.0684,1.0749,1.1846,1.4683,1.5924,1.6802,1.7257,1.7628,1.8166,1.8782,1.9274,1.9779,2.0481,2.0899,2.1252,2.1615,2.1855,2.1935,2.203,2.2044,2.203,2.203,2.1807,2.1602,2.1471,2.1153,2.0709,2.0258,2.0029,1.9925,1.9562,1.9763,2.007,2.0315,2.0694,2.0579,2.0054,2.0029,2.0156,2.0195,2.0514,2.0784,2.1028,2.1538,2.2412,2.255,2.3109,2.3596,2.3739,2.3912,2.4128,2.4591,2.5435,2.5777,2.5893,2.5978,2.5717,0.4948,0.587,0.6133,0.6535,0.7077,0.7396,0.7591,0.7702,0.7874,0.8122,0.8373,0.8686,0.8776,0.8836,0.9736,1.029,1.0515,1.0942,1.1241,1.1391,1.136,1.122,1.0959,1.103,1.0882,1.0647,1.0604,1.0618,1.0688,1.1059,1.1373,1.1677,1.1872,1.1872,1.1747,1.174,1.1443,1.0805,1.0608,1.0188,0.9477,0.9163,0.9269,0.9653,0.9266,0.9404,1.0151,0.9836,0.9655,0.9889,0.9714,0.963,0.9656,0.9558,0.9499,0.9571,0.9821,1.0485,1.1703,1.084,1.1564,1.42,1.4974,1.5533,1.6425,1.7213,1.7875,1.8507,1.8759,1.9342,2.0048,2.0346,2.0689,2.121,2.1361,2.1506,2.1664,2.165,2.165,2.1664,2.152,2.1372,2.1345,2.1036,2.0592,2.0406,2.026,2.0157,1.9994,2.0385,2.0853,2.1351,2.2101,2.2112,2.1236,2.1363,2.1308,2.1308,2.1643,2.1884,2.1682,2.218,2.2489,2.3065,2.3362,2.3539,2.3728,2.3844,2.4383,2.5209,2.5937,2.6394,2.6313,2.6497,2.6557,0.5873,0.6071,0.6802,0.726,0.7461,0.7661,0.7852,0.8102,0.8151,0.8415,0.8737,0.8924,0.8931,0.9033,1.0309,1.1129,1.1543,1.2047,1.2167,1.1857,1.2208,1.1964,1.095,1.1308,1.1156,1.0618,1.0618,1.0681,1.0807,1.0996,1.1185,1.131,1.156,1.163,1.1622,1.1622,1.1428,1.1073,1.1066,1.0696,1.0147,1.0323,1.0394,1.0214,1.0514,1.0786,1.1127,1.091,1.082,1.08,1.0777,1.0728,1.0576,1.0583,1.0643,1.0823,1.1137,1.1639,1.2296,1.2334,1.2882,1.4043,1.456,1.507,1.6187,1.7024,1.7797,1.8697,1.931,1.9965,2.0458,2.0604,2.0805,2.1023,2.1073,2.1233,2.1415,2.1421,2.1277,2.1415,2.1412,2.1316,2.1433,2.1093,2.1002,2.1099,2.1064,2.0958,2.131,2.1781,2.2266,2.2884,2.3419,2.3703,2.3136,2.2937,2.3173,2.3118,2.3069,2.3635,2.3473,2.3356,2.3453,2.3501,2.3761,2.3881,2.3834,2.4251,2.5048,2.5728,2.6092,2.6428,2.6826,2.6458,2.661,0.6793,0.726,0.7591,0.7727,0.7852,0.7982,0.8112,0.8236,0.8501,0.87,0.8958,0.9145,0.9476,0.9957,1.045,1.0884,1.1305,1.1763,1.1948,1.1885,1.1353,1.0931,1.0767,1.0885,1.0814,1.0618,1.0618,1.0681,1.0807,1.087,1.1059,1.124,1.1373,1.1435,1.1428,1.1435,1.124,1.0996,1.1303,1.124,1.0793,1.1606,1.1912,1.1488,1.0994,1.0933,1.1439,1.1075,1.0992,1.129,1.1256,1.1225,1.1355,1.1385,1.1446,1.15,1.1875,1.2295,1.2658,1.2956,1.3373,1.4001,1.4852,1.5371,1.5931,1.6989,1.7929,1.8518,1.9473,2.022,2.0615,2.0681,2.0793,2.1222,2.1389,2.1478,2.1643,2.1693,2.1643,2.1696,2.1731,2.1615,2.114,2.1008,2.102,2.105,2.0929,2.1168,2.1524,2.198,2.2688,2.3407,2.412,2.4771,2.5157,2.4395,2.4089,2.4075,2.4162,2.4312,2.4241,2.4339,2.4418,2.4455,2.4519,2.4716,2.4792,2.5303,2.6027,2.6346,2.6695,2.6972,2.7483,2.7162,2.7333,0.7521,0.7982,0.7982,0.8052,0.8112,0.8172,0.8236,0.8306,0.8635,0.8894,0.9017,0.921,0.9658,1.0174,1.0358,1.0698,1.1041,1.1473,1.1783,1.1888,1.0965,1.0554,1.0591,1.0618,1.0618,1.0618,1.0618,1.0688,1.0744,1.0807,1.0933,1.1115,1.1178,1.1247,1.1247,1.1247,1.1185,1.124,1.1615,1.1615,1.1476,1.2389,1.2773,1.2379,1.1721,1.1582,1.1994,1.1671,1.1636,1.1996,1.1895,1.1874,1.2089,1.212,1.212,1.2243,1.249,1.2736,1.2989,1.3224,1.364,1.4181,1.5048,1.5692,1.6104,1.7157,1.7984,1.8672,1.9498,2.0395,2.0706,2.0872,2.1043,2.1394,2.1511,2.1667,2.1809,2.1847,2.1783,2.1654,2.1535,2.1364,2.1187,2.125,2.1362,2.1289,2.1384,2.1766,2.2255,2.2828,2.3445,2.4218,2.491,2.5458,2.5788,2.536,2.5217,2.5189,2.4912,2.4977,2.509,2.5267,2.5309,2.5361,2.5485,2.5702,2.5974,2.6444,2.6763,2.7003,2.7233,2.7448,2.7777,2.7932,2.7908,0.7987,0.8047,0.7982,0.8117,0.8236,0.8236,0.8371,0.8511,0.877,0.8894,0.9081,0.921,0.9408,0.967,1.0174,1.0598,1.0892,1.1377,1.1695,1.1849,1.1399,1.0899,1.0624,1.0618,1.0618,1.0618,1.0618,1.0618,1.0618,1.0744,1.0807,1.0863,1.0996,1.1059,1.1129,1.1185,1.1373,1.1677,1.1864,1.1973,1.2074,1.2696,1.2948,1.2642,1.2866,1.2978,1.2992,1.2907,1.2874,1.287,1.2773,1.2797,1.2736,1.2736,1.2805,1.2858,1.2989,1.3111,1.3241,1.3285,1.3674,1.4529,1.5166,1.5961,1.6877,1.749,1.8182,1.9078,1.9866,2.0415,2.0824,2.1319,2.1584,2.1404,2.1522,2.1628,2.176,2.1707,2.1577,2.1314,2.1107,2.1081,2.1646,2.1746,2.1764,2.2152,2.2552,2.3039,2.3573,2.416,2.5051,2.5577,2.5833,2.5983,2.6162,2.6283,2.6361,2.6366,2.592,2.5734,2.5835,2.5918,2.5918,2.5957,2.6083,2.6303,2.6527,2.6905,2.704,2.7265,2.757,2.7725,2.7825,2.794,2.794,0.8317,0.8317,0.8317,0.8376,0.8441,0.8565,0.8635,0.877,0.9022,0.9145,0.921,0.9344,0.9478,0.9542,0.9862,1.0308,1.0807,1.0807,1.0989,1.1365,1.1059,1.0744,1.0618,1.0618,1.0618,1.0618,1.0618,1.0618,1.0624,1.0618,1.0681,1.0807,1.087,1.087,1.0933,1.1303,1.1615,1.167,1.2536,1.2895,1.2765,1.3321,1.3511,1.326,1.3329,1.3398,1.3329,1.3241,1.3058,1.2981,1.2989,1.292,1.292,1.2928,1.2989,1.305,1.3111,1.3241,1.3294,1.3391,1.3835,1.4777,1.5593,1.6327,1.7135,1.7909,1.8627,1.9449,2.0268,2.1045,2.1574,2.1945,2.2128,2.2171,2.2257,2.2304,2.2337,2.1982,2.1639,2.15,2.1469,2.1568,2.1771,2.1873,2.2201,2.2408,2.2859,2.3492,2.4092,2.4738,2.5384,2.5976,2.6139,2.6301,2.6408,2.6486,2.6578,2.6698,2.6437,2.6286,2.6418,2.6512,2.6515,2.6555,2.6732,2.6886,2.7111,2.7245,2.735,2.741,2.758,2.7675,2.779,2.784,2.784,0.8382,0.8242,0.8511,0.8646,0.8705,0.8835,0.8899,0.8894,0.9151,0.9332,0.9338,0.9478,0.9478,0.9542,0.9676,1.0053,1.0491,1.0364,1.0561,1.094,1.0751,1.0624,1.0618,1.0618,1.0618,1.0618,1.0618,1.0618,1.0618,1.0618,1.0624,1.0744,1.0744,1.0744,1.0807,1.1365,1.1677,1.1965,1.2895,1.3511,1.3571,1.3821,1.3881,1.37,1.364,1.364,1.3631,1.3614,1.338,1.305,1.2981,1.3216,1.3631,1.3743,1.3683,1.3743,1.3932,1.4061,1.3649,1.3835,1.4323,1.5226,1.6012,1.6842,1.7645,1.8525,1.9144,1.9865,2.0815,2.1568,2.2027,2.2418,2.2657,2.274,2.2687,2.2681,2.2604,2.2236,2.1876,2.1743,2.1679,2.1785,2.1958,2.2153,2.242,2.2543,2.304,2.361,2.4279,2.4908,2.555,2.6071,2.6272,2.6447,2.665,2.6674,2.6765,2.6817,2.6826,2.6842,2.6872,2.7026,2.7089,2.716,2.7275,2.723,2.7395,2.744,2.7515,2.756,2.756,2.7625,2.7675,2.7675,2.7725,0.8177,0.7902,0.8501,0.8894,0.8952,0.9017,0.9017,0.9081,0.921,0.9338,0.9338,0.9478,0.9478,0.9542,0.974,0.9926,1.0047,1.0308,1.0434,1.0624,1.0618,1.0618,1.0618,1.0618,1.0618,1.0618,1.0618,1.0638,1.0635,1.0628,1.0645,1.0685,1.0692,1.0631,1.0751,1.124,1.1911,1.2458,1.3199,1.3821,1.4198,1.4079,1.401,1.395,1.3899,1.3899,1.3959,1.3907,1.3675,1.305,1.3017,1.3545,1.4551,1.4914,1.4796,1.4728,1.5255,1.4805,1.4332,1.4446,1.5061,1.5786,1.6482,1.7197,1.8351,1.8995,1.9577,2.0258,2.1229,2.1913,2.225,2.2655,2.3037,2.3122,2.3005,2.275,2.2546,2.238,2.2189,2.1901,2.1738,2.1812,2.225,2.2384,2.2531,2.2787,2.3292,2.3989,2.4452,2.5077,2.5701,2.6082,2.6418,2.6606,2.6741,2.6846,2.6884,2.6974,2.7041,2.713,2.7181,2.7335,2.7437,2.7524,2.7575,2.7575,2.756,2.756,2.756,2.756,2.756,2.756,2.761,2.7625,2.7625,0.8306,0.8689,0.8894,0.8952,0.9017,0.9145,0.921,0.9274,0.9344,0.9408,0.9478,0.9478,0.9478,0.9542,0.9798,0.9989,1.011,1.0371,1.0555,1.0555,1.0618,1.0618,1.0618,1.0618,1.0618,1.0618,1.0624,1.0739,1.0862,1.0855,1.0868,1.0882,1.0875,1.0833,1.0785,1.1685,1.2266,1.2642,1.37,1.4198,1.4267,1.4198,1.413,1.401,1.4088,1.4096,1.401,1.3709,1.3649,1.3709,1.3199,1.3606,1.4787,1.4963,1.5031,1.5108,1.5089,1.4874,1.4401,1.4798,1.5486,1.6063,1.711,1.7922,1.8389,1.906,1.9684,2.0469,2.136,2.211,2.2611,2.2917,2.3245,2.3577,2.3469,2.3262,2.2883,2.2619,2.2435,2.2249,2.1861,2.197,2.2311,2.2604,2.2787,2.2969,2.359,2.4381,2.4738,2.5342,2.596,2.6312,2.6592,2.6765,2.6884,2.6951,2.7055,2.713,2.7233,2.7284,2.7386,2.7437,2.7524,2.7575,2.7575,2.756,2.756,2.756,2.756,2.756,2.756,2.756,2.756,2.7625,2.761,0.7917,0.7842,0.8431,0.8694,0.8818,0.8941,0.9145,0.9344,0.9478,0.9478,0.9478,0.9478,0.9548,0.9676,0.9862,1.0047,1.0174,1.0434,1.0555,1.0618,1.0618,1.0618,1.0618,1.0618,1.0618,1.0618,1.0618,1.0722,1.0942,1.0995,1.1056,1.1156,1.1176,1.1154,1.1283,1.2107,1.2771,1.3042,1.395,1.4455,1.4387,1.4258,1.4249,1.4198,1.4216,1.4207,1.4139,1.37,1.3631,1.395,1.364,1.3906,1.5313,1.5497,1.5692,1.6065,1.6185,1.5961,1.5517,1.5758,1.6064,1.6662,1.7824,1.8621,1.9099,1.9655,2.0392,2.1247,2.186,2.2394,2.2809,2.2969,2.3125,2.3352,2.3754,2.3695,2.3113,2.3073,2.2811,2.2481,2.225,2.2164,2.258,2.2787,2.2909,2.3078,2.3424,2.4163,2.4724,2.5508,2.6176,2.6472,2.6712,2.6884,2.6989,2.7107,2.7196,2.7284,2.7386,2.7437,2.7488,2.7539,2.7575,2.756,2.756,2.756,2.756,2.756,2.756,2.756,2.756,2.756,2.756,2.756,2.756,0.7195,0.6338,0.7577,0.8296,0.849,0.8554,0.8888,0.9414,0.9478,0.9478,0.9478,0.9478,0.9612,0.9945,0.9926,1.0117,1.0308,1.0498,1.0555,1.0618,1.0618,1.0618,1.0618,1.0618,1.0618,1.0618,1.0618,1.0768,1.1009,1.1069,1.1209,1.1471,1.1538,1.1681,1.1978,1.2685,1.3222,1.3501,1.413,1.4455,1.4446,1.4327,1.4318,1.4387,1.4318,1.4327,1.4318,1.401,1.389,1.4455,1.3821,1.4382,1.5843,1.6197,1.6712,1.7359,1.7429,1.724,1.7116,1.6623,1.6746,1.7318,1.843,1.9448,1.9855,2.0429,2.1068,2.1886,2.2433,2.2689,2.2823,2.2909,2.303,2.3305,2.3897,2.393,2.3623,2.3564,2.3339,2.2604,2.2604,2.2726,2.286,2.2909,2.2957,2.3125,2.359,2.4323,2.4951,2.5577,2.6204,2.6659,2.6832,2.6951,2.7107,2.7262,2.735,2.7437,2.7473,2.7524,2.7524,2.7575,2.7575,2.756,2.756,2.756,2.756,2.756,2.756,2.756,2.756,2.756,2.756,2.756,2.756,0.6859,0.7125,0.7451,0.7907,0.8425,0.8554,0.8888,0.9484,0.9478,0.9478,0.9478,0.9478,0.9682,0.9945,0.9996,1.011,1.0308,1.0498,1.0618,1.0618,1.0618,1.0618,1.0618,1.0618,1.0618,1.0618,1.0618,1.0835,1.1196,1.1323,1.1483,1.18,1.2291,1.2463,1.2276,1.3164,1.3692,1.364,1.4139,1.4446,1.4515,1.4455,1.4455,1.4515,1.4455,1.4455,1.4455,1.4387,1.4387,1.4318,1.4061,1.4392,1.5449,1.6083,1.6675,1.7238,1.7348,1.7323,1.7441,1.711,1.6827,1.7809,1.8739,1.9516,2.0334,2.0712,2.1236,2.1897,2.2419,2.2775,2.2848,2.2909,2.3138,2.3603,2.4002,2.4163,2.3989,2.4047,2.3649,2.3042,2.28,2.2848,2.2909,2.3017,2.3065,2.3245,2.3813,2.4553,2.5133,2.5701,2.6218,2.6727,2.6937,2.7055,2.7196,2.7299,2.7437,2.7473,2.7575,2.756,2.756,2.756,2.756,2.756,2.756,2.756,2.756,2.756,2.756,2.756,2.756,2.756,2.756,2.756,2.756,0.6404,0.6474,0.6798,0.7316,0.7902,0.7972,0.856,0.935,0.9478,0.9478,0.9478,0.9478,0.9676,0.9932,0.9989,1.0174,1.0428,1.0561,1.0618,1.0618,1.0618,1.0618,1.0618,1.0618,1.0618,1.0624,1.0618,1.0882,1.1283,1.1463,1.1637,1.211,1.2835,1.3175,1.2975,1.3623,1.4018,1.4127,1.402,1.413,1.4446,1.4515,1.4515,1.4515,1.4515,1.4515,1.4515,1.4793,1.4743,1.4616,1.4706,1.4923,1.5352,1.5999,1.6759,1.7643,1.7871,1.8242,1.8545,1.8398,1.8185,1.8643,1.94,2.0001,2.064,2.1091,2.1656,2.2176,2.2566,2.286,2.2909,2.286,2.315,2.3577,2.3975,2.4118,2.4015,2.4189,2.4015,2.3163,2.2921,2.2969,2.3017,2.3078,2.3125,2.3245,2.3767,2.4452,2.5021,2.5591,2.6272,2.6727,2.6989,2.7144,2.7284,2.7386,2.7488,2.7524,2.7575,2.756,2.756,2.756,2.756,2.756,2.756,2.756,2.756,2.756,2.756,2.756,2.756,2.756,2.756,2.756,2.756,0.5947,0.5428,0.6013,0.6662,0.7186,0.7386,0.8166,0.9221,0.9478,0.9478,0.9478,0.9478,0.967,0.9926,1.0053,1.0251,1.0498,1.0618,1.0618,1.0618,1.0618,1.0618,1.0618,1.0618,1.0608,1.0672,1.0645,1.0875,1.1216,1.1436,1.167,1.2276,1.3295,1.3696,1.3854,1.4079,1.4337,1.479,1.4239,1.401,1.4387,1.4515,1.4515,1.4515,1.4515,1.4634,1.4743,1.5079,1.5186,1.4843,1.5738,1.5911,1.5864,1.6124,1.7127,1.8671,1.8928,1.9423,2.0061,2.0053,1.9861,1.9907,2.0456,2.0871,2.1317,2.1764,2.2262,2.2592,2.2909,2.286,2.2848,2.2896,2.2944,2.328,2.3741,2.3872,2.378,2.4073,2.3826,2.3198,2.303,2.3078,2.3078,2.3065,2.3125,2.3305,2.3826,2.4408,2.5034,2.5646,2.6379,2.6832,2.7093,2.7284,2.7372,2.7423,2.7575,2.7575,2.756,2.756,2.756,2.756,2.756,2.756,2.756,2.756,2.756,2.756,2.756,2.756,2.756,2.756,2.756,2.756,2.756,0.5491,0.5428,0.5491,0.5947,0.6597,0.7186,0.7842,0.8689,0.9233,0.9484,0.9484,0.9484,0.9688,0.9926,1.013,1.0314,1.0561,1.0618,1.0618,1.0618,1.0618,1.0618,1.0618,1.0624,1.0675,1.0802,1.0779,1.0775,1.1129,1.1316,1.1677,1.2237,1.3554,1.4285,1.4332,1.4763,1.4994,1.5032,1.4493,1.4276,1.4455,1.4515,1.4515,1.4515,1.4575,1.4793,1.5128,1.5352,1.5575,1.5979,1.6187,1.6255,1.6343,1.6797,1.7763,1.8917,1.9528,2.0006,2.0777,2.0973,2.0912,2.1109,2.1587,2.2237,2.2531,2.2689,2.286,2.314,2.308,2.2885,2.2739,2.303,2.3053,2.3292,2.3713,2.4125,2.3785,2.3844,2.3962,2.3419,2.3261,2.3125,2.3125,2.3125,2.3245,2.3471,2.406,2.4694,2.5314,2.5988,2.6712,2.7041,2.7196,2.7386,2.7509,2.7524,2.7575,2.7575,2.756,2.756,2.756,2.756,2.756,2.756,2.756,2.756,2.756,2.756,2.756,2.756,2.756,2.756,2.756,2.756,2.756,0.5428,0.5428,0.5428,0.5818,0.64,0.6728,0.7512,0.8506,0.9012,0.9332,0.9485,0.961,0.9786,0.9957,1.006,1.0308,1.0498,1.0618,1.0618,1.0618,1.0618,1.0618,1.0618,1.0618,1.0692,1.0701,1.0641,1.0889,1.1403,1.159,1.179,1.2411,1.3757,1.4506,1.4477,1.4781,1.5312,1.5169,1.4592,1.4198,1.4455,1.4515,1.4515,1.4575,1.4793,1.5137,1.541,1.614,1.6244,1.6415,1.6888,1.714,1.7272,1.7475,1.8091,1.8977,1.9412,2.0088,2.0966,2.1237,2.1365,2.1732,2.2408,2.2921,2.3175,2.3103,2.319,2.3367,2.3442,2.3269,2.3454,2.3362,2.3412,2.3713,2.4249,2.461,2.461,2.4669,2.4333,2.3837,2.3444,2.3236,2.3125,2.3185,2.3245,2.3708,2.4279,2.4908,2.5591,2.6258,2.6922,2.7181,2.7335,2.7437,2.756,2.756,2.756,2.756,2.756,2.756,2.756,2.756,2.756,2.756,2.756,2.756,2.756,2.756,2.756,2.756,2.756,2.756,2.756,2.756,2.756,0.5428,0.5428,0.5226,0.5554,0.6141,0.6199,0.685,0.8002,0.8607,0.9194,0.9621,0.9813,0.9919,1.0034,1.0117,1.0301,1.0618,1.0618,1.0618,1.0618,1.0618,1.0618,1.0618,1.0631,1.0685,1.0806,1.0786,1.1075,1.1436,1.1663,1.1917,1.2532,1.3727,1.4601,1.4592,1.4916,1.5278,1.5123,1.4479,1.4088,1.4387,1.4387,1.4506,1.4684,1.5196,1.5478,1.5979,1.6743,1.7116,1.7296,1.7667,1.8204,1.8215,1.8125,1.8385,1.8913,1.8965,1.9746,2.0752,2.1292,2.1596,2.2188,2.2895,2.3386,2.3636,2.3535,2.3339,2.3467,2.3452,2.3589,2.3829,2.3851,2.3844,2.4124,2.4676,2.5148,2.5123,2.5018,2.4734,2.4232,2.3641,2.3261,2.315,2.3198,2.3245,2.3826,2.4452,2.5063,2.5742,2.6404,2.7011,2.7321,2.7473,2.7524,2.756,2.756,2.756,2.756,2.756,2.756,2.756,2.756,2.759,2.7634,2.756,2.756,2.756,2.756,2.756,2.756,2.756,2.756,2.756,2.756,2.756,0.5428,0.5359,0.4688,0.4891,0.5422,0.5467,0.5858,0.6793,0.7952,0.9215,1.0032,1.002,0.9937,1.006,1.0371,1.0561,1.0618,1.0618,1.0618,1.0618,1.0618,1.0618,1.0618,1.0618,1.0745,1.0853,1.0934,1.1041,1.1269,1.1463,1.1657,1.2287,1.3546,1.453,1.4458,1.5078,1.5587,1.5496,1.4814,1.4441,1.445,1.409,1.4432,1.5077,1.5615,1.6042,1.6931,1.7682,1.803,1.851,1.8623,1.8782,1.8759,1.8303,1.8972,1.9459,1.961,1.9529,2.0984,2.1584,2.2089,2.2907,2.3646,2.4073,2.4243,2.4242,2.3981,2.3478,2.3411,2.3707,2.4273,2.448,2.448,2.4697,2.515,2.527,2.5171,2.5495,2.5195,2.4648,2.4103,2.3492,2.3138,2.3198,2.3305,2.393,2.4567,2.5175,2.5892,2.6549,2.7049,2.7408,2.7524,2.756,2.756,2.756,2.7694,2.7664,2.7724,2.7754,2.7993,2.8083,2.7739,2.7754,2.7709,2.7619,2.756,2.756,2.756,2.756,2.756,2.756,2.756,2.756,2.756,0.5428,0.5359,0.4619,0.4486,0.4755,0.4746,0.5137,0.6009,0.7432,0.8777,0.974,1.0009,1.0083,1.0206,1.0498,1.0555,1.0618,1.0618,1.0618,1.0618,1.0618,1.0618,1.0618,1.0624,1.0732,1.0786,1.0866,1.1041,1.1256,1.1654,1.1925,1.2097,1.3215,1.3954,1.414,1.4942,1.5294,1.5226,1.4866,1.4818,1.4979,1.4952,1.5191,1.6194,1.6818,1.745,1.7984,1.8617,1.9041,1.9344,1.9333,1.9344,1.9437,1.939,1.9792,2.0189,2.0325,2.0899,2.225,2.2635,2.3182,2.3927,2.4805,2.5468,2.5166,2.4955,2.4672,2.4086,2.3978,2.4352,2.4993,2.5102,2.5192,2.5409,2.5884,2.6185,2.6083,2.5805,2.5694,2.515,2.4491,2.3782,2.3138,2.3138,2.3258,2.3675,2.4305,2.4935,2.5797,2.6759,2.7203,2.7509,2.756,2.756,2.756,2.7575,2.7919,2.7993,2.8218,2.8353,2.8742,2.8757,2.8427,2.8218,2.8233,2.8053,2.7724,2.756,2.756,2.756,2.756,2.756,2.756,2.756,2.766,0.5428,0.5359,0.4619,0.4284,0.4284,0.4284,0.4613,0.5213,0.6923,0.8271,0.9148,0.9813,1.0225,1.0353,1.0498,1.0618,1.0618,1.0618,1.0618,1.0618,1.0618,1.0618,1.0618,1.0624,1.0624,1.0631,1.0792,1.0981,1.1418,1.1873,1.2124,1.2049,1.3057,1.352,1.3807,1.4608,1.5255,1.5331,1.4898,1.5027,1.5478,1.5597,1.6116,1.7016,1.8036,1.8764,1.9037,1.9673,2.0039,1.9861,2.0205,2.0323,2.0193,2.0286,2.0644,2.1055,2.1341,2.2305,2.3422,2.4064,2.4372,2.5137,2.5847,2.6195,2.5356,2.5393,2.5365,2.4688,2.4994,2.5536,2.6112,2.5935,2.6168,2.6491,2.6892,2.7363,2.7431,2.6432,2.559,2.4883,2.4253,2.3671,2.3245,2.3125,2.3198,2.345,2.3982,2.4761,2.5965,2.7246,2.7839,2.8233,2.7979,2.7964,2.7889,2.7934,2.8173,2.8278,2.8502,2.8712,2.8966,2.922,2.9146,2.8981,2.8816,2.8442,2.8098,2.7814,2.756,2.756,2.756,2.756,2.756,2.7655,2.7825,0.5428,0.5359,0.4622,0.4353,0.4284,0.4284,0.435,0.4613,0.6613,0.7756,0.8603,0.9526,1.0302,1.0504,1.0561,1.0618,1.0618,1.0618,1.0618,1.0618,1.0624,1.0575,1.0665,1.0685,1.0678,1.0739,1.0913,1.1068,1.1323,1.1914,1.2226,1.2391,1.2924,1.3302,1.3742,1.4409,1.5375,1.5468,1.516,1.5182,1.5678,1.603,1.6523,1.7584,1.8344,1.8977,1.9664,2.0534,2.0889,2.0586,2.1129,2.1355,2.1129,2.1241,2.1601,2.2146,2.2509,2.3605,2.4771,2.4857,2.4774,2.5547,2.6263,2.6516,2.573,2.5978,2.5807,2.5344,2.5803,2.6222,2.6786,2.7087,2.7013,2.726,2.74,2.7464,2.716,2.6035,2.5213,2.4593,2.4,2.3466,2.3258,2.3198,2.3258,2.345,2.4891,2.5687,2.7054,2.8314,2.8851,2.9116,2.8682,2.8517,2.8412,2.8353,2.8023,2.8233,2.8577,2.8742,2.8921,2.9205,2.9939,2.9495,2.9286,2.8891,2.8517,2.8301,2.8047,2.7724,2.7715,2.8111,2.8273,2.8354,2.8458,0.5428,0.5359,0.509,0.4688,0.4284,0.4284,0.4284,0.4616,0.6527,0.8107,0.9168,0.9881,1.0257,1.0434,1.0561,1.0618,1.0618,1.0618,1.0555,1.0618,1.0624,1.0661,1.0742,1.0842,1.0915,1.1056,1.1216,1.1458,1.1673,1.1959,1.2168,1.2364,1.2659,1.2666,1.3172,1.4253,1.5368,1.6061,1.5863,1.5736,1.6355,1.6921,1.7563,1.8451,2.0093,2.0661,2.1172,2.1644,2.1789,2.1861,2.2152,2.214,2.2127,2.2263,2.2677,2.3218,2.3547,2.4498,2.5628,2.5735,2.6203,2.7037,2.7252,2.6807,2.6414,2.6778,2.67,2.6588,2.6629,2.7064,2.7893,2.7644,2.7327,2.7628,2.7806,2.7755,2.7075,2.5948,2.5192,2.4705,2.3933,2.3223,2.3198,2.321,2.333,2.3641,2.5219,2.6664,2.7929,2.891,2.9361,2.943,2.8966,2.8682,2.8562,2.8173,2.779,2.8188,2.8667,2.9041,2.94,3.0372,3.0795,3.0317,2.9799,2.9486,2.9173,2.8836,2.8576,2.8353,2.8606,2.9087,2.913,2.9139,2.9311,0.5491,0.5561,0.5491,0.5024,0.4353,0.4556,0.4489,0.4683,0.6531,0.8301,0.9804,1.0002,1.0123,1.0244,1.0301,1.0364,1.0364,1.0371,1.0371,1.0434,1.0461,1.067,1.0836,1.1022,1.1089,1.1376,1.155,1.1677,1.1804,1.1944,1.2118,1.2258,1.2305,1.2452,1.3098,1.4178,1.5613,1.6403,1.6551,1.6533,1.7207,1.7842,1.8665,1.9543,2.1009,2.1696,2.2054,2.2457,2.2603,2.2676,2.2809,2.2955,2.31,2.3318,2.3752,2.4125,2.4478,2.5069,2.5834,2.6614,2.7404,2.8089,2.7806,2.7508,2.7315,2.7249,2.7027,2.6947,2.7223,2.7813,2.8693,2.8454,2.7876,2.8143,2.8109,2.7916,2.7192,2.6231,2.5575,2.4912,2.3977,2.3125,2.3424,2.3603,2.4105,2.4443,2.5597,2.6985,2.8062,2.8934,2.9475,2.937,2.8996,2.8771,2.8562,2.8113,2.7799,2.8397,2.8936,2.9639,3.0223,3.1091,3.1407,3.0944,3.0485,3.016,2.9878,2.958,2.9277,2.8996,2.9342,2.9674,2.9846,2.9838,3.0425,0.5686,0.5822,0.5686,0.5084,0.4486,0.5093,0.4957,0.4686,0.6531,0.8301,0.967,0.9798,0.9926,0.9989,1.0117,1.0117,1.0117,1.0117,1.0117,1.0117,1.0244,1.0477,1.0738,1.0949,1.1208,1.1456,1.1697,1.1884,1.1917,1.2111,1.2258,1.2425,1.2592,1.2952,1.3608,1.4966,1.6114,1.676,1.683,1.7235,1.7833,1.8556,1.9465,2.044,2.1604,2.231,2.2616,2.3053,2.3185,2.304,2.3543,2.3616,2.3497,2.3897,2.4413,2.5005,2.5368,2.588,2.6546,2.7263,2.7827,2.822,2.7736,2.7571,2.6997,2.6969,2.7223,2.7019,2.757,2.8157,2.8858,2.9205,2.8595,2.8132,2.7998,2.7731,2.6931,2.6345,2.5587,2.4887,2.3927,2.3185,2.3603,2.406,2.4781,2.5409,2.6274,2.7265,2.8252,2.8934,2.952,2.937,2.9041,2.8771,2.8502,2.8023,2.7934,2.8532,2.9205,2.9924,3.0492,3.1076,3.1258,3.1287,3.0979,3.0493,3.0401,3.0324,3.0082,2.9884,2.9883,3.0144,3.0333,3.0818,3.1529,0.5822,0.5888,0.5686,0.5415,0.5216,0.5292,0.5226,0.5355,0.6732,0.8236,0.9414,0.974,0.9804,0.9868,0.9926,0.9989,0.9983,0.9989,0.9989,0.9983,1.0123,1.0568,1.0862,1.1112,1.1461,1.1911,1.2131,1.2131,1.2171,1.2345,1.2291,1.2452,1.331,1.3954,1.4386,1.5321,1.6123,1.676,1.6978,1.7235,1.8027,1.9023,1.9998,2.0887,2.2175,2.2884,2.3138,2.3569,2.3616,2.3484,2.4041,2.4041,2.3982,2.4305,2.4739,2.5308,2.5692,2.6021,2.6701,2.7244,2.7469,2.7447,2.7341,2.7149,2.6716,2.6738,2.6897,2.7162,2.7612,2.8085,2.8408,2.842,2.8025,2.7426,2.7202,2.6956,2.6399,2.6009,2.5482,2.4772,2.3953,2.3653,2.3819,2.4625,2.5381,2.6119,2.6916,2.748,2.836,2.9017,2.9549,2.937,2.9101,2.8786,2.8457,2.8158,2.8083,2.8517,2.9355,3.0238,3.0746,3.112,3.1273,3.1319,3.1099,3.085,3.0715,3.0696,3.0932,3.0884,3.1016,3.129,3.1731,3.2333,3.3096,0.602,0.609,0.5881,0.5749,0.5686,0.5495,0.5624,0.621,0.7321,0.8431,0.935,0.9676,0.9676,0.9734,0.9798,0.9862,0.9862,0.9798,0.9862,0.9874,1.0039,1.0473,1.0902,1.1286,1.1682,1.2125,1.2378,1.2358,1.2778,1.2732,1.2959,1.3455,1.4322,1.4824,1.5259,1.5833,1.6403,1.6899,1.7176,1.7833,1.868,1.9661,2.0685,2.1717,2.275,2.3463,2.3641,2.3878,2.4099,2.4157,2.4216,2.4274,2.4376,2.4718,2.5154,2.5773,2.6148,2.641,2.6889,2.6471,2.634,2.5961,2.6324,2.6472,2.6338,2.6196,2.6511,2.6873,2.7368,2.7649,2.7776,2.7719,2.7642,2.7093,2.68,2.6593,2.6168,2.573,2.537,2.4697,2.4317,2.4115,2.4302,2.5104,2.5966,2.6775,2.7567,2.8051,2.845,2.8981,2.943,2.9295,2.919,2.8996,2.8757,2.8517,2.8487,2.8592,2.943,3.0417,3.0731,3.1046,3.117,3.1261,3.0863,3.0643,3.0849,3.1023,3.1441,3.1967,3.2439,3.2761,3.3182,3.3569,3.4088,0.6284,0.6354,0.6284,0.6083,0.5888,0.5624,0.621,0.7321,0.8096,0.8823,0.942,0.942,0.9542,0.9478,0.9484,0.9542,0.9572,0.9578,0.9602,0.9734,1.0042,1.0528,1.0994,1.1371,1.184,1.2111,1.2445,1.2879,1.339,1.3535,1.389,1.4537,1.518,1.5621,1.5974,1.6333,1.676,1.7038,1.7501,1.8355,1.9333,2.0375,2.1588,2.2641,2.3346,2.3731,2.3968,2.4119,2.4171,2.4261,2.4305,2.4434,2.4722,2.5284,2.5921,2.6465,2.6776,2.693,2.6767,2.6072,2.5385,2.5177,2.5322,2.5562,2.5621,2.5614,2.5932,2.6311,2.681,2.7017,2.7148,2.7379,2.7577,2.7144,2.6847,2.6453,2.5946,2.5521,2.5165,2.476,2.4468,2.4455,2.5082,2.5876,2.6693,2.7549,2.8217,2.8453,2.8801,2.8801,2.916,2.919,2.9146,2.922,2.9041,2.8966,2.9146,2.9325,2.9684,3.0462,3.0717,3.0836,3.0854,3.0798,3.0478,3.0448,3.0851,3.146,3.2155,3.2656,3.3087,3.3403,3.3527,3.3951,3.4366,0.6354,0.642,0.6284,0.6148,0.6148,0.628,0.647,0.6789,0.7897,0.8619,0.8818,0.9285,0.9478,0.9478,0.9478,0.9478,0.955,0.9652,0.9742,0.9989,1.0282,1.0698,1.1115,1.1501,1.184,1.2357,1.2813,1.3244,1.36,1.3962,1.4752,1.5392,1.5754,1.6123,1.6482,1.6769,1.6936,1.7213,1.7832,1.8916,1.9998,2.0978,2.233,2.3367,2.347,2.3821,2.432,2.4027,2.4054,2.4474,2.4505,2.462,2.4775,2.5356,2.6075,2.7209,2.74,2.7322,2.6868,2.6137,2.5338,2.4848,2.4927,2.4829,2.4967,2.5213,2.5495,2.5914,2.6452,2.6757,2.6937,2.7092,2.7264,2.7174,2.6987,2.6997,2.6479,2.6167,2.5781,2.5128,2.4772,2.5197,2.5837,2.6682,2.7497,2.8293,2.8891,2.9149,2.9235,2.928,2.9131,2.919,2.937,2.952,2.9639,2.9609,2.9849,3.0103,3.0313,3.0402,3.0477,3.0552,3.0507,3.0376,3.0104,3.0443,3.098,3.1643,3.23,3.2879,3.3351,3.3662,3.3933,3.43,3.4562,0.642,0.642,0.6284,0.6346,0.6605,0.719,0.7246,0.7051,0.8032,0.849,0.8619,0.9215,0.9478,0.9478,0.9478,0.9484,0.9514,0.973,0.985,0.9995,1.0528,1.0872,1.1268,1.1631,1.1932,1.2478,1.3105,1.3608,1.4106,1.5037,1.5895,1.6184,1.6263,1.6482,1.6815,1.7064,1.7367,1.7846,1.8527,1.9655,2.072,2.1661,2.2856,2.3679,2.3548,2.3777,2.4424,2.3824,2.4132,2.4762,2.4891,2.4939,2.5243,2.5955,2.6809,2.7775,2.7435,2.7256,2.684,2.601,2.539,2.5003,2.4848,2.4791,2.4872,2.5118,2.532,2.5617,2.6216,2.672,2.6745,2.681,2.7001,2.7169,2.7431,2.7699,2.7364,2.7065,2.6401,2.5614,2.5625,2.5924,2.6606,2.7506,2.8321,2.9131,2.982,3.0182,3.0157,3.0073,2.9729,2.9475,2.9699,2.9924,3.0013,3.0043,3.0103,3.0223,3.0387,3.0432,3.0372,3.0507,3.066,3.0332,2.9829,3.0322,3.0945,3.1643,3.2251,3.2993,3.3662,3.3984,3.4234,3.4448,3.4707,0.642,0.642,0.6482,0.6741,0.7116,0.8091,0.8091,0.7517,0.8166,0.849,0.8624,0.9215,0.9478,0.9478,0.9478,0.952,0.9634,0.9838,1.0091,1.0031,1.0814,1.1219,1.1512,1.1793,1.2091,1.2498,1.3244,1.425,1.5037,1.5895,1.6542,1.6978,1.6839,1.6908,1.7144,1.7318,1.783,1.8873,1.9604,2.061,2.2092,2.287,2.3147,2.3779,2.3441,2.3005,2.3548,2.3896,2.4249,2.5002,2.5374,2.5382,2.6149,2.6671,2.7612,2.8042,2.7769,2.7441,2.7032,2.628,2.5646,2.5317,2.5084,2.5252,2.5431,2.5415,2.5586,2.5702,2.6288,2.6497,2.6526,2.7384,2.7886,2.8205,2.856,2.8967,2.9184,2.8358,2.7066,2.6362,2.5987,2.6466,2.753,2.8428,2.8916,2.9871,3.0454,3.088,3.0921,3.0708,3.0466,3.0028,3.0238,3.0376,3.0082,3.0097,3.0178,3.0283,3.0612,3.0806,3.1001,3.0974,3.0959,3.0571,3.0167,3.044,3.0968,3.1818,3.2746,3.3537,3.4084,3.4349,3.4562,3.466,3.4659,0.642,0.6486,0.7003,0.7456,0.7767,0.8027,0.7897,0.7517,0.8161,0.8554,0.8624,0.9151,0.9478,0.9478,0.9484,0.9556,0.979,1.0055,1.0402,1.0732,1.1288,1.1541,1.1812,1.2024,1.2298,1.2732,1.36,1.4966,1.6105,1.6751,1.7176,1.7647,1.7442,1.7314,1.7676,1.7788,1.8485,1.9909,2.0678,2.1458,2.2526,2.2916,2.3115,2.3489,2.3182,2.3142,2.3552,2.3942,2.4734,2.5625,2.5751,2.6267,2.7264,2.7427,2.789,2.8379,2.822,2.7824,2.7428,2.6854,2.6344,2.6366,2.6387,2.6309,2.6199,2.61,2.6019,2.6078,2.62,2.6281,2.6645,2.7769,2.8827,2.9231,2.9623,3.0238,3.0756,2.9362,2.7802,2.717,2.6647,2.7245,2.8367,2.9111,2.9633,3.0216,3.0705,3.1073,3.1073,3.1012,3.1289,3.1004,3.0974,3.0989,3.0473,3.0369,3.0526,3.0929,3.1362,3.1511,3.1644,3.1362,3.1126,3.0884,3.0683,3.1219,3.1843,3.2451,3.3355,3.4277,3.4558,3.4871,3.4659,3.4676,3.4579,0.6548,0.6876,0.7847,0.8366,0.849,0.8742,0.8683,0.8431,0.8759,0.8952,0.8952,0.9285,0.9478,0.9478,0.9484,0.9634,0.9959,1.0206,1.0505,1.1006,1.1481,1.1729,1.2003,1.2231,1.2592,1.3098,1.4458,1.5824,1.7166,1.7442,1.7774,1.824,1.7978,1.7998,1.8464,1.8665,1.9403,2.0956,2.1626,2.2324,2.2924,2.3059,2.337,2.3551,2.3118,2.3119,2.362,2.4021,2.4766,2.5747,2.6163,2.6503,2.7196,2.7523,2.8012,2.8325,2.8307,2.8056,2.7707,2.74,2.7051,2.7019,2.7516,2.7353,2.6875,2.6649,2.6386,2.6436,2.6346,2.6451,2.6676,2.7521,2.8901,2.9705,3.0129,3.0628,3.0609,2.9862,2.8731,2.8037,2.7683,2.7719,2.8634,2.9274,2.9832,3.0286,3.0821,3.0999,3.1073,3.1383,3.1664,3.1826,3.1707,3.1243,3.0529,3.0648,3.1049,3.1541,3.2124,3.2244,3.2199,3.1722,3.1319,3.1697,3.2109,3.254,3.3105,3.364,3.4324,3.5318,3.537,3.5337,3.5061,3.4885,3.4886,0.6679,0.7461,0.8689,0.921,0.921,0.9664,0.9734,0.9478,0.9478,0.9478,0.9414,0.9478,0.9478,0.9478,0.949,0.9694,0.9983,1.023,1.0554,1.1153,1.1525,1.1829,1.2077,1.2224,1.2945,1.3947,1.5305,1.6706,1.8104,1.8172,1.8442,1.8977,1.9054,1.9075,1.9432,1.992,2.0694,2.1592,2.2379,2.3301,2.3515,2.3364,2.3589,2.332,2.2785,2.2552,2.3436,2.4279,2.4749,2.5638,2.663,2.7087,2.7352,2.7773,2.8085,2.837,2.8325,2.813,2.7947,2.7564,2.7242,2.7244,2.8074,2.8179,2.7711,2.7357,2.7099,2.6923,2.6845,2.6741,2.6953,2.7671,2.9044,3.0277,3.0678,3.1219,3.0918,3.046,2.9631,2.8862,2.8571,2.841,2.8876,2.9512,3.0059,3.0488,3.0686,3.0775,3.0951,3.1543,3.1974,3.2139,3.2154,3.1558,3.1108,3.1215,3.1781,3.2198,3.2731,3.285,3.2956,3.3051,3.3155,3.3352,3.3738,3.418,3.4444,3.4872,3.5663,3.6182,3.5987,3.5788,3.5788,3.5578,3.5432,0.6732,0.7902,0.8753,0.928,0.9612,0.9804,0.967,0.9548,0.9478,0.9478,0.9478,0.9478,0.9478,0.9478,0.9478,0.9694,1.017,1.0327,1.0861,1.1525,1.1588,1.1916,1.2224,1.2586,1.3658,1.4854,1.6123,1.7366,1.8747,1.8957,1.9253,2.002,1.9341,1.9653,2.0549,2.0999,2.1381,2.2391,2.3089,2.3852,2.4295,2.4115,2.351,2.3317,2.319,2.3403,2.4037,2.4817,2.5435,2.6233,2.7032,2.7563,2.7818,2.8048,2.8333,2.84,2.8343,2.852,2.8337,2.8464,2.8352,2.8474,2.9188,2.9287,2.8871,2.8527,2.828,2.7992,2.7828,2.731,2.7567,2.8523,2.9769,3.0872,3.1579,3.2213,3.2396,3.124,2.9998,2.9401,2.8957,2.9067,2.9463,3.0007,3.0572,3.0859,3.0829,3.0933,3.1238,3.1775,3.2311,3.2522,3.2642,3.3078,3.3095,3.2467,3.2672,3.3099,3.3347,3.3469,3.3895,3.4921,3.5126,3.5112,3.5472,3.5903,3.6174,3.6222,3.6228,3.6583,3.6388,3.6222,3.6303,3.6287,3.6125]}]]